| time (UTC) | temp C | wind direction | speed KPH | gust KPH | rain 1hr cm | rain 24hr cm | rain mn cm | humidity % | barometer mb |
| 20260903182900 | 29 | 254 | 14.5 | 25.7 | 0.00 | 0.00 | 0.00 | 65 | 1010.4 |
| 20260903182808 | 29 | 220 | 14.5 | 22.5 | 0.00 | 0.00 | 0.00 | 64 | 1010.4 |
| 20260903182713 | 29 | 242 | 16.1 | 22.5 | 0.00 | 0.00 | 0.00 | 64 | 1010.5 |
| 20260903182558 | 29 | 265 | 16.1 | 22.5 | 0.00 | 0.00 | 0.00 | 63 | 1010.4 |
| 20260903182503 | 29 | 240 | 16.1 | 22.5 | 0.00 | 0.00 | 0.00 | 63 | 1010.5 |
| 20260903182427 | 29 | 266 | 14.5 | 22.5 | 0.00 | 0.00 | 0.00 | 63 | 1010.6 |
| 20260903182330 | 30 | 271 | 14.5 | 27.4 | 0.00 | 0.00 | 0.00 | 62 | 1010.6 |
| 20260903182159 | 30 | 260 | 11.3 | 27.4 | 0.00 | 0.00 | 0.00 | 63 | 1010.6 |
| 20260903182103 | 30 | 268 | 9.7 | 29.0 | 0.00 | 0.00 | 0.00 | 62 | 1010.7 |
| 20260903182008 | 30 | 248 | 12.9 | 29.0 | 0.00 | 0.00 | 0.00 | 62 | 1010.7 |
| 20260903181932 | 30 | 264 | 14.5 | 29.0 | 0.00 | 0.00 | 0.00 | 62 | 1010.8 |
| 20260903181756 | 30 | 245 | 12.9 | 29.0 | 0.00 | 0.00 | 0.00 | 62 | 1010.7 |
| 20260903181700 | 30 | 245 | 12.9 | 29.0 | 0.00 | 0.00 | 0.00 | 62 | 1010.8 |
| 20260903181605 | 30 | 275 | 17.7 | 29.0 | 0.00 | 0.00 | 0.00 | 61 | 1010.7 |
| 20260903181514 | 30 | 279 | 19.3 | 29.0 | 0.00 | 0.00 | 0.00 | 61 | 1010.7 |
| 20260903181359 | 30 | 232 | 20.9 | 29.0 | 0.00 | 0.00 | 0.00 | 60 | 1010.7 |
| 20260903181303 | 30 | 221 | 16.1 | 25.7 | 0.00 | 0.00 | 0.00 | 59 | 1010.7 |
| 20260903181207 | 31 | 229 | 12.9 | 25.7 | 0.00 | 0.00 | 0.00 | 60 | 1010.7 |
| 20260903181132 | 31 | 249 | 14.5 | 25.7 | 0.00 | 0.00 | 0.00 | 60 | 1010.7 |
| 20260903180955 | 31 | 242 | 17.7 | 25.7 | 0.00 | 0.00 | 0.00 | 60 | 1010.6 |
| 20260903180904 | 31 | 242 | 19.3 | 25.7 | 0.00 | 0.00 | 0.00 | 60 | 1010.7 |
| 20260903180809 | 31 | 250 | 16.1 | 25.7 | 0.00 | 0.00 | 0.00 | 60 | 1010.7 |
| 20260903180734 | 31 | 234 | 12.9 | 25.7 | 0.00 | 0.00 | 0.00 | 62 | 1010.6 |
| 20260903180557 | 31 | 227 | 14.5 | 25.7 | 0.00 | 0.00 | 0.00 | 61 | 1010.6 |
| 20260903180502 | 30 | 227 | 14.5 | 25.7 | 0.00 | 0.00 | 0.00 | 60 | 1010.6 |
| 20260903180405 | 30 | 229 | 12.9 | 25.7 | 0.00 | 0.00 | 0.00 | 61 | 1010.6 |
| 20260903180310 | 30 | 244 | 16.1 | 25.7 | 0.00 | 0.00 | 0.00 | 60 | 1010.6 |
| 20260903180159 | 30 | 234 | 17.7 | 25.7 | 0.00 | 0.00 | 0.00 | 60 | 1010.7 |
| 20260903180105 | 30 | 220 | 17.7 | 24.1 | 0.00 | 0.00 | 0.00 | 60 | 1010.7 |
| 20260903180029 | 30 | 231 | 16.1 | 24.1 | 0.00 | 0.00 | 0.00 | 60 | 1010.7 |
| 20260903175912 | 30 | 223 | 16.1 | 24.1 | 0.00 | 0.00 | 0.00 | 62 | 1010.7 |
| 20260903175757 | 30 | 235 | 14.5 | 24.1 | 0.00 | 0.00 | 0.00 | 61 | 1010.8 |
| 20260903175702 | 30 | 237 | 11.3 | 22.5 | 0.00 | 0.00 | 0.00 | 61 | 1010.8 |
| 20260903175611 | 30 | 229 | 14.5 | 22.5 | 0.00 | 0.00 | 0.00 | 60 | 1010.8 |
| 20260903175456 | 30 | 244 | 16.1 | 22.5 | 0.00 | 0.00 | 0.00 | 61 | 1010.8 |
| 20260903175401 | 30 | 238 | 14.5 | 19.3 | 0.00 | 0.00 | 0.00 | 61 | 1010.7 |
| 20260903175306 | 30 | 260 | 14.5 | 19.3 | 0.00 | 0.00 | 0.00 | 60 | 1010.8 |
| 20260903175211 | 30 | 214 | 12.9 | 19.3 | 0.00 | 0.00 | 0.00 | 61 | 1010.8 |
| 20260903175100 | 30 | 243 | 11.3 | 17.7 | 0.00 | 0.00 | 0.00 | 61 | 1010.7 |
| 20260903175005 | 30 | 223 | 9.7 | 17.7 | 0.00 | 0.00 | 0.00 | 62 | 1010.8 |
| 20260903174910 | 30 | 219 | 9.7 | 19.3 | 0.00 | 0.00 | 0.00 | 61 | 1010.8 |
| 20260903174815 | 30 | 239 | 9.7 | 19.3 | 0.00 | 0.00 | 0.00 | 61 | 1010.7 |
| 20260903174740 | 30 | 258 | 9.7 | 19.3 | 0.00 | 0.00 | 0.00 | 61 | 1010.7 |
| 20260903174557 | 30 | 225 | 14.5 | 19.3 | 0.00 | 0.00 | 0.00 | 62 | 1010.7 |
| 20260903174502 | 30 | 237 | 12.9 | 19.3 | 0.00 | 0.00 | 0.00 | 62 | 1010.7 |
| 20260903174411 | 30 | 242 | 12.9 | 19.3 | 0.00 | 0.00 | 0.00 | 62 | 1010.7 |
| 20260903174256 | 30 | 225 | 14.5 | 19.3 | 0.00 | 0.00 | 0.00 | 62 | 1010.7 |
| 20260903174222 | 30 | 238 | 12.9 | 19.3 | 0.00 | 0.00 | 0.00 | 62 | 1010.7 |
| 20260903174059 | 29 | 229 | 12.9 | 19.3 | 0.00 | 0.00 | 0.00 | 62 | 1010.8 |
| 20260903174004 | 29 | 247 | 12.9 | 22.5 | 0.00 | 0.00 | 0.00 | 61 | 1010.8 |
| 20260903173909 | 29 | 261 | 14.5 | 22.5 | 0.00 | 0.00 | 0.00 | 62 | 1010.8 |
| 20260903173839 | 29 | 261 | 11.3 | 22.5 | 0.00 | 0.00 | 0.00 | 63 | 1010.8 |
| 20260903173655 | 29 | 252 | 11.3 | 22.5 | 0.00 | 0.00 | 0.00 | 62 | 1010.8 |
| 20260903173600 | 29 | 257 | 12.9 | 22.5 | 0.00 | 0.00 | 0.00 | 62 | 1011.0 |
| 20260903173525 | 29 | 244 | 9.7 | 22.5 | 0.00 | 0.00 | 0.00 | 63 | 1010.9 |
| 20260903173410 | 29 | 257 | 12.9 | 22.5 | 0.00 | 0.00 | 0.00 | 63 | 1010.9 |
| 20260903173314 | 29 | 247 | 12.9 | 22.5 | 0.00 | 0.00 | 0.00 | 63 | 1010.9 |
| 20260903173203 | 29 | 254 | 12.9 | 19.3 | 0.00 | 0.00 | 0.00 | 64 | 1011.0 |
| 20260903173128 | 29 | 248 | 11.3 | 19.3 | 0.00 | 0.00 | 0.00 | 63 | 1011.1 |
| 20260903173011 | 29 | 259 | 11.3 | 19.3 | 0.00 | 0.00 | 0.00 | 62 | 1011.1 |
| 20260903172856 | 29 | 252 | 9.7 | 19.3 | 0.00 | 0.00 | 0.00 | 63 | 1011.1 |
| 20260903172801 | 29 | 272 | 9.7 | 19.3 | 0.00 | 0.00 | 0.00 | 65 | 1011.1 |
| 20260903172726 | 29 | 257 | 11.3 | 19.3 | 0.00 | 0.00 | 0.00 | 65 | 1011.1 |
| 20260903172610 | 29 | 212 | 9.7 | 19.3 | 0.00 | 0.00 | 0.00 | 65 | 1011.1 |
| 20260903172459 | 29 | 258 | 9.7 | 19.3 | 0.00 | 0.00 | 0.00 | 64 | 1011.1 |
| 20260903172404 | 29 | 234 | 11.3 | 19.3 | 0.00 | 0.00 | 0.00 | 65 | 1011.1 |
| 20260903172309 | 28 | 219 | 12.9 | 19.3 | 0.00 | 0.00 | 0.00 | 65 | 1011.1 |
| 20260903172214 | 28 | 227 | 12.9 | 19.3 | 0.00 | 0.00 | 0.00 | 64 | 1011.1 |
| 20260903172120 | 28 | 257 | 11.3 | 16.1 | 0.00 | 0.00 | 0.00 | 65 | 1011.1 |
| 20260903172024 | 28 | 213 | 11.3 | 16.1 | 0.00 | 0.00 | 0.00 | 64 | 1011.0 |
| 20260903171907 | 28 | 215 | 9.7 | 17.7 | 0.00 | 0.00 | 0.00 | 66 | 1011.0 |
| 20260903171835 | 28 | 259 | 9.7 | 16.1 | 0.00 | 0.00 | 0.00 | 66 | 1011.1 |
| 20260903171739 | 28 | 222 | 9.7 | 16.1 | 0.00 | 0.00 | 0.00 | 66 | 1011.2 |
| 20260903171556 | 28 | 223 | 9.7 | 16.1 | 0.00 | 0.00 | 0.00 | 65 | 1011.1 |
| 20260903171500 | 28 | 224 | 11.3 | 16.1 | 0.00 | 0.00 | 0.00 | 66 | 1011.2 |
| 20260903171406 | 28 | 286 | 11.3 | 17.7 | 0.00 | 0.00 | 0.00 | 66 | 1011.2 |
| 20260903171310 | 28 | 227 | 12.9 | 17.7 | 0.00 | 0.00 | 0.00 | 65 | 1011.2 |
| 20260903171159 | 28 | 223 | 12.9 | 17.7 | 0.00 | 0.00 | 0.00 | 65 | 1011.2 |
| 20260903171123 | 28 | 279 | 12.9 | 17.7 | 0.00 | 0.00 | 0.00 | 65 | 1011.2 |
| 20260903171027 | 28 | 245 | 11.3 | 16.1 | 0.00 | 0.00 | 0.00 | 65 | 1011.2 |
| 20260903170911 | 28 | 236 | 11.3 | 17.7 | 0.00 | 0.00 | 0.00 | 66 | 1011.2 |
| 20260903170816 | 28 | 229 | 12.9 | 17.7 | 0.00 | 0.00 | 0.00 | 65 | 1011.2 |
| 20260903170720 | 28 | 245 | 12.9 | 17.7 | 0.00 | 0.00 | 0.00 | 65 | 1011.3 |
| 20260903170604 | 28 | 247 | 12.9 | 17.7 | 0.00 | 0.00 | 0.00 | 64 | 1011.2 |
| 20260903170508 | 28 | 229 | 12.9 | 17.7 | 0.00 | 0.00 | 0.00 | 63 | 1011.2 |
| 20260903170418 | 28 | 211 | 12.9 | 16.1 | 0.00 | 0.00 | 0.00 | 64 | 1011.2 |
| 20260903170255 | 29 | 200 | 11.3 | 17.7 | 0.00 | 0.00 | 0.00 | 64 | 1011.2 |
| 20260903170221 | 29 | 229 | 12.9 | 17.7 | 0.00 | 0.00 | 0.00 | 64 | 1011.3 |
| 20260903170104 | 29 | 236 | 12.9 | 17.7 | 0.00 | 0.00 | 0.00 | 63 | 1011.3 |
| 20260903170010 | 29 | 243 | 12.9 | 17.7 | 0.00 | 0.00 | 0.00 | 63 | 1011.3 |
| 20260903165914 | 29 | 227 | 11.3 | 17.7 | 0.00 | 0.00 | 0.00 | 63 | 1011.3 |
| 20260903165802 | 29 | 259 | 11.3 | 17.7 | 0.00 | 0.00 | 0.00 | 64 | 1011.3 |
| 20260903165728 | 29 | 232 | 9.7 | 17.7 | 0.00 | 0.00 | 0.00 | 64 | 1011.3 |
| 20260903165631 | 29 | 216 | 8.0 | 17.7 | 0.00 | 0.00 | 0.00 | 65 | 1011.4 |
| 20260903165514 | 29 | 269 | 9.7 | 22.5 | 0.00 | 0.00 | 0.00 | 65 | 1011.4 |
| 20260903165358 | 29 | 239 | 11.3 | 22.5 | 0.00 | 0.00 | 0.00 | 64 | 1011.4 |
| 20260903165323 | 29 | 266 | 12.9 | 22.5 | 0.00 | 0.00 | 0.00 | 64 | 1011.4 |
| 20260903165228 | 29 | 254 | 11.3 | 22.5 | 0.00 | 0.00 | 0.00 | 65 | 1011.4 |
| 20260903165133 | 29 | 234 | 8.0 | 22.5 | 0.00 | 0.00 | 0.00 | 64 | 1011.4 |
| 20260903165000 | 28 | 238 | 8.0 | 22.5 | 0.00 | 0.00 | 0.00 | 65 | 1011.4 |
| 20260903164905 | 28 | 245 | 12.9 | 22.5 | 0.00 | 0.00 | 0.00 | 64 | 1011.4 |
| 20260903164830 | 28 | 215 | 12.9 | 22.5 | 0.00 | 0.00 | 0.00 | 63 | 1011.4 |
| 20260903164714 | 29 | 259 | 12.9 | 22.5 | 0.00 | 0.00 | 0.00 | 64 | 1011.5 |
| 20260903164559 | 29 | 235 | 14.5 | 22.5 | 0.00 | 0.00 | 0.00 | 64 | 1011.5 |
| 20260903164503 | 29 | 253 | 11.3 | 19.3 | 0.00 | 0.00 | 0.00 | 64 | 1011.4 |
| 20260903164406 | 29 | 281 | 11.3 | 16.1 | 0.00 | 0.00 | 0.00 | 64 | 1011.4 |
| 20260903164255 | 28 | 221 | 9.7 | 16.1 | 0.00 | 0.00 | 0.00 | 64 | 1011.4 |
| 20260903164200 | 28 | 218 | 9.7 | 16.1 | 0.00 | 0.00 | 0.00 | 65 | 1011.4 |
| 20260903164105 | 28 | 288 | 8.0 | 17.7 | 0.00 | 0.00 | 0.00 | 64 | 1011.4 |
| 20260903164010 | 28 | 274 | 6.4 | 17.7 | 0.00 | 0.00 | 0.00 | 64 | 1011.4 |
| 20260903163915 | 28 | 261 | 6.4 | 17.7 | 0.00 | 0.00 | 0.00 | 64 | 1011.4 |
| 20260903163803 | 28 | 277 | 9.7 | 17.7 | 0.00 | 0.00 | 0.00 | 65 | 1011.4 |
| 20260903163708 | 28 | 319 | 9.7 | 17.7 | 0.00 | 0.00 | 0.00 | 64 | 1011.4 |
| 20260903163613 | 28 | 252 | 11.3 | 17.7 | 0.00 | 0.00 | 0.00 | 64 | 1011.4 |
| 20260903163538 | 28 | 238 | 11.3 | 17.7 | 0.00 | 0.00 | 0.00 | 64 | 1011.4 |
| 20260903163355 | 28 | 254 | 12.9 | 22.5 | 0.00 | 0.00 | 0.00 | 64 | 1011.3 |
| 20260903163321 | 28 | 267 | 12.9 | 22.5 | 0.00 | 0.00 | 0.00 | 64 | 1011.3 |
| 20260903163159 | 28 | 250 | 12.9 | 22.5 | 0.00 | 0.00 | 0.00 | 63 | 1011.4 |
| 20260903163107 | 28 | 249 | 11.3 | 22.5 | 0.00 | 0.00 | 0.00 | 64 | 1011.4 |
| 20260903163011 | 28 | 252 | 11.3 | 22.5 | 0.00 | 0.00 | 0.00 | 64 | 1011.3 |
| 20260903162856 | 28 | 249 | 11.3 | 22.5 | 0.00 | 0.00 | 0.00 | 64 | 1011.4 |
| 20260903162801 | 28 | 236 | 12.9 | 22.5 | 0.00 | 0.00 | 0.00 | 64 | 1011.4 |
| 20260903162706 | 28 | 260 | 14.5 | 22.5 | 0.00 | 0.00 | 0.00 | 63 | 1011.4 |
| 20260903162631 | 28 | 225 | 14.5 | 22.5 | 0.00 | 0.00 | 0.00 | 63 | 1011.4 |
| 20260903162520 | 28 | 246 | 14.5 | 20.9 | 0.00 | 0.00 | 0.00 | 63 | 1011.4 |
| 20260903162357 | 28 | 222 | 12.9 | 20.9 | 0.00 | 0.00 | 0.00 | 64 | 1011.4 |
| 20260903162321 | 28 | 238 | 11.3 | 24.1 | 0.00 | 0.00 | 0.00 | 64 | 1011.4 |
| 20260903162204 | 28 | 227 | 9.7 | 24.1 | 0.00 | 0.00 | 0.00 | 64 | 1011.4 |
| 20260903162108 | 28 | 236 | 11.3 | 24.1 | 0.00 | 0.00 | 0.00 | 64 | 1011.4 |
| 20260903162033 | 28 | 222 | 14.5 | 24.1 | 0.00 | 0.00 | 0.00 | 64 | 1011.4 |
| 20260903161810 | 28 | 254 | 14.5 | 24.1 | 0.00 | 0.00 | 0.00 | 64 | 1011.4 |
| 20260903161720 | 28 | 252 | 14.5 | 24.1 | 0.00 | 0.00 | 0.00 | 64 | 1011.3 |
| 20260903161558 | 28 | 217 | 12.9 | 24.1 | 0.00 | 0.00 | 0.00 | 64 | 1011.3 |
| 20260903161502 | 28 | 234 | 14.5 | 24.1 | 0.00 | 0.00 | 0.00 | 64 | 1011.3 |
| 20260903161407 | 28 | 243 | 16.1 | 24.1 | 0.00 | 0.00 | 0.00 | 63 | 1011.3 |
| 20260903161312 | 28 | 244 | 14.5 | 24.1 | 0.00 | 0.00 | 0.00 | 64 | 1011.4 |
| 20260903161200 | 28 | 255 | 16.1 | 24.1 | 0.00 | 0.00 | 0.00 | 64 | 1011.4 |
| 20260903161105 | 28 | 254 | 16.1 | 22.5 | 0.00 | 0.00 | 0.00 | 65 | 1011.5 |
| 20260903161030 | 28 | 209 | 14.5 | 22.5 | 0.00 | 0.00 | 0.00 | 66 | 1011.5 |
| 20260903160934 | 28 | 259 | 16.1 | 22.5 | 0.00 | 0.00 | 0.00 | 65 | 1011.5 |
| 20260903160758 | 28 | 229 | 14.5 | 22.5 | 0.00 | 0.00 | 0.00 | 65 | 1011.4 |
| 20260903160703 | 28 | 232 | 14.5 | 22.5 | 0.00 | 0.00 | 0.00 | 67 | 1011.5 |
| 20260903160607 | 28 | 250 | 12.9 | 22.5 | 0.00 | 0.00 | 0.00 | 67 | 1011.5 |
| 20260903160531 | 28 | 238 | 11.3 | 22.5 | 0.00 | 0.00 | 0.00 | 68 | 1011.5 |
| 20260903160439 | 28 | 229 | 11.3 | 22.5 | 0.00 | 0.00 | 0.00 | 67 | 1011.6 |
| 20260903160255 | 28 | 262 | 12.9 | 22.5 | 0.00 | 0.00 | 0.00 | 67 | 1011.5 |
| 20260903160220 | 28 | 233 | 12.9 | 22.5 | 0.00 | 0.00 | 0.00 | 68 | 1011.5 |
| 20260903160058 | 28 | 222 | 14.5 | 22.5 | 0.00 | 0.00 | 0.00 | 68 | 1011.5 |
| 20260903160001 | 28 | 261 | 12.9 | 20.9 | 0.00 | 0.00 | 0.00 | 68 | 1011.6 |
| 20260903155906 | 28 | 261 | 11.3 | 20.9 | 0.00 | 0.00 | 0.00 | 68 | 1011.6 |
| 20260903155814 | 27 | 221 | 11.3 | 20.9 | 0.00 | 0.00 | 0.00 | 69 | 1011.6 |
| 20260903155719 | 27 | 265 | 12.9 | 20.9 | 0.00 | 0.00 | 0.00 | 69 | 1011.6 |
| 20260903155556 | 27 | 246 | 11.3 | 20.9 | 0.00 | 0.00 | 0.00 | 70 | 1011.5 |
| 20260903155520 | 27 | 285 | 8.0 | 14.5 | 0.00 | 0.00 | 0.00 | 71 | 1011.6 |
| 20260903155404 | 27 | 241 | 9.7 | 14.5 | 0.00 | 0.00 | 0.00 | 70 | 1011.5 |
| 20260903155329 | 27 | 246 | 11.3 | 14.5 | 0.00 | 0.00 | 0.00 | 69 | 1011.5 |
| 20260903155213 | 27 | 279 | 11.3 | 14.5 | 0.00 | 0.00 | 0.00 | 69 | 1011.4 |
| 20260903155103 | 27 | 263 | 9.7 | 14.5 | 0.00 | 0.00 | 0.00 | 70 | 1011.4 |
| 20260903155027 | 27 | 253 | 8.0 | 14.5 | 0.00 | 0.00 | 0.00 | 69 | 1011.5 |
| 20260903154910 | 27 | 250 | 6.4 | 16.1 | 0.00 | 0.00 | 0.00 | 70 | 1011.5 |
| 20260903154814 | 27 | 264 | 6.4 | 16.1 | 0.00 | 0.00 | 0.00 | 70 | 1011.4 |
| 20260903154740 | 27 | 262 | 8.0 | 16.1 | 0.00 | 0.00 | 0.00 | 70 | 1011.4 |
| 20260903154558 | 27 | 221 | 8.0 | 17.7 | 0.00 | 0.00 | 0.00 | 69 | 1011.4 |
| 20260903154502 | 27 | 250 | 9.7 | 17.7 | 0.00 | 0.00 | 0.00 | 69 | 1011.4 |
| 20260903154411 | 27 | 261 | 11.3 | 17.7 | 0.00 | 0.00 | 0.00 | 69 | 1011.4 |
| 20260903154336 | 27 | 275 | 11.3 | 17.7 | 0.00 | 0.00 | 0.00 | 69 | 1011.4 |
| 20260903154241 | 27 | 274 | 12.9 | 17.7 | 0.00 | 0.00 | 0.00 | 69 | 1011.4 |
| 20260903154057 | 27 | 242 | 12.9 | 17.7 | 0.00 | 0.00 | 0.00 | 68 | 1011.3 |
| 20260903154002 | 27 | 225 | 11.3 | 17.7 | 0.00 | 0.00 | 0.00 | 69 | 1011.2 |
| 20260903153907 | 27 | 205 | 12.9 | 17.7 | 0.00 | 0.00 | 0.00 | 67 | 1011.2 |
| 20260903153755 | 27 | 207 | 14.5 | 17.7 | 0.00 | 0.00 | 0.00 | 67 | 1011.4 |
| 20260903153700 | 28 | 234 | 14.5 | 19.3 | 0.00 | 0.00 | 0.00 | 68 | 1011.3 |
| 20260903153604 | 28 | 235 | 12.9 | 19.3 | 0.00 | 0.00 | 0.00 | 68 | 1011.3 |
| 20260903153509 | 28 | 254 | 11.3 | 19.3 | 0.00 | 0.00 | 0.00 | 69 | 1011.3 |
| 20260903153414 | 28 | 223 | 8.0 | 19.3 | 0.00 | 0.00 | 0.00 | 70 | 1011.4 |
| 20260903153258 | 27 | 209 | 8.0 | 19.3 | 0.00 | 0.00 | 0.00 | 69 | 1011.4 |
| 20260903153207 | 27 | 230 | 9.7 | 19.3 | 0.00 | 0.00 | 0.00 | 69 | 1011.4 |
| 20260903153111 | 27 | 245 | 9.7 | 19.3 | 0.00 | 0.00 | 0.00 | 70 | 1011.4 |
| 20260903152956 | 27 | 248 | 12.9 | 19.3 | 0.00 | 0.00 | 0.00 | 70 | 1011.3 |
| 20260903152901 | 27 | 231 | 11.3 | 19.3 | 0.00 | 0.00 | 0.00 | 69 | 1011.4 |
| 20260903152804 | 27 | 292 | 11.3 | 19.3 | 0.00 | 0.00 | 0.00 | 70 | 1011.4 |
| 20260903152709 | 27 | 306 | 9.7 | 19.3 | 0.00 | 0.00 | 0.00 | 71 | 1011.4 |
| 20260903152557 | 27 | 230 | 12.9 | 19.3 | 0.00 | 0.00 | 0.00 | 70 | 1011.4 |
| 20260903152522 | 27 | 236 | 12.9 | 19.3 | 0.00 | 0.00 | 0.00 | 70 | 1011.4 |
| 20260903152359 | 27 | 232 | 9.7 | 17.7 | 0.00 | 0.00 | 0.00 | 71 | 1011.5 |
| 20260903152306 | 27 | 231 | 8.0 | 16.1 | 0.00 | 0.00 | 0.00 | 72 | 1011.4 |
| 20260903152207 | 27 | 265 | 9.7 | 16.1 | 0.00 | 0.00 | 0.00 | 71 | 1011.4 |
| 20260903152112 | 27 | 224 | 11.3 | 16.1 | 0.00 | 0.00 | 0.00 | 71 | 1011.3 |
| 20260903152001 | 27 | 259 | 11.3 | 16.1 | 0.00 | 0.00 | 0.00 | 71 | 1011.3 |
| 20260903151906 | 27 | 236 | 11.3 | 16.1 | 0.00 | 0.00 | 0.00 | 71 | 1011.3 |
| 20260903151811 | 27 | 236 | 11.3 | 16.1 | 0.00 | 0.00 | 0.00 | 70 | 1011.4 |
| 20260903151656 | 27 | 218 | 9.7 | 16.1 | 0.00 | 0.00 | 0.00 | 71 | 1011.3 |
| 20260903151601 | 27 | 242 | 9.7 | 16.1 | 0.00 | 0.00 | 0.00 | 71 | 1011.3 |
| 20260903151505 | 27 | 284 | 11.3 | 16.1 | 0.00 | 0.00 | 0.00 | 72 | 1011.3 |
| 20260903151413 | 27 | 298 | 11.3 | 16.1 | 0.00 | 0.00 | 0.00 | 72 | 1011.3 |
| 20260903151318 | 27 | 274 | 11.3 | 16.1 | 0.00 | 0.00 | 0.00 | 72 | 1011.3 |
| 20260903151155 | 27 | 221 | 11.3 | 17.7 | 0.00 | 0.00 | 0.00 | 72 | 1011.3 |
| 20260903151059 | 27 | 221 | 11.3 | 17.7 | 0.00 | 0.00 | 0.00 | 73 | 1011.3 |
| 20260903151004 | 27 | 208 | 11.3 | 17.7 | 0.00 | 0.00 | 0.00 | 73 | 1011.3 |
| 20260903150908 | 26 | 235 | 12.9 | 17.7 | 0.00 | 0.00 | 0.00 | 72 | 1011.3 |
| 20260903150756 | 26 | 244 | 12.9 | 17.7 | 0.00 | 0.00 | 0.00 | 72 | 1011.3 |
| 20260903150701 | 26 | 230 | 9.7 | 17.7 | 0.00 | 0.00 | 0.00 | 73 | 1011.3 |
| 20260903150606 | 26 | 237 | 9.7 | 14.5 | 0.00 | 0.00 | 0.00 | 73 | 1011.3 |
| 20260903150512 | 26 | 246 | 9.7 | 14.5 | 0.00 | 0.00 | 0.00 | 73 | 1011.3 |
| 20260903150356 | 26 | 256 | 11.3 | 14.5 | 0.00 | 0.00 | 0.00 | 73 | 1011.3 |
| 20260903150321 | 26 | 234 | 9.7 | 14.5 | 0.00 | 0.00 | 0.00 | 75 | 1011.3 |
| 20260903150228 | 26 | 260 | 6.4 | 17.7 | 0.00 | 0.00 | 0.00 | 74 | 1011.2 |
| 20260903150111 | 26 | 255 | 6.4 | 17.7 | 0.00 | 0.00 | 0.00 | 75 | 1011.2 |
| 20260903150016 | 26 | 245 | 8.0 | 17.7 | 0.00 | 0.00 | 0.00 | 75 | 1011.3 |
| 20260903145921 | 26 | 240 | 9.7 | 17.7 | 0.00 | 0.00 | 0.00 | 75 | 1011.4 |
| 20260903145804 | 26 | 246 | 8.0 | 17.7 | 0.00 | 0.00 | 0.00 | 75 | 1011.4 |
| 20260903145709 | 26 | 232 | 8.0 | 17.7 | 0.00 | 0.00 | 0.00 | 75 | 1011.4 |
| 20260903145614 | 26 | 217 | 11.3 | 17.7 | 0.00 | 0.00 | 0.00 | 75 | 1011.4 |
| 20260903145523 | 26 | 217 | 12.9 | 17.7 | 0.00 | 0.00 | 0.00 | 75 | 1011.3 |
| 20260903145407 | 26 | 246 | 9.7 | 17.7 | 0.00 | 0.00 | 0.00 | 75 | 1011.3 |
| 20260903145312 | 26 | 242 | 6.4 | 16.1 | 0.00 | 0.00 | 0.00 | 76 | 1011.3 |
| 20260903145156 | 26 | 207 | 8.0 | 16.1 | 0.00 | 0.00 | 0.00 | 75 | 1011.3 |
| 20260903145101 | 26 | 242 | 9.7 | 16.1 | 0.00 | 0.00 | 0.00 | 75 | 1011.4 |
| 20260903145006 | 26 | 232 | 12.9 | 16.1 | 0.00 | 0.00 | 0.00 | 75 | 1011.4 |
| 20260903144855 | 26 | 246 | 12.9 | 16.1 | 0.00 | 0.00 | 0.00 | 75 | 1011.3 |
| 20260903144800 | 26 | 224 | 12.9 | 16.1 | 0.00 | 0.00 | 0.00 | 75 | 1011.3 |
| 20260903144705 | 26 | 219 | 9.7 | 16.1 | 0.00 | 0.00 | 0.00 | 75 | 1011.3 |
| 20260903144609 | 26 | 239 | 8.0 | 16.1 | 0.00 | 0.00 | 0.00 | 76 | 1011.3 |
| 20260903144513 | 26 | 239 | 8.0 | 16.1 | 0.00 | 0.00 | 0.00 | 76 | 1011.4 |
| 20260903144359 | 26 | 242 | 11.3 | 16.1 | 0.00 | 0.00 | 0.00 | 76 | 1011.4 |
| 20260903144307 | 26 | 249 | 11.3 | 16.1 | 0.00 | 0.00 | 0.00 | 76 | 1011.4 |
| 20260903144210 | 26 | 244 | 9.7 | 16.1 | 0.00 | 0.00 | 0.00 | 76 | 1011.3 |
| 20260903144115 | 26 | 225 | 9.7 | 16.1 | 0.00 | 0.00 | 0.00 | 77 | 1011.3 |
| 20260903144041 | 26 | 232 | 9.7 | 16.1 | 0.00 | 0.00 | 0.00 | 78 | 1011.4 |
| 20260903143857 | 25 | 205 | 8.0 | 16.1 | 0.00 | 0.00 | 0.00 | 78 | 1011.4 |
| 20260903143802 | 25 | 182 | 8.0 | 16.1 | 0.00 | 0.00 | 0.00 | 78 | 1011.4 |
| 20260903143707 | 25 | 217 | 9.7 | 16.1 | 0.00 | 0.00 | 0.00 | 78 | 1011.4 |
| 20260903143556 | 25 | 223 | 8.0 | 16.1 | 0.00 | 0.00 | 0.00 | 79 | 1011.4 |
| 20260903143520 | 25 | 227 | 6.4 | 16.1 | 0.00 | 0.00 | 0.00 | 80 | 1011.4 |
| 20260903143357 | 25 | 229 | 6.4 | 16.1 | 0.00 | 0.00 | 0.00 | 80 | 1011.4 |
| 20260903143302 | 25 | 259 | 8.0 | 16.1 | 0.00 | 0.00 | 0.00 | 81 | 1011.5 |
| 20260903143208 | 25 | 233 | 6.4 | 11.3 | 0.00 | 0.00 | 0.00 | 81 | 1011.5 |
| 20260903143056 | 25 | 246 | 6.4 | 11.3 | 0.00 | 0.00 | 0.00 | 82 | 1011.5 |
| 20260903143020 | 25 | 244 | 6.4 | 11.3 | 0.00 | 0.00 | 0.00 | 82 | 1011.5 |
| 20260903142857 | 25 | 230 | 9.7 | 11.3 | 0.00 | 0.00 | 0.00 | 82 | 1011.4 |
| 20260903142803 | 25 | 261 | 8.0 | 12.9 | 0.00 | 0.00 | 0.00 | 82 | 1011.5 |
| 20260903142707 | 25 | 236 | 6.4 | 12.9 | 0.00 | 0.00 | 0.00 | 83 | 1011.5 |
| 20260903142632 | 25 | 225 | 6.4 | 11.3 | 0.00 | 0.00 | 0.00 | 83 | 1011.4 |
| 20260903142456 | 25 | 224 | 6.4 | 11.3 | 0.00 | 0.00 | 0.00 | 83 | 1011.5 |
| 20260903142406 | 25 | 217 | 6.4 | 11.3 | 0.00 | 0.00 | 0.00 | 83 | 1011.6 |
| 20260903142330 | 25 | 217 | 8.0 | 11.3 | 0.00 | 0.00 | 0.00 | 83 | 1011.6 |
| 20260903142214 | 25 | 225 | 6.4 | 14.5 | 0.00 | 0.00 | 0.00 | 83 | 1011.5 |
| 20260903142141 | 25 | 232 | 4.8 | 14.5 | 0.00 | 0.00 | 0.00 | 84 | 1011.6 |
| 20260903141957 | 25 | 244 | 4.8 | 14.5 | 0.00 | 0.00 | 0.00 | 83 | 1011.6 |
| 20260903141922 | 25 | 244 | 6.4 | 14.5 | 0.00 | 0.00 | 0.00 | 84 | 1011.6 |
| 20260903141759 | 25 | 222 | 6.4 | 14.5 | 0.00 | 0.00 | 0.00 | 83 | 1011.5 |
| 20260903141708 | 25 | 211 | 6.4 | 14.5 | 0.00 | 0.00 | 0.00 | 83 | 1011.5 |
| 20260903141613 | 25 | 231 | 6.4 | 14.5 | 0.00 | 0.00 | 0.00 | 83 | 1011.6 |
| 20260903141518 | 25 | 232 | 8.0 | 14.5 | 0.00 | 0.00 | 0.00 | 83 | 1011.5 |
| 20260903141402 | 25 | 246 | 8.0 | 12.9 | 0.00 | 0.00 | 0.00 | 83 | 1011.5 |
| 20260903141327 | 25 | 219 | 8.0 | 12.9 | 0.00 | 0.00 | 0.00 | 83 | 1011.4 |
| 20260903141210 | 25 | 237 | 9.7 | 12.9 | 0.00 | 0.00 | 0.00 | 83 | 1011.4 |
| 20260903141134 | 25 | 209 | 9.7 | 12.9 | 0.00 | 0.00 | 0.00 | 83 | 1011.4 |
| 20260903141002 | 25 | 204 | 9.7 | 12.9 | 0.00 | 0.00 | 0.00 | 84 | 1011.5 |
| 20260903140927 | 25 | 221 | 9.7 | 12.9 | 0.00 | 0.00 | 0.00 | 84 | 1011.5 |
| 20260903140811 | 24 | 214 | 8.0 | 12.9 | 0.00 | 0.00 | 0.00 | 84 | 1011.5 |
| 20260903140716 | 24 | 215 | 8.0 | 12.9 | 0.00 | 0.00 | 0.00 | 85 | 1011.4 |
| 20260903140620 | 24 | 211 | 8.0 | 12.9 | 0.00 | 0.00 | 0.00 | 85 | 1011.4 |
| 20260903140456 | 24 | 215 | 6.4 | 11.3 | 0.00 | 0.00 | 0.00 | 85 | 1011.4 |
| 20260903140421 | 24 | 198 | 6.4 | 11.3 | 0.00 | 0.00 | 0.00 | 86 | 1011.4 |
| 20260903140324 | 24 | 192 | 8.0 | 11.3 | 0.00 | 0.00 | 0.00 | 85 | 1011.5 |
| 20260903140212 | 24 | 200 | 8.0 | 11.3 | 0.00 | 0.00 | 0.00 | 86 | 1011.5 |
| 20260903140138 | 24 | 194 | 8.0 | 11.3 | 0.00 | 0.00 | 0.00 | 86 | 1011.5 |
| 20260903135955 | 24 | 215 | 8.0 | 11.3 | 0.00 | 0.00 | 0.00 | 86 | 1011.5 |
| 20260903135920 | 23 | 210 | 8.0 | 11.3 | 0.00 | 0.00 | 0.00 | 86 | 1011.5 |
| 20260903135757 | 23 | 207 | 8.0 | 11.3 | 0.00 | 0.00 | 0.00 | 86 | 1011.6 |
| 20260903135702 | 23 | 194 | 8.0 | 11.3 | 0.00 | 0.00 | 0.00 | 86 | 1011.7 |
| 20260903135611 | 23 | 214 | 6.4 | 11.3 | 0.00 | 0.00 | 0.00 | 86 | 1011.7 |
| 20260903135536 | 23 | 229 | 8.0 | 11.3 | 0.00 | 0.00 | 0.00 | 87 | 1011.6 |
| 20260903135440 | 23 | 234 | 8.0 | 11.3 | 0.00 | 0.00 | 0.00 | 87 | 1011.7 |
| 20260903135257 | 23 | 205 | 8.0 | 11.3 | 0.00 | 0.00 | 0.00 | 87 | 1011.7 |
| 20260903135201 | 23 | 197 | 6.4 | 9.7 | 0.00 | 0.00 | 0.00 | 87 | 1011.6 |
| 20260903135106 | 23 | 184 | 8.0 | 11.3 | 0.00 | 0.00 | 0.00 | 88 | 1011.6 |
| 20260903135011 | 23 | 184 | 8.0 | 11.3 | 0.00 | 0.00 | 0.00 | 87 | 1011.7 |
| 20260903134920 | 23 | 176 | 8.0 | 11.3 | 0.00 | 0.00 | 0.00 | 88 | 1011.7 |
| 20260903134803 | 23 | 184 | 6.4 | 11.3 | 0.00 | 0.00 | 0.00 | 88 | 1011.7 |
| 20260903134709 | 23 | 213 | 6.4 | 11.3 | 0.00 | 0.00 | 0.00 | 88 | 1011.7 |
| 20260903134613 | 23 | 188 | 6.4 | 11.3 | 0.00 | 0.00 | 0.00 | 89 | 1011.8 |
| 20260903134518 | 23 | 190 | 8.0 | 11.3 | 0.00 | 0.00 | 0.00 | 89 | 1011.7 |
| 20260903134421 | 23 | 184 | 8.0 | 11.3 | 0.00 | 0.00 | 0.00 | 89 | 1011.7 |
| 20260903134259 | 23 | 190 | 6.4 | 12.9 | 0.00 | 0.00 | 0.00 | 89 | 1011.7 |
| 20260903134209 | 23 | 188 | 6.4 | 12.9 | 0.00 | 0.00 | 0.00 | 89 | 1011.7 |
| 20260903134113 | 23 | 178 | 6.4 | 12.9 | 0.00 | 0.00 | 0.00 | 89 | 1011.7 |
| 20260903133958 | 22 | 194 | 6.4 | 12.9 | 0.00 | 0.00 | 0.00 | 90 | 1011.7 |
| 20260903133923 | 22 | 198 | 6.4 | 12.9 | 0.00 | 0.00 | 0.00 | 90 | 1011.6 |
| 20260903133826 | 22 | 197 | 6.4 | 12.9 | 0.00 | 0.00 | 0.00 | 90 | 1011.7 |
| 20260903133710 | 22 | 197 | 8.0 | 12.9 | 0.00 | 0.00 | 0.00 | 90 | 1011.7 |
| 20260903133559 | 22 | 213 | 8.0 | 12.9 | 0.00 | 0.00 | 0.00 | 90 | 1011.6 |
| 20260903133505 | 22 | 175 | 6.4 | 12.9 | 0.00 | 0.00 | 0.00 | 91 | 1011.7 |
| 20260903133409 | 22 | 201 | 4.8 | 12.9 | 0.00 | 0.00 | 0.00 | 90 | 1011.7 |
| 20260903133312 | 22 | 201 | 6.4 | 12.9 | 0.00 | 0.00 | 0.00 | 90 | 1011.7 |
| 20260903133217 | 22 | 196 | 8.0 | 12.9 | 0.00 | 0.00 | 0.00 | 90 | 1011.7 |
| 20260903133121 | 22 | 199 | 8.0 | 12.9 | 0.00 | 0.00 | 0.00 | 90 | 1011.7 |
| 20260903133004 | 22 | 192 | 8.0 | 12.9 | 0.00 | 0.00 | 0.00 | 90 | 1011.7 |
| 20260903132908 | 22 | 192 | 8.0 | 12.9 | 0.00 | 0.00 | 0.00 | 90 | 1011.7 |
| 20260903132817 | 22 | 186 | 8.0 | 11.3 | 0.00 | 0.00 | 0.00 | 90 | 1011.7 |
| 20260903132655 | 22 | 184 | 8.0 | 11.3 | 0.00 | 0.00 | 0.00 | 90 | 1011.8 |
| 20260903132600 | 22 | 190 | 8.0 | 11.3 | 0.00 | 0.00 | 0.00 | 90 | 1011.8 |
| 20260903132505 | 22 | 183 | 8.0 | 9.7 | 0.00 | 0.00 | 0.00 | 90 | 1011.8 |
| 20260903132410 | 22 | 173 | 4.8 | 8.0 | 0.00 | 0.00 | 0.00 | 90 | 1011.8 |
| 20260903132335 | 22 | 172 | 3.2 | 9.7 | 0.00 | 0.00 | 0.00 | 90 | 1011.9 |
| 20260903132204 | 22 | 172 | 3.2 | 9.7 | 0.00 | 0.00 | 0.00 | 90 | 1011.9 |
| 20260903132108 | 22 | 172 | 4.8 | 9.7 | 0.00 | 0.00 | 0.00 | 90 | 1011.9 |
| 20260903132013 | 22 | 172 | 3.2 | 9.7 | 0.00 | 0.00 | 0.00 | 90 | 1011.9 |
| 20260903131918 | 22 | 165 | 6.4 | 9.7 | 0.00 | 0.00 | 0.00 | 90 | 1011.9 |
| 20260903131802 | 22 | 165 | 6.4 | 9.7 | 0.00 | 0.00 | 0.00 | 90 | 1011.9 |
| 20260903131726 | 22 | 161 | 4.8 | 9.7 | 0.00 | 0.00 | 0.00 | 90 | 1011.9 |
| 20260903131610 | 22 | 161 | 4.8 | 9.7 | 0.00 | 0.00 | 0.00 | 90 | 1011.9 |
| 20260903131517 | 22 | 162 | 4.8 | 9.7 | 0.00 | 0.00 | 0.00 | 90 | 1011.9 |
| 20260903131420 | 22 | 162 | 6.4 | 9.7 | 0.00 | 0.00 | 0.00 | 90 | 1011.9 |
| 20260903131257 | 22 | 160 | 6.4 | 9.7 | 0.00 | 0.00 | 0.00 | 90 | 1011.8 |
| 20260903131202 | 22 | 178 | 4.8 | 8.0 | 0.00 | 0.00 | 0.00 | 90 | 1011.8 |
| 20260903131107 | 22 | 182 | 4.8 | 8.0 | 0.00 | 0.00 | 0.00 | 90 | 1011.8 |
| 20260903131012 | 22 | 181 | 4.8 | 8.0 | 0.00 | 0.00 | 0.00 | 90 | 1011.9 |
| 20260903130902 | 22 | 181 | 4.8 | 8.0 | 0.00 | 0.00 | 0.00 | 90 | 1011.8 |
| 20260903130806 | 22 | 181 | 4.8 | 8.0 | 0.00 | 0.00 | 0.00 | 90 | 1011.8 |
| 20260903130711 | 22 | 181 | 4.8 | 8.0 | 0.00 | 0.00 | 0.00 | 90 | 1011.7 |
| 20260903130556 | 22 | 181 | 6.4 | 8.0 | 0.00 | 0.00 | 0.00 | 90 | 1011.7 |
| 20260903130500 | 22 | 188 | 6.4 | 8.0 | 0.00 | 0.00 | 0.00 | 90 | 1011.7 |
| 20260903130406 | 22 | 183 | 4.8 | 9.7 | 0.00 | 0.00 | 0.00 | 90 | 1011.7 |
| 20260903130313 | 22 | 159 | 3.2 | 9.7 | 0.00 | 0.00 | 0.00 | 90 | 1011.7 |
| 20260903130159 | 22 | 158 | 4.8 | 9.7 | 0.00 | 0.00 | 0.00 | 90 | 1011.7 |
| 20260903130007 | 22 | 173 | 4.8 | 9.7 | 0.00 | 0.00 | 0.00 | 90 | 1011.6 |
| 20260903125912 | 22 | 174 | 4.8 | 9.7 | 0.00 | 0.00 | 0.00 | 90 | 1011.7 |
| 20260903125800 | 21 | 173 | 3.2 | 9.7 | 0.00 | 0.00 | 0.00 | 90 | 1011.7 |
| 20260903125705 | 21 | 182 | 3.2 | 9.7 | 0.00 | 0.00 | 0.00 | 90 | 1011.7 |
| 20260903125611 | 21 | 182 | 4.8 | 9.7 | 0.00 | 0.00 | 0.00 | 90 | 1011.7 |
| 20260903125515 | 21 | 182 | 6.4 | 9.7 | 0.00 | 0.00 | 0.00 | 90 | 1011.7 |
| 20260903125417 | 21 | 183 | 4.8 | 9.7 | 0.00 | 0.00 | 0.00 | 90 | 1011.8 |
| 20260903125305 | 21 | 162 | 4.8 | 9.7 | 0.00 | 0.00 | 0.00 | 90 | 1011.8 |
| 20260903125226 | 21 | 161 | 6.4 | 9.7 | 0.00 | 0.00 | 0.00 | 90 | 1011.8 |
| 20260903125130 | 21 | 161 | 4.8 | 9.7 | 0.00 | 0.00 | 0.00 | 90 | 1011.8 |
| 20260903124958 | 21 | 163 | 3.2 | 9.7 | 0.00 | 0.00 | 0.00 | 90 | 1011.8 |
| 20260903124903 | 21 | 169 | 3.2 | 9.7 | 0.00 | 0.00 | 0.00 | 90 | 1011.8 |
| 20260903124803 | 21 | 169 | 4.8 | 9.7 | 0.00 | 0.00 | 0.00 | 90 | 1011.8 |
| 20260903124728 | 21 | 165 | 4.8 | 11.3 | 0.00 | 0.00 | 0.00 | 91 | 1011.8 |
| 20260903124611 | 21 | 165 | 6.4 | 12.9 | 0.00 | 0.00 | 0.00 | 91 | 1011.7 |
| 20260903124516 | 21 | 165 | 4.8 | 12.9 | 0.00 | 0.00 | 0.00 | 91 | 1011.8 |
| 20260903124405 | 21 | 178 | 4.8 | 12.9 | 0.00 | 0.00 | 0.00 | 91 | 1011.7 |
| 20260903124309 | 21 | 187 | 6.4 | 12.9 | 0.00 | 0.00 | 0.00 | 91 | 1011.7 |
| 20260903124214 | 21 | 185 | 6.4 | 12.9 | 0.00 | 0.00 | 0.00 | 90 | 1011.7 |
| 20260903124119 | 21 | 190 | 6.4 | 12.9 | 0.00 | 0.00 | 0.00 | 90 | 1011.7 |
| 20260903123956 | 21 | 175 | 8.0 | 12.9 | 0.00 | 0.00 | 0.00 | 90 | 1011.7 |
| 20260903123901 | 21 | 167 | 8.0 | 12.9 | 0.00 | 0.00 | 0.00 | 90 | 1011.7 |
| 20260903123826 | 21 | 180 | 8.0 | 12.9 | 0.00 | 0.00 | 0.00 | 90 | 1011.6 |
| 20260903123714 | 21 | 186 | 6.4 | 9.7 | 0.00 | 0.00 | 0.00 | 90 | 1011.6 |
| 20260903123618 | 21 | 185 | 6.4 | 9.7 | 0.00 | 0.00 | 0.00 | 90 | 1011.6 |
| 20260903123455 | 21 | 168 | 4.8 | 9.7 | 0.00 | 0.00 | 0.00 | 90 | 1011.5 |
| 20260903123400 | 21 | 162 | 4.8 | 9.7 | 0.00 | 0.00 | 0.00 | 90 | 1011.4 |
| 20260903123305 | 21 | 161 | 4.8 | 9.7 | 0.00 | 0.00 | 0.00 | 90 | 1011.4 |
| 20260903123210 | 21 | 161 | 4.8 | 9.7 | 0.00 | 0.00 | 0.00 | 91 | 1011.4 |
| 20260903123119 | 21 | 160 | 4.8 | 9.7 | 0.00 | 0.00 | 0.00 | 91 | 1011.4 |
| 20260903123003 | 21 | 160 | 4.8 | 9.7 | 0.00 | 0.00 | 0.00 | 91 | 1011.4 |
| 20260903122909 | 21 | 161 | 4.8 | 9.7 | 0.00 | 0.00 | 0.00 | 91 | 1011.4 |
| 20260903122813 | 21 | 163 | 4.8 | 9.7 | 0.00 | 0.00 | 0.00 | 91 | 1011.4 |
| 20260903122658 | 21 | 184 | 4.8 | 8.0 | 0.00 | 0.00 | 0.00 | 91 | 1011.5 |
| 20260903122603 | 21 | 184 | 4.8 | 8.0 | 0.00 | 0.00 | 0.00 | 91 | 1011.6 |
| 20260903122531 | 21 | 184 | 4.8 | 8.0 | 0.00 | 0.00 | 0.00 | 91 | 1011.6 |
| 20260903122414 | 21 | 172 | 3.2 | 8.0 | 0.00 | 0.00 | 0.00 | 91 | 1011.6 |
| 20260903122319 | 21 | 172 | 4.8 | 8.0 | 0.00 | 0.00 | 0.00 | 91 | 1011.7 |
| 20260903122156 | 21 | 174 | 4.8 | 8.0 | 0.00 | 0.00 | 0.00 | 91 | 1011.7 |
| 20260903122101 | 21 | 175 | 6.4 | 8.0 | 0.00 | 0.00 | 0.00 | 91 | 1011.7 |
| 20260903122006 | 21 | 175 | 4.8 | 8.0 | 0.00 | 0.00 | 0.00 | 91 | 1011.7 |
| 20260903121915 | 21 | 175 | 3.2 | 9.7 | 0.00 | 0.00 | 0.00 | 91 | 1011.7 |
| 20260903121839 | 21 | 169 | 1.6 | 8.0 | 0.00 | 0.00 | 0.00 | 91 | 1011.7 |
| 20260903121742 | 21 | 169 | 1.6 | 8.0 | 0.00 | 0.00 | 0.00 | 91 | 1011.7 |
| 20260903121559 | 21 | 169 | 3.2 | 8.0 | 0.00 | 0.00 | 0.00 | 91 | 1011.7 |
| 20260903121504 | 21 | 169 | 6.4 | 8.0 | 0.00 | 0.00 | 0.00 | 91 | 1011.6 |
| 20260903121409 | 21 | 169 | 6.4 | 8.0 | 0.00 | 0.00 | 0.00 | 91 | 1011.6 |
| 20260903121334 | 21 | 166 | 6.4 | 9.7 | 0.00 | 0.00 | 0.00 | 91 | 1011.7 |
| 20260903121202 | 21 | 168 | 4.8 | 8.0 | 0.00 | 0.00 | 0.00 | 91 | 1011.7 |
| 20260903121107 | 21 | 168 | 6.4 | 8.0 | 0.00 | 0.00 | 0.00 | 91 | 1011.7 |
| 20260903121012 | 21 | 165 | 4.8 | 8.0 | 0.00 | 0.00 | 0.00 | 91 | 1011.8 |
| 20260903120918 | 21 | 165 | 3.2 | 8.0 | 0.00 | 0.00 | 0.00 | 91 | 1011.8 |
| 20260903120820 | 21 | 165 | 3.2 | 9.7 | 0.00 | 0.00 | 0.00 | 91 | 1011.8 |
| 20260903120657 | 21 | 165 | 3.2 | 9.7 | 0.00 | 0.00 | 0.00 | 90 | 1011.7 |
| 20260903120602 | 21 | 165 | 4.8 | 9.7 | 0.00 | 0.00 | 0.00 | 90 | 1011.5 |
| 20260903120511 | 21 | 165 | 6.4 | 9.7 | 0.00 | 0.00 | 0.00 | 91 | 1011.5 |
| 20260903120435 | 21 | 165 | 6.4 | 9.7 | 0.00 | 0.00 | 0.00 | 91 | 1011.6 |
| 20260903120319 | 21 | 164 | 4.8 | 9.7 | 0.00 | 0.00 | 0.00 | 91 | 1011.7 |
| 20260903120156 | 21 | 163 | 3.2 | 9.7 | 0.00 | 0.00 | 0.00 | 90 | 1011.6 |
| 20260903120121 | 21 | 163 | 3.2 | 9.7 | 0.00 | 0.00 | 0.00 | 90 | 1011.6 |
| 20260903115959 | 21 | 163 | 3.2 | 9.7 | 0.00 | 0.00 | 0.00 | 91 | 1011.5 |
| 20260903115909 | 21 | 162 | 3.2 | 9.7 | 0.00 | 0.00 | 0.00 | 91 | 1011.5 |
| 20260903115813 | 21 | 179 | 3.2 | 8.0 | 0.00 | 0.00 | 0.00 | 91 | 1011.6 |
| 20260903115658 | 21 | 179 | 4.8 | 8.0 | 0.00 | 0.00 | 0.00 | 90 | 1011.7 |
| 20260903115602 | 21 | 178 | 4.8 | 8.0 | 0.00 | 0.00 | 0.00 | 90 | 1011.5 |
| 20260903115507 | 21 | 177 | 4.8 | 6.4 | 0.00 | 0.00 | 0.00 | 90 | 1011.5 |
| 20260903115412 | 21 | 173 | 4.8 | 6.4 | 0.00 | 0.00 | 0.00 | 90 | 1011.5 |
| 20260903115305 | 21 | 173 | 4.8 | 6.4 | 0.00 | 0.00 | 0.00 | 90 | 1011.5 |
| 20260903115207 | 21 | 173 | 4.8 | 8.0 | 0.00 | 0.00 | 0.00 | 90 | 1011.5 |
| 20260903115111 | 21 | 173 | 4.8 | 6.4 | 0.00 | 0.00 | 0.00 | 90 | 1011.5 |
| 20260903114956 | 21 | 173 | 3.2 | 8.0 | 0.00 | 0.00 | 0.00 | 90 | 1011.4 |
| 20260903114901 | 21 | 173 | 3.2 | 6.4 | 0.00 | 0.00 | 0.00 | 90 | 1011.4 |
| 20260903114806 | 21 | 173 | 3.2 | 6.4 | 0.00 | 0.00 | 0.00 | 90 | 1011.5 |
| 20260903114734 | 21 | 173 | 3.2 | 6.4 | 0.00 | 0.00 | 0.00 | 90 | 1011.5 |
| 20260903114618 | 21 | 173 | 3.2 | 6.4 | 0.00 | 0.00 | 0.00 | 90 | 1011.6 |
| 20260903114543 | 21 | 173 | 3.2 | 6.4 | 0.00 | 0.00 | 0.00 | 90 | 1011.6 |
| 20260903114359 | 21 | 173 | 3.2 | 6.4 | 0.00 | 0.00 | 0.00 | 90 | 1011.5 |
| 20260903114304 | 21 | 173 | 3.2 | 6.4 | 0.00 | 0.00 | 0.00 | 90 | 1011.4 |
| 20260903114209 | 21 | 173 | 4.8 | 6.4 | 0.00 | 0.00 | 0.00 | 90 | 1011.4 |
| 20260903114058 | 21 | 165 | 4.8 | 11.3 | 0.00 | 0.00 | 0.00 | 90 | 1011.4 |
| 20260903114002 | 21 | 164 | 3.2 | 11.3 | 0.00 | 0.00 | 0.00 | 90 | 1011.4 |
| 20260903113907 | 21 | 163 | 3.2 | 11.3 | 0.00 | 0.00 | 0.00 | 90 | 1011.4 |
| 20260903113833 | 21 | 163 | 3.2 | 11.3 | 0.00 | 0.00 | 0.00 | 90 | 1011.4 |
| 20260903113656 | 21 | 163 | 4.8 | 11.3 | 0.00 | 0.00 | 0.00 | 90 | 1011.4 |
| 20260903113621 | 21 | 163 | 4.8 | 11.3 | 0.00 | 0.00 | 0.00 | 90 | 1011.4 |
| 20260903113459 | 21 | 162 | 6.4 | 11.3 | 0.00 | 0.00 | 0.00 | 90 | 1011.3 |
| 20260903113407 | 21 | 161 | 8.0 | 11.3 | 0.00 | 0.00 | 0.00 | 90 | 1011.3 |
| 20260903113312 | 21 | 155 | 8.0 | 11.3 | 0.00 | 0.00 | 0.00 | 90 | 1011.4 |
| 20260903113217 | 21 | 165 | 6.4 | 9.7 | 0.00 | 0.00 | 0.00 | 90 | 1011.4 |
| 20260903113121 | 21 | 167 | 4.8 | 9.7 | 0.00 | 0.00 | 0.00 | 90 | 1011.4 |
| 20260903112959 | 21 | 167 | 4.8 | 9.7 | 0.00 | 0.00 | 0.00 | 90 | 1011.6 |
| 20260903112904 | 21 | 167 | 4.8 | 9.7 | 0.00 | 0.00 | 0.00 | 90 | 1011.4 |
| 20260903112812 | 21 | 167 | 3.2 | 9.7 | 0.00 | 0.00 | 0.00 | 90 | 1011.4 |
| 20260903112717 | 21 | 174 | 3.2 | 9.7 | 0.00 | 0.00 | 0.00 | 90 | 1011.5 |
| 20260903112642 | 21 | 174 | 4.8 | 9.7 | 0.00 | 0.00 | 0.00 | 90 | 1011.4 |
| 20260903112459 | 21 | 174 | 4.8 | 9.7 | 0.00 | 0.00 | 0.00 | 90 | 1011.4 |
| 20260903112404 | 21 | 167 | 4.8 | 9.7 | 0.00 | 0.00 | 0.00 | 90 | 1011.4 |
| 20260903112310 | 21 | 178 | 4.8 | 9.7 | 0.00 | 0.00 | 0.00 | 90 | 1011.4 |
| 20260903112158 | 21 | 178 | 4.8 | 9.7 | 0.00 | 0.00 | 0.00 | 90 | 1011.3 |
| 20260903112100 | 21 | 181 | 6.4 | 9.7 | 0.00 | 0.00 | 0.00 | 90 | 1011.3 |
| 20260903112005 | 21 | 188 | 6.4 | 9.7 | 0.00 | 0.00 | 0.00 | 90 | 1011.4 |
| 20260903111910 | 21 | 192 | 6.4 | 9.7 | 0.00 | 0.00 | 0.00 | 90 | 1011.4 |
| 20260903111814 | 21 | 176 | 6.4 | 12.9 | 0.00 | 0.00 | 0.00 | 90 | 1011.3 |
| 20260903111659 | 21 | 168 | 6.4 | 12.9 | 0.00 | 0.00 | 0.00 | 90 | 1011.3 |
| 20260903111608 | 21 | 169 | 6.4 | 12.9 | 0.00 | 0.00 | 0.00 | 90 | 1011.3 |
| 20260903111512 | 21 | 173 | 4.8 | 12.9 | 0.00 | 0.00 | 0.00 | 90 | 1011.4 |
| 20260903111436 | 21 | 173 | 6.4 | 12.9 | 0.00 | 0.00 | 0.00 | 90 | 1011.3 |
| 20260903111320 | 21 | 180 | 8.0 | 12.9 | 0.00 | 0.00 | 0.00 | 90 | 1011.4 |
| 20260903111203 | 21 | 178 | 8.0 | 12.9 | 0.00 | 0.00 | 0.00 | 90 | 1011.4 |
| 20260903111128 | 21 | 195 | 9.7 | 12.9 | 0.00 | 0.00 | 0.00 | 90 | 1011.4 |
| 20260903111012 | 21 | 196 | 8.0 | 12.9 | 0.00 | 0.00 | 0.00 | 90 | 1011.5 |
| 20260903110856 | 21 | 195 | 6.4 | 9.7 | 0.00 | 0.00 | 0.00 | 90 | 1011.6 |
| 20260903110804 | 21 | 198 | 6.4 | 9.7 | 0.00 | 0.00 | 0.00 | 90 | 1011.5 |
| 20260903110709 | 21 | 199 | 6.4 | 9.7 | 0.00 | 0.00 | 0.00 | 90 | 1011.5 |
| 20260903110615 | 21 | 199 | 6.4 | 9.7 | 0.00 | 0.00 | 0.00 | 91 | 1011.6 |
| 20260903110539 | 21 | 200 | 8.0 | 9.7 | 0.00 | 0.00 | 0.00 | 91 | 1011.6 |
| 20260903110355 | 21 | 176 | 8.0 | 9.7 | 0.00 | 0.00 | 0.00 | 91 | 1011.7 |
| 20260903110300 | 21 | 192 | 8.0 | 9.7 | 0.00 | 0.00 | 0.00 | 91 | 1011.7 |
| 20260903110209 | 21 | 192 | 6.4 | 9.7 | 0.00 | 0.00 | 0.00 | 91 | 1011.7 |
| 20260903110115 | 21 | 188 | 6.4 | 9.7 | 0.00 | 0.00 | 0.00 | 91 | 1011.7 |
| 20260903105959 | 21 | 188 | 8.0 | 9.7 | 0.00 | 0.00 | 0.00 | 91 | 1011.7 |
| 20260903105904 | 21 | 175 | 8.0 | 12.9 | 0.00 | 0.00 | 0.00 | 91 | 1011.7 |
| 20260903105808 | 21 | 171 | 8.0 | 12.9 | 0.00 | 0.00 | 0.00 | 91 | 1011.7 |
| 20260903105713 | 21 | 191 | 8.0 | 12.9 | 0.00 | 0.00 | 0.00 | 91 | 1011.7 |
| 20260903105602 | 21 | 194 | 6.4 | 12.9 | 0.00 | 0.00 | 0.00 | 91 | 1011.8 |
| 20260903105528 | 21 | 208 | 6.4 | 12.9 | 0.00 | 0.00 | 0.00 | 91 | 1011.8 |
| 20260903105411 | 21 | 209 | 8.0 | 12.9 | 0.00 | 0.00 | 0.00 | 91 | 1011.8 |
| 20260903105255 | 21 | 212 | 8.0 | 12.9 | 0.00 | 0.00 | 0.00 | 91 | 1011.7 |
| 20260903105200 | 21 | 203 | 8.0 | 12.9 | 0.00 | 0.00 | 0.00 | 91 | 1011.8 |
| 20260903105125 | 21 | 201 | 8.0 | 12.9 | 0.00 | 0.00 | 0.00 | 91 | 1011.7 |
| 20260903105009 | 21 | 189 | 8.0 | 11.3 | 0.00 | 0.00 | 0.00 | 91 | 1011.7 |
| 20260903104858 | 21 | 227 | 8.0 | 11.3 | 0.00 | 0.00 | 0.00 | 91 | 1011.7 |
| 20260903104803 | 21 | 209 | 8.0 | 11.3 | 0.00 | 0.00 | 0.00 | 91 | 1011.6 |
| 20260903104707 | 21 | 207 | 8.0 | 11.3 | 0.00 | 0.00 | 0.00 | 91 | 1011.6 |
| 20260903104632 | 21 | 188 | 9.7 | 11.3 | 0.00 | 0.00 | 0.00 | 91 | 1011.7 |
| 20260903104456 | 21 | 199 | 8.0 | 11.3 | 0.00 | 0.00 | 0.00 | 91 | 1011.6 |
| 20260903104401 | 21 | 194 | 6.4 | 9.7 | 0.00 | 0.00 | 0.00 | 91 | 1011.6 |
| 20260903104330 | 21 | 189 | 4.8 | 9.7 | 0.00 | 0.00 | 0.00 | 91 | 1011.6 |
| 20260903104213 | 21 | 190 | 4.8 | 9.7 | 0.00 | 0.00 | 0.00 | 91 | 1011.7 |
| 20260903104058 | 21 | 203 | 4.8 | 8.0 | 0.00 | 0.00 | 0.00 | 91 | 1011.7 |
| 20260903104003 | 21 | 204 | 6.4 | 8.0 | 0.00 | 0.00 | 0.00 | 91 | 1011.7 |
| 20260903103907 | 20 | 198 | 6.4 | 8.0 | 0.00 | 0.00 | 0.00 | 90 | 1011.7 |
| 20260903103812 | 21 | 198 | 4.8 | 8.0 | 0.00 | 0.00 | 0.00 | 90 | 1011.7 |
| 20260903103721 | 21 | 198 | 4.8 | 8.0 | 0.00 | 0.00 | 0.00 | 90 | 1011.5 |
| 20260903103559 | 21 | 196 | 4.8 | 8.0 | 0.00 | 0.00 | 0.00 | 90 | 1011.5 |
| 20260903103524 | 21 | 196 | 4.8 | 8.0 | 0.00 | 0.00 | 0.00 | 90 | 1011.5 |
| 20260903103408 | 21 | 196 | 6.4 | 8.0 | 0.00 | 0.00 | 0.00 | 90 | 1011.5 |
| 20260903103313 | 21 | 196 | 6.4 | 8.0 | 0.00 | 0.00 | 0.00 | 90 | 1011.6 |
| 20260903103158 | 21 | 196 | 6.4 | 8.0 | 0.00 | 0.00 | 0.00 | 90 | 1011.4 |
| 20260903103107 | 21 | 196 | 6.4 | 8.0 | 0.00 | 0.00 | 0.00 | 90 | 1011.4 |
| 20260903103012 | 21 | 196 | 4.8 | 8.0 | 0.00 | 0.00 | 0.00 | 90 | 1011.4 |
| 20260903102858 | 21 | 196 | 4.8 | 6.4 | 0.00 | 0.00 | 0.00 | 90 | 1011.6 |
| 20260903102822 | 21 | 196 | 4.8 | 6.4 | 0.00 | 0.00 | 0.00 | 90 | 1011.5 |
| 20260903102705 | 21 | 198 | 4.8 | 6.4 | 0.00 | 0.00 | 0.00 | 90 | 1011.4 |
| 20260903102610 | 21 | 198 | 4.8 | 6.4 | 0.00 | 0.00 | 0.00 | 90 | 1011.4 |
| 20260903102458 | 21 | 200 | 3.2 | 6.4 | 0.00 | 0.00 | 0.00 | 90 | 1011.6 |
| 20260903102423 | 21 | 200 | 3.2 | 9.7 | 0.00 | 0.00 | 0.00 | 90 | 1011.6 |
| 20260903102326 | 21 | 200 | 3.2 | 9.7 | 0.00 | 0.00 | 0.00 | 90 | 1011.6 |
| 20260903102209 | 21 | 200 | 4.8 | 9.7 | 0.00 | 0.00 | 0.00 | 90 | 1011.6 |
| 20260903102113 | 21 | 200 | 4.8 | 9.7 | 0.00 | 0.00 | 0.00 | 90 | 1011.5 |
| 20260903102018 | 21 | 200 | 4.8 | 9.7 | 0.00 | 0.00 | 0.00 | 90 | 1011.6 |
| 20260903101902 | 21 | 200 | 4.8 | 9.7 | 0.00 | 0.00 | 0.00 | 90 | 1011.6 |
| 20260903101807 | 21 | 194 | 3.2 | 9.7 | 0.00 | 0.00 | 0.00 | 90 | 1011.6 |
| 20260903101656 | 21 | 193 | 4.8 | 9.7 | 0.00 | 0.00 | 0.00 | 90 | 1011.5 |
| 20260903101601 | 21 | 193 | 6.4 | 9.7 | 0.00 | 0.00 | 0.00 | 90 | 1011.5 |
| 20260903101506 | 21 | 194 | 6.4 | 9.7 | 0.00 | 0.00 | 0.00 | 90 | 1011.4 |
| 20260903101411 | 21 | 194 | 6.4 | 9.7 | 0.00 | 0.00 | 0.00 | 90 | 1011.4 |
| 20260903101335 | 21 | 189 | 8.0 | 9.7 | 0.00 | 0.00 | 0.00 | 90 | 1011.3 |
| 20260903101219 | 21 | 201 | 6.4 | 9.7 | 0.00 | 0.00 | 0.00 | 90 | 1011.3 |
| 20260903101106 | 21 | 167 | 6.4 | 12.9 | 0.00 | 0.00 | 0.00 | 90 | 1011.2 |
| 20260903101010 | 21 | 184 | 6.4 | 9.7 | 0.00 | 0.00 | 0.00 | 90 | 1011.2 |
| 20260903100855 | 21 | 190 | 4.8 | 8.0 | 0.00 | 0.00 | 0.00 | 90 | 1011.3 |
| 20260903100800 | 21 | 177 | 4.8 | 8.0 | 0.00 | 0.00 | 0.00 | 90 | 1011.3 |
| 20260903100705 | 21 | 177 | 6.4 | 8.0 | 0.00 | 0.00 | 0.00 | 90 | 1011.3 |
| 20260903100609 | 21 | 176 | 6.4 | 9.7 | 0.00 | 0.00 | 0.00 | 90 | 1011.3 |
| 20260903100458 | 21 | 184 | 6.4 | 9.7 | 0.00 | 0.00 | 0.00 | 90 | 1011.2 |
| 20260903100402 | 21 | 184 | 4.8 | 9.7 | 0.00 | 0.00 | 0.00 | 90 | 1011.2 |
| 20260903100307 | 21 | 182 | 4.8 | 9.7 | 0.00 | 0.00 | 0.00 | 91 | 1011.2 |
| 20260903100212 | 21 | 182 | 4.8 | 9.7 | 0.00 | 0.00 | 0.00 | 91 | 1011.2 |
| 20260903100116 | 21 | 181 | 4.8 | 9.7 | 0.00 | 0.00 | 0.00 | 91 | 1011.2 |
| 20260903100000 | 21 | 182 | 4.8 | 9.7 | 0.00 | 0.00 | 0.00 | 91 | 1011.2 |
| 20260903095909 | 21 | 180 | 4.8 | 9.7 | 0.00 | 0.00 | 0.00 | 91 | 1011.2 |
| 20260903095814 | 21 | 180 | 4.8 | 9.7 | 0.00 | 0.00 | 0.00 | 91 | 1011.2 |
| 20260903095718 | 21 | 174 | 4.8 | 9.7 | 0.00 | 0.00 | 0.00 | 91 | 1011.1 |
| 20260903095602 | 21 | 173 | 4.8 | 9.7 | 0.00 | 0.00 | 0.00 | 91 | 1011.1 |
| 20260903095507 | 21 | 175 | 4.8 | 9.7 | 0.00 | 0.00 | 0.00 | 91 | 1011.1 |
| 20260903095412 | 21 | 174 | 6.4 | 9.7 | 0.00 | 0.00 | 0.00 | 91 | 1011.1 |
| 20260903095305 | 21 | 175 | 6.4 | 9.7 | 0.00 | 0.00 | 0.00 | 91 | 1011.1 |
| 20260903095206 | 21 | 179 | 6.4 | 9.7 | 0.00 | 0.00 | 0.00 | 91 | 1011.1 |
| 20260903095035 | 20 | 182 | 4.8 | 9.7 | 0.00 | 0.00 | 0.00 | 91 | 1011.2 |
| 20260903094919 | 20 | 181 | 4.8 | 11.3 | 0.00 | 0.00 | 0.00 | 91 | 1011.1 |
| 20260903094802 | 20 | 186 | 4.8 | 11.3 | 0.00 | 0.00 | 0.00 | 91 | 1011.2 |
| 20260903094727 | 20 | 191 | 4.8 | 11.3 | 0.00 | 0.00 | 0.00 | 91 | 1011.2 |
| 20260903094610 | 20 | 192 | 6.4 | 11.3 | 0.00 | 0.00 | 0.00 | 91 | 1011.2 |
| 20260903094519 | 20 | 190 | 6.4 | 11.3 | 0.00 | 0.00 | 0.00 | 91 | 1011.4 |
| 20260903094403 | 20 | 189 | 6.4 | 11.3 | 0.00 | 0.00 | 0.00 | 91 | 1011.3 |
| 20260903094308 | 20 | 189 | 6.4 | 11.3 | 0.00 | 0.00 | 0.00 | 91 | 1011.3 |
| 20260903094213 | 20 | 189 | 6.4 | 11.3 | 0.00 | 0.00 | 0.00 | 91 | 1011.3 |
| 20260903094057 | 20 | 190 | 6.4 | 11.3 | 0.00 | 0.00 | 0.00 | 91 | 1011.4 |
| 20260903094002 | 20 | 188 | 6.4 | 8.0 | 0.00 | 0.00 | 0.00 | 91 | 1011.4 |
| 20260903093910 | 20 | 188 | 4.8 | 9.7 | 0.00 | 0.00 | 0.00 | 91 | 1011.4 |
| 20260903093755 | 20 | 187 | 4.8 | 9.7 | 0.00 | 0.00 | 0.00 | 91 | 1011.4 |
| 20260903093700 | 20 | 186 | 4.8 | 9.7 | 0.00 | 0.00 | 0.00 | 91 | 1011.4 |
| 20260903093605 | 20 | 187 | 4.8 | 9.7 | 0.00 | 0.00 | 0.00 | 91 | 1011.4 |
| 20260903093529 | 20 | 188 | 4.8 | 9.7 | 0.00 | 0.00 | 0.00 | 91 | 1011.4 |
| 20260903093413 | 20 | 188 | 6.4 | 9.7 | 0.00 | 0.00 | 0.00 | 91 | 1011.3 |
| 20260903093302 | 20 | 190 | 6.4 | 9.7 | 0.00 | 0.00 | 0.00 | 90 | 1011.4 |
| 20260903093208 | 20 | 190 | 6.4 | 9.7 | 0.00 | 0.00 | 0.00 | 90 | 1011.4 |
| 20260903093112 | 20 | 185 | 6.4 | 9.7 | 0.00 | 0.00 | 0.00 | 90 | 1011.4 |
| 20260903092957 | 20 | 181 | 6.4 | 8.0 | 0.00 | 0.00 | 0.00 | 90 | 1011.4 |
| 20260903092902 | 20 | 180 | 6.4 | 8.0 | 0.00 | 0.00 | 0.00 | 90 | 1011.3 |
| 20260903092807 | 20 | 178 | 4.8 | 8.0 | 0.00 | 0.00 | 0.00 | 90 | 1011.3 |
| 20260903092656 | 20 | 178 | 4.8 | 8.0 | 0.00 | 0.00 | 0.00 | 90 | 1011.4 |
| 20260903092600 | 20 | 178 | 3.2 | 8.0 | 0.00 | 0.00 | 0.00 | 90 | 1011.2 |
| 20260903092504 | 20 | 175 | 3.2 | 6.4 | 0.00 | 0.00 | 0.00 | 90 | 1011.2 |
| 20260903092409 | 20 | 174 | 3.2 | 6.4 | 0.00 | 0.00 | 0.00 | 90 | 1011.2 |
| 20260903092314 | 20 | 174 | 4.8 | 6.4 | 0.00 | 0.00 | 0.00 | 90 | 1011.3 |
| 20260903092159 | 20 | 174 | 4.8 | 8.0 | 0.00 | 0.00 | 0.00 | 90 | 1011.2 |
| 20260903092108 | 20 | 171 | 4.8 | 6.4 | 0.00 | 0.00 | 0.00 | 90 | 1011.2 |
| 20260903092013 | 20 | 171 | 4.8 | 8.0 | 0.00 | 0.00 | 0.00 | 90 | 1011.2 |
| 20260903091858 | 20 | 171 | 3.2 | 6.4 | 0.00 | 0.00 | 0.00 | 90 | 1011.2 |
| 20260903091803 | 21 | 170 | 3.2 | 6.4 | 0.00 | 0.00 | 0.00 | 90 | 1011.2 |
| 20260903091728 | 21 | 170 | 3.2 | 4.8 | 0.00 | 0.00 | 0.00 | 90 | 1011.2 |
| 20260903091611 | 20 | 170 | 3.2 | 4.8 | 0.00 | 0.00 | 0.00 | 91 | 1011.2 |
| 20260903091500 | 20 | 170 | 1.6 | 6.4 | 0.00 | 0.00 | 0.00 | 90 | 1011.3 |
| 20260903091405 | 20 | 169 | 1.6 | 4.8 | 0.00 | 0.00 | 0.00 | 90 | 1011.4 |
| 20260903091309 | 20 | 169 | 1.6 | 4.8 | 0.00 | 0.00 | 0.00 | 91 | 1011.4 |
| 20260903091214 | 20 | 169 | 3.2 | 4.8 | 0.00 | 0.00 | 0.00 | 91 | 1011.4 |
| 20260903091120 | 20 | 169 | 3.2 | 6.4 | 0.00 | 0.00 | 0.00 | 91 | 1011.4 |
| 20260903090958 | 20 | 169 | 3.2 | 6.4 | 0.00 | 0.00 | 0.00 | 91 | 1011.5 |
| 20260903090907 | 20 | 169 | 3.2 | 4.8 | 0.00 | 0.00 | 0.00 | 91 | 1011.5 |
| 20260903090833 | 20 | 169 | 3.2 | 6.4 | 0.00 | 0.00 | 0.00 | 91 | 1011.5 |
| 20260903090716 | 20 | 169 | 3.2 | 6.4 | 0.00 | 0.00 | 0.00 | 91 | 1011.6 |
| 20260903090642 | 20 | 169 | 3.2 | 4.8 | 0.00 | 0.00 | 0.00 | 91 | 1011.5 |
| 20260903090458 | 20 | 169 | 3.2 | 4.8 | 0.00 | 0.00 | 0.00 | 90 | 1011.5 |
| 20260903090403 | 20 | 169 | 3.2 | 6.4 | 0.00 | 0.00 | 0.00 | 90 | 1011.4 |
| 20260903090307 | 20 | 169 | 1.6 | 9.7 | 0.00 | 0.00 | 0.00 | 90 | 1011.4 |
| 20260903090216 | 20 | 169 | 3.2 | 9.7 | 0.00 | 0.00 | 0.00 | 90 | 1011.4 |
| 20260903090100 | 20 | 168 | 3.2 | 9.7 | 0.00 | 0.00 | 0.00 | 91 | 1011.4 |
| 20260903090026 | 20 | 168 | 3.2 | 9.7 | 0.00 | 0.00 | 0.00 | 91 | 1011.4 |
| 20260903085929 | 20 | 168 | 3.2 | 9.7 | 0.00 | 0.00 | 0.00 | 91 | 1011.4 |
| 20260903085813 | 20 | 168 | 3.2 | 9.7 | 0.00 | 0.00 | 0.00 | 91 | 1011.4 |
| 20260903085739 | 20 | 168 | 4.8 | 9.7 | 0.00 | 0.00 | 0.00 | 91 | 1011.3 |
| 20260903085556 | 20 | 168 | 4.8 | 9.7 | 0.00 | 0.00 | 0.00 | 91 | 1011.1 |
| 20260903085521 | 20 | 169 | 4.8 | 9.7 | 0.00 | 0.00 | 0.00 | 91 | 1011.1 |
| 20260903085408 | 20 | 161 | 3.2 | 8.0 | 0.00 | 0.00 | 0.00 | 91 | 1011.1 |
| 20260903085313 | 20 | 161 | 1.6 | 8.0 | 0.00 | 0.00 | 0.00 | 91 | 1011.0 |
| 20260903085218 | 20 | 161 | 1.6 | 8.0 | 0.00 | 0.00 | 0.00 | 91 | 1011.0 |
| 20260903085122 | 20 | 161 | 3.2 | 8.0 | 0.00 | 0.00 | 0.00 | 91 | 1011.0 |
| 20260903085007 | 20 | 161 | 4.8 | 8.0 | 0.00 | 0.00 | 0.00 | 91 | 1011.0 |
| 20260903084911 | 20 | 161 | 6.4 | 8.0 | 0.00 | 0.00 | 0.00 | 91 | 1011.0 |
| 20260903084800 | 20 | 163 | 4.8 | 8.0 | 0.00 | 0.00 | 0.00 | 90 | 1011.0 |
| 20260903084705 | 20 | 164 | 4.8 | 8.0 | 0.00 | 0.00 | 0.00 | 90 | 1011.0 |
| 20260903084609 | 20 | 165 | 4.8 | 8.0 | 0.00 | 0.00 | 0.00 | 89 | 1011.0 |
| 20260903084514 | 20 | 165 | 4.8 | 8.0 | 0.00 | 0.00 | 0.00 | 89 | 1011.1 |
| 20260903084418 | 20 | 166 | 4.8 | 8.0 | 0.00 | 0.00 | 0.00 | 89 | 1011.1 |
| 20260903084256 | 20 | 166 | 4.8 | 8.0 | 0.00 | 0.00 | 0.00 | 89 | 1011.2 |
| 20260903084204 | 20 | 164 | 4.8 | 8.0 | 0.00 | 0.00 | 0.00 | 88 | 1011.2 |
| 20260903084109 | 20 | 164 | 4.8 | 8.0 | 0.00 | 0.00 | 0.00 | 88 | 1011.2 |
| 20260903084014 | 21 | 165 | 4.8 | 6.4 | 0.00 | 0.00 | 0.00 | 88 | 1011.3 |
| 20260903083859 | 21 | 165 | 4.8 | 6.4 | 0.00 | 0.00 | 0.00 | 89 | 1011.3 |
| 20260903083824 | 21 | 179 | 3.2 | 6.4 | 0.00 | 0.00 | 0.00 | 89 | 1011.3 |
| 20260903083708 | 21 | 180 | 4.8 | 6.4 | 0.00 | 0.00 | 0.00 | 89 | 1011.3 |
| 20260903083558 | 21 | 180 | 4.8 | 4.8 | 0.00 | 0.00 | 0.00 | 89 | 1011.4 |
| 20260903083502 | 21 | 180 | 3.2 | 4.8 | 0.00 | 0.00 | 0.00 | 89 | 1011.4 |
| 20260903083407 | 21 | 180 | 3.2 | 4.8 | 0.00 | 0.00 | 0.00 | 89 | 1011.4 |
| 20260903083311 | 21 | 180 | 3.2 | 4.8 | 0.00 | 0.00 | 0.00 | 89 | 1011.5 |
| 20260903083155 | 21 | 180 | 3.2 | 4.8 | 0.00 | 0.00 | 0.00 | 89 | 1011.5 |
| 20260903083100 | 21 | 180 | 3.2 | 4.8 | 0.00 | 0.00 | 0.00 | 89 | 1011.6 |
| 20260903083008 | 21 | 180 | 3.2 | 4.8 | 0.00 | 0.00 | 0.00 | 89 | 1011.6 |
| 20260903082913 | 21 | 180 | 3.2 | 4.8 | 0.00 | 0.00 | 0.00 | 89 | 1011.6 |
| 20260903082819 | 21 | 181 | 3.2 | 4.8 | 0.00 | 0.00 | 0.00 | 89 | 1011.6 |
| 20260903082657 | 21 | 181 | 3.2 | 4.8 | 0.00 | 0.00 | 0.00 | 89 | 1011.6 |
| 20260903082601 | 21 | 181 | 3.2 | 4.8 | 0.00 | 0.00 | 0.00 | 89 | 1011.5 |
| 20260903082506 | 21 | 181 | 3.2 | 4.8 | 0.00 | 0.00 | 0.00 | 89 | 1011.5 |
| 20260903082415 | 21 | 181 | 3.2 | 4.8 | 0.00 | 0.00 | 0.00 | 89 | 1011.6 |
| 20260903082319 | 21 | 181 | 3.2 | 4.8 | 0.00 | 0.00 | 0.00 | 89 | 1011.6 |
| 20260903082156 | 21 | 181 | 1.6 | 4.8 | 0.00 | 0.00 | 0.00 | 89 | 1011.7 |
| 20260903082101 | 21 | 181 | 1.6 | 4.8 | 0.00 | 0.00 | 0.00 | 89 | 1011.6 |
| 20260903082006 | 21 | 181 | 1.6 | 4.8 | 0.00 | 0.00 | 0.00 | 89 | 1011.6 |
| 20260903081912 | 21 | 181 | 1.6 | 4.8 | 0.00 | 0.00 | 0.00 | 89 | 1011.6 |
| 20260903081800 | 21 | 181 | 3.2 | 4.8 | 0.00 | 0.00 | 0.00 | 89 | 1011.6 |
| 20260903081705 | 21 | 181 | 3.2 | 6.4 | 0.00 | 0.00 | 0.00 | 89 | 1011.6 |
| 20260903081630 | 21 | 181 | 3.2 | 6.4 | 0.00 | 0.00 | 0.00 | 89 | 1011.7 |
| 20260903081514 | 21 | 181 | 1.6 | 6.4 | 0.00 | 0.00 | 0.00 | 89 | 1011.6 |
| 20260903081418 | 21 | 181 | 1.6 | 6.4 | 0.00 | 0.00 | 0.00 | 89 | 1011.7 |
| 20260903081257 | 21 | 181 | 3.2 | 6.4 | 0.00 | 0.00 | 0.00 | 89 | 1011.6 |
| 20260903081221 | 21 | 181 | 3.2 | 6.4 | 0.00 | 0.00 | 0.00 | 89 | 1011.6 |
| 20260903081109 | 21 | 181 | 3.2 | 6.4 | 0.00 | 0.00 | 0.00 | 89 | 1011.6 |
| 20260903081014 | 21 | 181 | 3.2 | 6.4 | 0.00 | 0.00 | 0.00 | 89 | 1011.6 |
| 20260903080919 | 21 | 181 | 3.2 | 6.4 | 0.00 | 0.00 | 0.00 | 89 | 1011.6 |
| 20260903080823 | 21 | 181 | 3.2 | 6.4 | 0.00 | 0.00 | 0.00 | 89 | 1011.4 |
| 20260903080707 | 21 | 181 | 3.2 | 6.4 | 0.00 | 0.00 | 0.00 | 89 | 1011.4 |
| 20260903080631 | 21 | 181 | 3.2 | 6.4 | 0.00 | 0.00 | 0.00 | 89 | 1011.5 |
| 20260903080455 | 21 | 181 | 3.2 | 6.4 | 0.00 | 0.00 | 0.00 | 89 | 1011.5 |
| 20260903080404 | 21 | 181 | 3.2 | 6.4 | 0.00 | 0.00 | 0.00 | 89 | 1011.5 |
| 20260903080309 | 21 | 181 | 3.2 | 6.4 | 0.00 | 0.00 | 0.00 | 89 | 1011.5 |
| 20260903080214 | 21 | 180 | 3.2 | 4.8 | 0.00 | 0.00 | 0.00 | 89 | 1011.5 |
| 20260903080119 | 21 | 180 | 3.2 | 4.8 | 0.00 | 0.03 | 0.00 | 89 | 1011.4 |
| 20260903075956 | 21 | 181 | 3.2 | 4.8 | 0.00 | 0.03 | 0.00 | 89 | 1011.6 |
| 20260903075901 | 21 | 181 | 3.2 | 4.8 | 0.00 | 0.03 | 0.00 | 89 | 1011.6 |
| 20260903075826 | 21 | 181 | 3.2 | 4.8 | 0.00 | 0.03 | 0.00 | 89 | 1011.6 |
| 20260903075715 | 21 | 181 | 3.2 | 4.8 | 0.00 | 0.03 | 0.00 | 89 | 1011.7 |
| 20260903075559 | 21 | 180 | 3.2 | 4.8 | 0.00 | 0.03 | 0.00 | 89 | 1011.6 |
| 20260903075524 | 21 | 180 | 3.2 | 4.8 | 0.00 | 0.03 | 0.00 | 88 | 1011.6 |
| 20260903075408 | 21 | 180 | 3.2 | 4.8 | 0.00 | 0.03 | 0.00 | 88 | 1011.6 |
| 20260903075312 | 21 | 180 | 3.2 | 4.8 | 0.00 | 0.03 | 0.00 | 88 | 1011.6 |
| 20260903075157 | 21 | 180 | 3.2 | 4.8 | 0.00 | 0.03 | 0.00 | 88 | 1011.7 |
| 20260903075106 | 21 | 180 | 3.2 | 4.8 | 0.00 | 0.03 | 0.00 | 88 | 1011.7 |
| 20260903075011 | 21 | 180 | 3.2 | 4.8 | 0.00 | 0.03 | 0.00 | 88 | 1011.6 |
| 20260903074856 | 21 | 180 | 3.2 | 4.8 | 0.00 | 0.03 | 0.00 | 88 | 1011.6 |
| 20260903074821 | 21 | 180 | 3.2 | 4.8 | 0.00 | 0.03 | 0.00 | 88 | 1011.6 |
| 20260903074705 | 21 | 180 | 3.2 | 4.8 | 0.00 | 0.03 | 0.00 | 88 | 1011.6 |
| 20260903074609 | 21 | 180 | 3.2 | 4.8 | 0.00 | 0.03 | 0.00 | 88 | 1011.6 |
| 20260903074518 | 21 | 180 | 3.2 | 4.8 | 0.00 | 0.03 | 0.00 | 88 | 1011.7 |
| 20260903074356 | 21 | 180 | 3.2 | 4.8 | 0.00 | 0.03 | 0.00 | 88 | 1011.7 |
| 20260903074321 | 21 | 180 | 3.2 | 4.8 | 0.00 | 0.03 | 0.00 | 88 | 1011.7 |
| 20260903074205 | 21 | 180 | 3.2 | 4.8 | 0.00 | 0.03 | 0.00 | 88 | 1011.7 |
| 20260903074109 | 21 | 180 | 3.2 | 4.8 | 0.00 | 0.03 | 0.00 | 88 | 1011.7 |
| 20260903074014 | 21 | 180 | 3.2 | 4.8 | 0.00 | 0.03 | 0.00 | 88 | 1011.7 |
| 20260903073903 | 21 | 180 | 3.2 | 4.8 | 0.00 | 0.03 | 0.00 | 88 | 1011.6 |
| 20260903073809 | 21 | 180 | 3.2 | 4.8 | 0.00 | 0.03 | 0.00 | 88 | 1011.6 |
| 20260903073713 | 21 | 180 | 3.2 | 4.8 | 0.00 | 0.03 | 0.00 | 88 | 1011.7 |
| 20260903073557 | 21 | 180 | 3.2 | 4.8 | 0.00 | 0.03 | 0.00 | 88 | 1011.7 |
| 20260903073502 | 21 | 180 | 3.2 | 4.8 | 0.00 | 0.03 | 0.00 | 88 | 1011.7 |
| 20260903073407 | 21 | 180 | 3.2 | 4.8 | 0.00 | 0.03 | 0.00 | 88 | 1011.7 |
| 20260903073255 | 21 | 180 | 1.6 | 4.8 | 0.00 | 0.03 | 0.00 | 88 | 1011.7 |
| 20260903073200 | 21 | 180 | 1.6 | 4.8 | 0.00 | 0.03 | 0.00 | 88 | 1011.7 |
| 20260903073104 | 21 | 180 | 1.6 | 4.8 | 0.00 | 0.03 | 0.00 | 88 | 1011.7 |
| 20260903073010 | 21 | 180 | 3.2 | 4.8 | 0.00 | 0.03 | 0.00 | 88 | 1011.7 |
| 20260903072914 | 21 | 180 | 3.2 | 4.8 | 0.00 | 0.03 | 0.00 | 87 | 1011.7 |
| 20260903072759 | 21 | 180 | 3.2 | 4.8 | 0.00 | 0.03 | 0.00 | 87 | 1011.8 |
| 20260903072728 | 21 | 180 | 3.2 | 4.8 | 0.00 | 0.03 | 0.00 | 87 | 1011.8 |
| 20260903072612 | 21 | 180 | 3.2 | 4.8 | 0.00 | 0.03 | 0.00 | 88 | 1011.9 |
| 20260903072457 | 21 | 180 | 3.2 | 4.8 | 0.00 | 0.03 | 0.00 | 87 | 1011.9 |
| 20260903072402 | 21 | 180 | 1.6 | 4.8 | 0.00 | 0.03 | 0.00 | 87 | 1011.9 |
| 20260903072307 | 21 | 180 | 1.6 | 4.8 | 0.00 | 0.03 | 0.00 | 87 | 1011.9 |
| 20260903072231 | 21 | 180 | 1.6 | 8.0 | 0.00 | 0.03 | 0.00 | 87 | 1011.9 |
| 20260903072059 | 21 | 180 | 1.6 | 8.0 | 0.00 | 0.03 | 0.00 | 87 | 1011.9 |
| 20260903072003 | 21 | 180 | 1.6 | 8.0 | 0.00 | 0.03 | 0.00 | 87 | 1011.9 |
| 20260903071909 | 21 | 180 | 1.6 | 8.0 | 0.00 | 0.03 | 0.00 | 87 | 1011.9 |
| 20260903071813 | 21 | 180 | 3.2 | 8.0 | 0.00 | 0.03 | 0.00 | 87 | 1012.0 |
| 20260903071719 | 21 | 180 | 3.2 | 8.0 | 0.00 | 0.03 | 0.00 | 87 | 1011.9 |
| 20260903071556 | 21 | 180 | 4.8 | 8.0 | 0.00 | 0.03 | 0.00 | 87 | 1011.9 |
| 20260903071506 | 21 | 180 | 4.8 | 8.0 | 0.00 | 0.03 | 0.00 | 87 | 1011.9 |
| 20260903071430 | 21 | 180 | 4.8 | 8.0 | 0.00 | 0.03 | 0.00 | 87 | 1011.9 |
| 20260903071314 | 21 | 179 | 4.8 | 8.0 | 0.00 | 0.03 | 0.00 | 87 | 1011.9 |
| 20260903071159 | 21 | 179 | 4.8 | 8.0 | 0.00 | 0.03 | 0.00 | 87 | 1011.9 |
| 20260903071124 | 21 | 179 | 4.8 | 8.0 | 0.00 | 0.03 | 0.00 | 87 | 1011.9 |
| 20260903071008 | 21 | 179 | 4.8 | 8.0 | 0.00 | 0.03 | 0.00 | 87 | 1011.9 |
| 20260903070933 | 21 | 179 | 4.8 | 8.0 | 0.00 | 0.03 | 0.00 | 87 | 1011.8 |
| 20260903070801 | 21 | 180 | 4.8 | 8.0 | 0.00 | 0.03 | 0.00 | 87 | 1011.9 |
| 20260903070706 | 21 | 179 | 4.8 | 8.0 | 0.00 | 0.03 | 0.00 | 88 | 1011.9 |
| 20260903070609 | 21 | 177 | 4.8 | 8.0 | 0.00 | 0.03 | 0.00 | 88 | 1011.9 |
| 20260903070514 | 21 | 177 | 4.8 | 8.0 | 0.00 | 0.03 | 0.00 | 88 | 1011.9 |
| 20260903070419 | 21 | 175 | 4.8 | 6.4 | 0.00 | 0.03 | 0.00 | 88 | 1011.9 |
| 20260903070303 | 21 | 173 | 4.8 | 8.0 | 0.00 | 0.03 | 0.00 | 88 | 1011.9 |
| 20260903070208 | 21 | 169 | 6.4 | 8.0 | 0.00 | 0.03 | 0.00 | 88 | 1011.9 |
| 20260903070116 | 21 | 167 | 4.8 | 8.0 | 0.00 | 0.03 | 0.00 | 88 | 1011.9 |
| 20260903070020 | 21 | 167 | 4.8 | 8.0 | 0.00 | 0.03 | 0.00 | 88 | 1011.9 |
| 20260903065858 | 21 | 165 | 4.8 | 8.0 | 0.00 | 0.03 | 0.00 | 88 | 1011.9 |
| 20260903065823 | 21 | 181 | 4.8 | 8.0 | 0.00 | 0.03 | 0.00 | 88 | 1011.9 |
| 20260903065727 | 21 | 180 | 4.8 | 8.0 | 0.00 | 0.03 | 0.00 | 87 | 1011.9 |
| 20260903065612 | 21 | 180 | 4.8 | 8.0 | 0.00 | 0.03 | 0.00 | 88 | 1011.9 |
| 20260903065516 | 21 | 180 | 4.8 | 8.0 | 0.00 | 0.03 | 0.00 | 87 | 1011.9 |
| 20260903065420 | 21 | 179 | 6.4 | 8.0 | 0.00 | 0.03 | 0.00 | 87 | 1011.9 |
| 20260903065328 | 21 | 181 | 6.4 | 8.0 | 0.00 | 0.03 | 0.00 | 87 | 1011.9 |
| 20260903065231 | 21 | 181 | 6.4 | 8.0 | 0.00 | 0.03 | 0.00 | 87 | 1011.9 |
| 20260903065135 | 21 | 180 | 4.8 | 8.0 | 0.00 | 0.03 | 0.00 | 87 | 1011.9 |
| 20260903065019 | 21 | 176 | 4.8 | 8.0 | 0.00 | 0.03 | 0.00 | 87 | 1011.9 |
| 20260903064856 | 21 | 178 | 4.8 | 8.0 | 0.00 | 0.03 | 0.00 | 87 | 1011.9 |
| 20260903064801 | 21 | 177 | 3.2 | 8.0 | 0.00 | 0.03 | 0.00 | 87 | 1011.9 |
| 20260903064706 | 21 | 177 | 3.2 | 8.0 | 0.00 | 0.03 | 0.00 | 87 | 1011.9 |
| 20260903064614 | 21 | 177 | 1.6 | 8.0 | 0.00 | 0.03 | 0.00 | 87 | 1011.9 |
| 20260903064459 | 21 | 177 | 3.2 | 8.0 | 0.00 | 0.03 | 0.00 | 87 | 1011.9 |
| 20260903064404 | 21 | 177 | 3.2 | 8.0 | 0.00 | 0.03 | 0.00 | 87 | 1011.9 |
| 20260903064309 | 21 | 177 | 3.2 | 8.0 | 0.00 | 0.03 | 0.00 | 87 | 1011.9 |
| 20260903064214 | 21 | 177 | 4.8 | 8.0 | 0.00 | 0.03 | 0.00 | 87 | 1012.0 |
| 20260903064059 | 21 | 176 | 3.2 | 8.0 | 0.00 | 0.03 | 0.00 | 87 | 1012.0 |
| 20260903064008 | 21 | 175 | 3.2 | 4.8 | 0.00 | 0.03 | 0.00 | 87 | 1012.0 |
| 20260903063914 | 21 | 175 | 1.6 | 4.8 | 0.00 | 0.03 | 0.00 | 87 | 1012.1 |
| 20260903063818 | 21 | 175 | 1.6 | 6.4 | 0.00 | 0.03 | 0.00 | 87 | 1012.0 |
| 20260903063721 | 21 | 175 | 1.6 | 6.4 | 0.00 | 0.03 | 0.00 | 87 | 1012.1 |
| 20260903063605 | 21 | 175 | 3.2 | 6.4 | 0.00 | 0.03 | 0.00 | 87 | 1012.1 |
| 20260903063510 | 22 | 175 | 3.2 | 6.4 | 0.00 | 0.03 | 0.00 | 87 | 1012.1 |
| 20260903063359 | 21 | 175 | 3.2 | 6.4 | 0.00 | 0.03 | 0.00 | 87 | 1012.1 |
| 20260903063303 | 21 | 175 | 3.2 | 6.4 | 0.00 | 0.03 | 0.00 | 86 | 1012.1 |
| 20260903063228 | 21 | 175 | 3.2 | 6.4 | 0.00 | 0.03 | 0.00 | 86 | 1012.1 |
| 20260903063112 | 22 | 175 | 3.2 | 6.4 | 0.00 | 0.03 | 0.00 | 86 | 1012.1 |
| 20260903062957 | 22 | 175 | 3.2 | 6.4 | 0.00 | 0.03 | 0.00 | 86 | 1012.1 |
| 20260903062903 | 22 | 176 | 3.2 | 4.8 | 0.00 | 0.03 | 0.00 | 86 | 1012.1 |
| 20260903062807 | 22 | 177 | 3.2 | 4.8 | 0.00 | 0.03 | 0.00 | 86 | 1012.1 |
| 20260903062655 | 22 | 177 | 3.2 | 4.8 | 0.00 | 0.03 | 0.00 | 86 | 1012.2 |
| 20260903062620 | 22 | 176 | 3.2 | 4.8 | 0.00 | 0.03 | 0.00 | 86 | 1012.2 |
| 20260903062504 | 22 | 177 | 3.2 | 4.8 | 0.00 | 0.03 | 0.00 | 86 | 1012.2 |
| 20260903062409 | 22 | 177 | 3.2 | 4.8 | 0.00 | 0.03 | 0.00 | 86 | 1012.2 |
| 20260903062334 | 22 | 177 | 3.2 | 4.8 | 0.00 | 0.03 | 0.00 | 86 | 1012.3 |
| 20260903062218 | 22 | 177 | 3.2 | 4.8 | 0.00 | 0.03 | 0.00 | 86 | 1012.3 |
| 20260903062056 | 22 | 177 | 1.6 | 4.8 | 0.00 | 0.03 | 0.00 | 86 | 1012.2 |
| 20260903062005 | 22 | 177 | 1.6 | 4.8 | 0.00 | 0.03 | 0.00 | 86 | 1012.3 |
| 20260903061909 | 22 | 177 | 3.2 | 4.8 | 0.00 | 0.03 | 0.00 | 86 | 1012.3 |
| 20260903061834 | 22 | 177 | 3.2 | 4.8 | 0.00 | 0.03 | 0.00 | 86 | 1012.3 |
| 20260903061718 | 22 | 177 | 3.2 | 4.8 | 0.00 | 0.03 | 0.00 | 86 | 1012.3 |
| 20260903061556 | 22 | 177 | 3.2 | 4.8 | 0.00 | 0.03 | 0.00 | 86 | 1012.3 |
| 20260903061501 | 22 | 177 | 3.2 | 4.8 | 0.00 | 0.03 | 0.00 | 86 | 1012.3 |
| 20260903061410 | 22 | 177 | 3.2 | 6.4 | 0.00 | 0.03 | 0.00 | 86 | 1012.3 |
| 20260903061314 | 22 | 177 | 3.2 | 6.4 | 0.00 | 0.03 | 0.00 | 86 | 1012.3 |
| 20260903061200 | 22 | 177 | 3.2 | 6.4 | 0.00 | 0.03 | 0.00 | 86 | 1012.3 |
| 20260903061124 | 22 | 177 | 3.2 | 6.4 | 0.00 | 0.03 | 0.00 | 86 | 1012.3 |
| 20260903061007 | 22 | 177 | 3.2 | 6.4 | 0.00 | 0.03 | 0.00 | 86 | 1012.3 |
| 20260903060913 | 22 | 177 | 3.2 | 6.4 | 0.00 | 0.03 | 0.00 | 86 | 1012.3 |
| 20260903060801 | 22 | 178 | 3.2 | 8.0 | 0.00 | 0.03 | 0.00 | 86 | 1012.3 |
| 20260903060704 | 22 | 178 | 3.2 | 8.0 | 0.00 | 0.03 | 0.00 | 86 | 1012.3 |
| 20260903060609 | 22 | 178 | 3.2 | 8.0 | 0.00 | 0.03 | 0.00 | 86 | 1012.3 |
| 20260903060534 | 22 | 173 | 3.2 | 6.4 | 0.00 | 0.03 | 0.00 | 86 | 1012.2 |
| 20260903060439 | 22 | 173 | 1.6 | 6.4 | 0.00 | 0.03 | 0.00 | 86 | 1012.2 |
| 20260903060256 | 22 | 173 | 3.2 | 6.4 | 0.00 | 0.03 | 0.00 | 86 | 1012.3 |
| 20260903060201 | 22 | 173 | 3.2 | 6.4 | 0.00 | 0.03 | 0.00 | 86 | 1012.2 |
| 20260903060126 | 22 | 173 | 3.2 | 8.0 | 0.00 | 0.03 | 0.00 | 86 | 1012.2 |
| 20260903060015 | 22 | 171 | 1.6 | 6.4 | 0.00 | 0.03 | 0.00 | 86 | 1012.2 |
| 20260903055859 | 22 | 171 | 1.6 | 6.4 | 0.00 | 0.03 | 0.00 | 86 | 1012.2 |
| 20260903055803 | 22 | 171 | 1.6 | 6.4 | 0.00 | 0.03 | 0.00 | 86 | 1012.2 |
| 20260903055728 | 22 | 171 | 3.2 | 6.4 | 0.00 | 0.03 | 0.00 | 86 | 1012.2 |
| 20260903055612 | 22 | 171 | 3.2 | 6.4 | 0.00 | 0.03 | 0.00 | 86 | 1012.2 |
| 20260903055457 | 22 | 171 | 1.6 | 6.4 | 0.00 | 0.03 | 0.00 | 86 | 1012.2 |
| 20260903055406 | 22 | 171 | 1.6 | 6.4 | 0.00 | 0.03 | 0.00 | 86 | 1012.2 |
| 20260903055331 | 22 | 171 | 3.2 | 6.4 | 0.00 | 0.03 | 0.00 | 86 | 1012.2 |
| 20260903055155 | 22 | 171 | 3.2 | 6.4 | 0.00 | 0.03 | 0.00 | 86 | 1012.3 |
| 20260903055100 | 22 | 170 | 1.6 | 6.4 | 0.00 | 0.03 | 0.00 | 86 | 1012.2 |
| 20260903055005 | 22 | 170 | 1.6 | 4.8 | 0.00 | 0.03 | 0.00 | 86 | 1012.2 |
| 20260903054909 | 22 | 170 | 1.6 | 4.8 | 0.00 | 0.03 | 0.00 | 86 | 1012.2 |
| 20260903054758 | 22 | 170 | 1.6 | 4.8 | 0.00 | 0.03 | 0.00 | 86 | 1012.3 |
| 20260903054703 | 22 | 171 | 1.6 | 6.4 | 0.00 | 0.03 | 0.00 | 86 | 1012.3 |
| 20260903054628 | 22 | 170 | 0.0 | 4.8 | 0.00 | 0.03 | 0.00 | 86 | 1012.3 |
| 20260903054532 | 22 | 170 | 1.6 | 4.8 | 0.00 | 0.03 | 0.00 | 86 | 1012.2 |
| 20260903054435 | 22 | 170 | 1.6 | 4.8 | 0.00 | 0.03 | 0.00 | 86 | 1012.2 |
| 20260903054258 | 22 | 170 | 1.6 | 4.8 | 0.00 | 0.03 | 0.00 | 86 | 1012.1 |
| 20260903054203 | 22 | 170 | 1.6 | 4.8 | 0.00 | 0.03 | 0.00 | 86 | 1012.2 |
| 20260903054128 | 22 | 170 | 3.2 | 4.8 | 0.00 | 0.03 | 0.00 | 86 | 1012.2 |
| 20260903054016 | 22 | 170 | 3.2 | 6.4 | 0.00 | 0.03 | 0.00 | 85 | 1012.2 |
| 20260903053900 | 22 | 169 | 1.6 | 4.8 | 0.00 | 0.03 | 0.00 | 86 | 1012.2 |
| 20260903053805 | 22 | 169 | 1.6 | 4.8 | 0.00 | 0.03 | 0.00 | 86 | 1012.2 |
| 20260903053730 | 22 | 169 | 1.6 | 4.8 | 0.00 | 0.03 | 0.00 | 86 | 1012.2 |
| 20260903053614 | 22 | 169 | 1.6 | 4.8 | 0.00 | 0.03 | 0.00 | 86 | 1012.2 |
| 20260903053459 | 22 | 169 | 1.6 | 4.8 | 0.00 | 0.03 | 0.00 | 86 | 1012.2 |
| 20260903053404 | 22 | 169 | 3.2 | 4.8 | 0.00 | 0.03 | 0.00 | 86 | 1012.2 |
| 20260903053313 | 22 | 170 | 3.2 | 4.8 | 0.00 | 0.03 | 0.00 | 86 | 1012.2 |
| 20260903053157 | 22 | 170 | 3.2 | 6.4 | 0.00 | 0.03 | 0.00 | 86 | 1012.2 |
| 20260903053102 | 22 | 170 | 1.6 | 4.8 | 0.00 | 0.03 | 0.00 | 86 | 1012.3 |
| 20260903053007 | 22 | 170 | 1.6 | 4.8 | 0.00 | 0.03 | 0.00 | 86 | 1012.3 |
| 20260903052913 | 22 | 170 | 1.6 | 4.8 | 0.00 | 0.03 | 0.00 | 86 | 1012.2 |
| 20260903052801 | 22 | 170 | 3.2 | 4.8 | 0.00 | 0.03 | 0.00 | 85 | 1012.2 |
| 20260903052706 | 22 | 170 | 3.2 | 4.8 | 0.00 | 0.03 | 0.00 | 85 | 1012.2 |
| 20260903052610 | 22 | 170 | 3.2 | 6.4 | 0.00 | 0.03 | 0.00 | 85 | 1012.2 |
| 20260903052535 | 22 | 170 | 3.2 | 4.8 | 0.00 | 0.03 | 0.00 | 85 | 1012.3 |
| 20260903052359 | 22 | 170 | 3.2 | 6.4 | 0.00 | 0.03 | 0.00 | 85 | 1012.3 |
| 20260903052307 | 22 | 171 | 3.2 | 6.4 | 0.00 | 0.03 | 0.00 | 86 | 1012.3 |
| 20260903052209 | 22 | 171 | 3.2 | 4.8 | 0.00 | 0.03 | 0.00 | 86 | 1012.3 |
| 20260903052119 | 22 | 171 | 1.6 | 4.8 | 0.00 | 0.03 | 0.00 | 86 | 1012.3 |
| 20260903051956 | 22 | 171 | 3.2 | 4.8 | 0.00 | 0.03 | 0.00 | 86 | 1012.3 |
| 20260903051921 | 22 | 171 | 3.2 | 4.8 | 0.00 | 0.03 | 0.00 | 85 | 1012.3 |
| 20260903051758 | 22 | 171 | 3.2 | 4.8 | 0.00 | 0.03 | 0.00 | 85 | 1012.3 |
| 20260903051703 | 22 | 171 | 3.2 | 6.4 | 0.00 | 0.03 | 0.00 | 85 | 1012.2 |
| 20260903051607 | 22 | 171 | 3.2 | 4.8 | 0.00 | 0.03 | 0.00 | 85 | 1012.2 |
| 20260903051455 | 22 | 171 | 3.2 | 4.8 | 0.00 | 0.03 | 0.00 | 85 | 1012.3 |
| 20260903051400 | 22 | 171 | 3.2 | 6.4 | 0.00 | 0.03 | 0.00 | 85 | 1012.3 |
| 20260903051305 | 22 | 171 | 1.6 | 4.8 | 0.00 | 0.03 | 0.00 | 85 | 1012.3 |
| 20260903051211 | 22 | 171 | 3.2 | 4.8 | 0.00 | 0.03 | 0.00 | 85 | 1012.3 |
| 20260903051055 | 22 | 171 | 3.2 | 4.8 | 0.00 | 0.03 | 0.00 | 84 | 1012.3 |
| 20260903051004 | 22 | 171 | 3.2 | 4.8 | 0.00 | 0.03 | 0.00 | 84 | 1012.4 |
| 20260903050909 | 22 | 171 | 1.6 | 4.8 | 0.00 | 0.03 | 0.00 | 84 | 1012.4 |
| 20260903050834 | 22 | 171 | 3.2 | 4.8 | 0.00 | 0.03 | 0.00 | 84 | 1012.3 |
| 20260903050717 | 22 | 171 | 3.2 | 4.8 | 0.00 | 0.03 | 0.00 | 84 | 1012.4 |
| 20260903050600 | 22 | 171 | 1.6 | 6.4 | 0.00 | 0.03 | 0.00 | 84 | 1012.4 |
| 20260903050505 | 22 | 171 | 1.6 | 4.8 | 0.00 | 0.03 | 0.00 | 84 | 1012.4 |
| 20260903050411 | 22 | 171 | 3.2 | 4.8 | 0.00 | 0.03 | 0.00 | 84 | 1012.4 |
| 20260903050319 | 22 | 171 | 1.6 | 4.8 | 0.00 | 0.03 | 0.00 | 84 | 1012.5 |
| 20260903050155 | 22 | 171 | 1.6 | 4.8 | 0.00 | 0.03 | 0.03 | 84 | 1012.4 |
| 20260903050100 | 22 | 171 | 1.6 | 4.8 | 0.00 | 0.03 | 0.03 | 83 | 1012.3 |
| 20260903050006 | 22 | 171 | 1.6 | 4.8 | 0.00 | 0.03 | 0.03 | 83 | 1012.4 |
| 20260903045909 | 22 | 172 | 1.6 | 4.8 | 0.00 | 0.03 | 0.03 | 83 | 1012.4 |
| 20260903045812 | 22 | 172 | 1.6 | 4.8 | 0.00 | 0.03 | 0.03 | 83 | 1012.4 |
| 20260903045716 | 22 | 172 | 1.6 | 3.2 | 0.00 | 0.03 | 0.03 | 83 | 1012.4 |
| 20260903045620 | 22 | 172 | 1.6 | 3.2 | 0.00 | 0.03 | 0.03 | 83 | 1012.4 |
| 20260903045508 | 22 | 172 | 1.6 | 3.2 | 0.00 | 0.03 | 0.03 | 83 | 1012.4 |
| 20260903045413 | 22 | 172 | 1.6 | 3.2 | 0.00 | 0.03 | 0.03 | 83 | 1012.4 |
| 20260903045258 | 22 | 172 | 1.6 | 4.8 | 0.00 | 0.03 | 0.03 | 83 | 1012.4 |
| 20260903045203 | 22 | 172 | 1.6 | 4.8 | 0.00 | 0.03 | 0.03 | 83 | 1012.4 |
| 20260903045108 | 22 | 172 | 0.0 | 4.8 | 0.00 | 0.03 | 0.03 | 83 | 1012.5 |
| 20260903044956 | 22 | 172 | 0.0 | 4.8 | 0.00 | 0.03 | 0.03 | 83 | 1012.5 |
| 20260903044921 | 22 | 172 | 0.0 | 4.8 | 0.00 | 0.03 | 0.03 | 83 | 1012.5 |
| 20260903044759 | 23 | 172 | 0.0 | 4.8 | 0.00 | 0.03 | 0.03 | 83 | 1012.5 |
| 20260903044703 | 23 | 172 | 0.0 | 4.8 | 0.00 | 0.03 | 0.03 | 83 | 1012.4 |
| 20260903044608 | 23 | 172 | 1.6 | 4.8 | 0.00 | 0.03 | 0.03 | 83 | 1012.5 |
| 20260903044512 | 23 | 172 | 1.6 | 4.8 | 0.00 | 0.03 | 0.03 | 83 | 1012.5 |
| 20260903044401 | 23 | 172 | 1.6 | 4.8 | 0.00 | 0.03 | 0.03 | 82 | 1012.4 |
| 20260903044306 | 23 | 172 | 1.6 | 6.4 | 0.00 | 0.03 | 0.03 | 82 | 1012.5 |
| 20260903044211 | 23 | 172 | 3.2 | 6.4 | 0.00 | 0.03 | 0.03 | 82 | 1012.5 |
| 20260903044056 | 23 | 172 | 3.2 | 6.4 | 0.00 | 0.03 | 0.03 | 82 | 1012.4 |
| 20260903044001 | 23 | 172 | 3.2 | 6.4 | 0.00 | 0.03 | 0.03 | 82 | 1012.5 |
| 20260903043906 | 23 | 172 | 3.2 | 6.4 | 0.00 | 0.03 | 0.03 | 82 | 1012.5 |
| 20260903043755 | 23 | 172 | 1.6 | 6.4 | 0.00 | 0.03 | 0.03 | 82 | 1012.5 |
| 20260903043700 | 23 | 172 | 3.2 | 6.4 | 0.00 | 0.03 | 0.03 | 82 | 1012.5 |
| 20260903043605 | 23 | 172 | 3.2 | 6.4 | 0.00 | 0.03 | 0.03 | 82 | 1012.4 |
| 20260903043529 | 23 | 173 | 3.2 | 6.4 | 0.00 | 0.03 | 0.03 | 82 | 1012.5 |
| 20260903043412 | 23 | 173 | 3.2 | 6.4 | 0.00 | 0.03 | 0.03 | 83 | 1012.5 |
| 20260903043317 | 23 | 173 | 3.2 | 6.4 | 0.00 | 0.03 | 0.03 | 83 | 1012.5 |
| 20260903043200 | 23 | 174 | 3.2 | 6.4 | 0.00 | 0.03 | 0.03 | 83 | 1012.5 |
| 20260903043126 | 23 | 174 | 3.2 | 8.0 | 0.00 | 0.03 | 0.03 | 83 | 1012.5 |
| 20260903043013 | 23 | 175 | 3.2 | 8.0 | 0.00 | 0.03 | 0.03 | 83 | 1012.5 |
| 20260903042917 | 23 | 175 | 3.2 | 8.0 | 0.00 | 0.03 | 0.03 | 83 | 1012.4 |
| 20260903042756 | 23 | 176 | 3.2 | 8.0 | 0.00 | 0.03 | 0.03 | 82 | 1012.4 |
| 20260903042700 | 23 | 176 | 3.2 | 8.0 | 0.00 | 0.03 | 0.03 | 83 | 1012.5 |
| 20260903042606 | 23 | 176 | 3.2 | 8.0 | 0.00 | 0.03 | 0.03 | 83 | 1012.4 |
| 20260903042510 | 23 | 177 | 4.8 | 8.0 | 0.00 | 0.03 | 0.03 | 83 | 1012.4 |
| 20260903042358 | 23 | 177 | 3.2 | 8.0 | 0.00 | 0.03 | 0.03 | 82 | 1012.4 |
| 20260903042306 | 23 | 177 | 3.2 | 9.7 | 0.00 | 0.03 | 0.03 | 82 | 1012.4 |
| 20260903042207 | 23 | 174 | 3.2 | 8.0 | 0.00 | 0.03 | 0.03 | 82 | 1012.4 |
| 20260903042132 | 23 | 174 | 3.2 | 6.4 | 0.00 | 0.03 | 0.03 | 82 | 1012.4 |
| 20260903042017 | 23 | 174 | 3.2 | 6.4 | 0.00 | 0.03 | 0.03 | 82 | 1012.4 |
| 20260903041855 | 23 | 174 | 3.2 | 6.4 | 0.00 | 0.03 | 0.03 | 82 | 1012.4 |
| 20260903041824 | 23 | 174 | 3.2 | 6.4 | 0.00 | 0.03 | 0.03 | 82 | 1012.5 |
| 20260903041708 | 23 | 174 | 4.8 | 6.4 | 0.00 | 0.03 | 0.03 | 82 | 1012.5 |
| 20260903041613 | 23 | 174 | 4.8 | 8.0 | 0.00 | 0.03 | 0.03 | 82 | 1012.4 |
| 20260903041458 | 23 | 173 | 4.8 | 8.0 | 0.00 | 0.03 | 0.03 | 82 | 1012.4 |
| 20260903041403 | 23 | 173 | 4.8 | 6.4 | 0.00 | 0.03 | 0.03 | 82 | 1012.4 |
| 20260903041328 | 23 | 173 | 4.8 | 8.0 | 0.00 | 0.03 | 0.03 | 82 | 1012.5 |
| 20260903041232 | 23 | 173 | 4.8 | 8.0 | 0.00 | 0.03 | 0.03 | 82 | 1012.5 |
| 20260903041120 | 23 | 173 | 4.8 | 6.4 | 0.00 | 0.03 | 0.03 | 82 | 1012.4 |
| 20260903041004 | 23 | 173 | 4.8 | 8.0 | 0.00 | 0.03 | 0.03 | 82 | 1012.3 |
| 20260903040909 | 23 | 173 | 4.8 | 8.0 | 0.00 | 0.03 | 0.03 | 82 | 1012.3 |
| 20260903040814 | 23 | 173 | 4.8 | 6.4 | 0.00 | 0.03 | 0.03 | 82 | 1012.4 |
| 20260903040719 | 23 | 173 | 3.2 | 4.8 | 0.00 | 0.03 | 0.03 | 82 | 1012.4 |
| 20260903040602 | 23 | 172 | 3.2 | 4.8 | 0.00 | 0.03 | 0.03 | 81 | 1012.3 |
| 20260903040507 | 23 | 172 | 3.2 | 6.4 | 0.00 | 0.03 | 0.03 | 81 | 1012.4 |
| 20260903040356 | 23 | 172 | 3.2 | 6.4 | 0.00 | 0.03 | 0.03 | 81 | 1012.4 |
| 20260903040301 | 23 | 172 | 3.2 | 6.4 | 0.00 | 0.03 | 0.03 | 81 | 1012.4 |
| 20260903040206 | 23 | 172 | 4.8 | 6.4 | 0.00 | 0.03 | 0.03 | 81 | 1012.3 |
| 20260903040130 | 23 | 172 | 4.8 | 6.4 | 0.00 | 0.03 | 0.03 | 81 | 1012.3 |
| 20260903040033 | 23 | 172 | 3.2 | 6.4 | 0.00 | 0.03 | 0.03 | 81 | 1012.3 |
| 20260903035914 | 23 | 172 | 3.2 | 6.4 | 0.00 | 0.03 | 0.03 | 81 | 1012.4 |
| 20260903035819 | 23 | 172 | 3.2 | 6.4 | 0.00 | 0.03 | 0.03 | 81 | 1012.3 |
| 20260903035727 | 23 | 172 | 3.2 | 6.4 | 0.00 | 0.03 | 0.03 | 81 | 1012.4 |
| 20260903035630 | 23 | 171 | 4.8 | 6.4 | 0.00 | 0.03 | 0.03 | 81 | 1012.4 |
| 20260903035514 | 23 | 171 | 4.8 | 6.4 | 0.00 | 0.03 | 0.03 | 81 | 1012.5 |
| 20260903035440 | 23 | 171 | 4.8 | 6.4 | 0.00 | 0.03 | 0.03 | 81 | 1012.4 |
| 20260903035257 | 23 | 171 | 4.8 | 8.0 | 0.00 | 0.03 | 0.03 | 81 | 1012.5 |
| 20260903035201 | 23 | 171 | 3.2 | 6.4 | 0.00 | 0.03 | 0.03 | 80 | 1012.5 |
| 20260903035106 | 23 | 171 | 3.2 | 4.8 | 0.00 | 0.03 | 0.03 | 80 | 1012.5 |
| 20260903035014 | 23 | 171 | 3.2 | 6.4 | 0.00 | 0.03 | 0.03 | 80 | 1012.5 |
| 20260903034919 | 23 | 171 | 3.2 | 4.8 | 0.00 | 0.03 | 0.03 | 80 | 1012.5 |
| 20260903034823 | 23 | 171 | 3.2 | 6.4 | 0.00 | 0.03 | 0.03 | 80 | 1012.5 |
| 20260903034706 | 23 | 171 | 3.2 | 6.4 | 0.00 | 0.03 | 0.03 | 80 | 1012.5 |
| 20260903034611 | 23 | 171 | 3.2 | 6.4 | 0.00 | 0.03 | 0.03 | 80 | 1012.5 |
| 20260903034456 | 23 | 171 | 3.2 | 6.4 | 0.00 | 0.03 | 0.03 | 79 | 1012.5 |
| 20260903034421 | 23 | 171 | 1.6 | 6.4 | 0.00 | 0.03 | 0.03 | 79 | 1012.5 |
| 20260903034309 | 23 | 171 | 1.6 | 6.4 | 0.00 | 0.03 | 0.03 | 79 | 1012.5 |
| 20260903034214 | 23 | 171 | 1.6 | 6.4 | 0.00 | 0.03 | 0.03 | 79 | 1012.5 |
| 20260903034120 | 23 | 171 | 1.6 | 6.4 | 0.00 | 0.03 | 0.03 | 79 | 1012.4 |
| 20260903033956 | 23 | 171 | 1.6 | 6.4 | 0.00 | 0.03 | 0.03 | 79 | 1012.4 |
| 20260903033901 | 23 | 171 | 3.2 | 6.4 | 0.00 | 0.03 | 0.03 | 79 | 1012.4 |
| 20260903033806 | 23 | 171 | 3.2 | 6.4 | 0.00 | 0.03 | 0.03 | 79 | 1012.4 |
| 20260903033655 | 23 | 173 | 3.2 | 6.4 | 0.00 | 0.03 | 0.03 | 79 | 1012.4 |
| 20260903033621 | 23 | 173 | 3.2 | 6.4 | 0.00 | 0.03 | 0.03 | 79 | 1012.4 |
| 20260903033459 | 23 | 173 | 3.2 | 6.4 | 0.00 | 0.03 | 0.03 | 79 | 1012.4 |
| 20260903033404 | 23 | 173 | 3.2 | 8.0 | 0.00 | 0.03 | 0.03 | 79 | 1012.4 |
| 20260903033309 | 23 | 174 | 3.2 | 4.8 | 0.00 | 0.03 | 0.03 | 79 | 1012.4 |
| 20260903033234 | 23 | 174 | 1.6 | 4.8 | 0.00 | 0.03 | 0.03 | 79 | 1012.4 |
| 20260903033102 | 23 | 174 | 1.6 | 6.4 | 0.00 | 0.03 | 0.03 | 79 | 1012.5 |
| 20260903033027 | 23 | 174 | 3.2 | 6.4 | 0.00 | 0.03 | 0.03 | 79 | 1012.5 |
| 20260903032911 | 23 | 174 | 3.2 | 6.4 | 0.00 | 0.03 | 0.03 | 79 | 1012.5 |
| 20260903032817 | 23 | 174 | 3.2 | 6.4 | 0.00 | 0.03 | 0.03 | 79 | 1012.5 |
| 20260903032655 | 23 | 174 | 3.2 | 6.4 | 0.00 | 0.03 | 0.03 | 78 | 1012.5 |
| 20260903032600 | 23 | 174 | 3.2 | 6.4 | 0.00 | 0.03 | 0.03 | 78 | 1012.5 |
| 20260903032505 | 23 | 174 | 3.2 | 6.4 | 0.00 | 0.03 | 0.03 | 78 | 1012.5 |
| 20260903032414 | 23 | 174 | 3.2 | 6.4 | 0.00 | 0.03 | 0.03 | 78 | 1012.5 |
| 20260903032318 | 23 | 174 | 3.2 | 8.0 | 0.00 | 0.03 | 0.03 | 78 | 1012.5 |
| 20260903032202 | 23 | 173 | 1.6 | 4.8 | 0.00 | 0.03 | 0.03 | 78 | 1012.5 |
| 20260903032107 | 23 | 173 | 3.2 | 4.8 | 0.00 | 0.03 | 0.03 | 78 | 1012.5 |
| 20260903032032 | 23 | 173 | 1.6 | 4.8 | 0.00 | 0.03 | 0.03 | 78 | 1012.5 |
| 20260903031916 | 23 | 173 | 1.6 | 4.8 | 0.00 | 0.03 | 0.03 | 78 | 1012.5 |
| 20260903031800 | 23 | 173 | 1.6 | 4.8 | 0.00 | 0.03 | 0.03 | 78 | 1012.5 |
| 20260903031709 | 23 | 173 | 1.6 | 6.4 | 0.00 | 0.03 | 0.03 | 78 | 1012.5 |
| 20260903031614 | 23 | 173 | 3.2 | 6.4 | 0.00 | 0.03 | 0.03 | 78 | 1012.6 |
| 20260903031519 | 23 | 173 | 1.6 | 6.4 | 0.00 | 0.03 | 0.03 | 78 | 1012.6 |
| 20260903031357 | 23 | 174 | 1.6 | 6.4 | 0.00 | 0.03 | 0.03 | 78 | 1012.5 |
| 20260903031302 | 23 | 174 | 1.6 | 6.4 | 0.00 | 0.03 | 0.03 | 77 | 1012.5 |
| 20260903031207 | 23 | 174 | 1.6 | 6.4 | 0.00 | 0.03 | 0.03 | 77 | 1012.6 |
| 20260903031057 | 23 | 174 | 0.0 | 6.4 | 0.00 | 0.03 | 0.03 | 77 | 1012.6 |
| 20260903031001 | 23 | 174 | 1.6 | 6.4 | 0.00 | 0.03 | 0.03 | 78 | 1012.6 |
| 20260903030926 | 23 | 174 | 3.2 | 6.4 | 0.00 | 0.03 | 0.03 | 78 | 1012.5 |
| 20260903030810 | 23 | 174 | 3.2 | 8.0 | 0.00 | 0.03 | 0.03 | 78 | 1012.5 |
| 20260903030715 | 23 | 173 | 3.2 | 8.0 | 0.00 | 0.03 | 0.03 | 77 | 1012.6 |
| 20260903030600 | 23 | 173 | 3.2 | 8.0 | 0.00 | 0.03 | 0.03 | 77 | 1012.5 |
| 20260903030508 | 23 | 173 | 3.2 | 8.0 | 0.00 | 0.03 | 0.03 | 77 | 1012.5 |
| 20260903030413 | 23 | 173 | 3.2 | 8.0 | 0.00 | 0.03 | 0.03 | 77 | 1012.5 |
| 20260903030318 | 23 | 173 | 1.6 | 8.0 | 0.00 | 0.03 | 0.03 | 77 | 1012.5 |
| 20260903030202 | 23 | 173 | 3.2 | 8.0 | 0.00 | 0.03 | 0.03 | 77 | 1012.5 |
| 20260903030107 | 23 | 173 | 4.8 | 8.0 | 0.00 | 0.03 | 0.03 | 77 | 1012.6 |
| 20260903030011 | 23 | 173 | 4.8 | 9.7 | 0.00 | 0.03 | 0.03 | 77 | 1012.6 |
| 20260903025900 | 23 | 167 | 4.8 | 8.0 | 0.00 | 0.03 | 0.03 | 77 | 1012.5 |
| 20260903025806 | 23 | 167 | 4.8 | 8.0 | 0.00 | 0.03 | 0.03 | 76 | 1012.5 |
| 20260903025710 | 23 | 167 | 4.8 | 8.0 | 0.00 | 0.03 | 0.03 | 76 | 1012.5 |
| 20260903025614 | 23 | 166 | 3.2 | 8.0 | 0.00 | 0.03 | 0.03 | 76 | 1012.5 |
| 20260903025519 | 24 | 166 | 3.2 | 8.0 | 0.00 | 0.03 | 0.03 | 76 | 1012.6 |
| 20260903025423 | 24 | 166 | 3.2 | 8.0 | 0.00 | 0.03 | 0.03 | 76 | 1012.5 |
| 20260903025328 | 24 | 165 | 3.2 | 8.0 | 0.00 | 0.03 | 0.03 | 76 | 1012.5 |
| 20260903025155 | 24 | 165 | 3.2 | 8.0 | 0.00 | 0.03 | 0.03 | 76 | 1012.5 |
| 20260903025100 | 24 | 165 | 3.2 | 8.0 | 0.00 | 0.03 | 0.03 | 76 | 1012.6 |
| 20260903025025 | 24 | 165 | 3.2 | 8.0 | 0.00 | 0.03 | 0.03 | 75 | 1012.5 |
| 20260903024909 | 24 | 163 | 1.6 | 4.8 | 0.00 | 0.03 | 0.03 | 75 | 1012.5 |
| 20260903024813 | 24 | 163 | 1.6 | 4.8 | 0.00 | 0.03 | 0.03 | 75 | 1012.5 |
| 20260903024718 | 24 | 163 | 1.6 | 4.8 | 0.00 | 0.03 | 0.03 | 75 | 1012.5 |
| 20260903024601 | 24 | 163 | 1.6 | 4.8 | 0.00 | 0.03 | 0.03 | 75 | 1012.6 |
| 20260903024510 | 24 | 163 | 1.6 | 4.8 | 0.00 | 0.03 | 0.03 | 75 | 1012.6 |
| 20260903024434 | 24 | 163 | 1.6 | 8.0 | 0.00 | 0.03 | 0.03 | 75 | 1012.6 |
| 20260903024338 | 24 | 163 | 1.6 | 8.0 | 0.00 | 0.03 | 0.03 | 75 | 1012.5 |
| 20260903024155 | 24 | 163 | 1.6 | 8.0 | 0.00 | 0.03 | 0.03 | 74 | 1012.6 |
| 20260903024121 | 24 | 163 | 1.6 | 8.0 | 0.00 | 0.03 | 0.03 | 74 | 1012.6 |
| 20260903024004 | 24 | 163 | 3.2 | 8.0 | 0.00 | 0.03 | 0.03 | 74 | 1012.5 |
| 20260903023909 | 24 | 163 | 1.6 | 8.0 | 0.00 | 0.03 | 0.03 | 74 | 1012.5 |
| 20260903023817 | 24 | 163 | 3.2 | 8.0 | 0.00 | 0.03 | 0.03 | 74 | 1012.6 |
| 20260903023655 | 24 | 163 | 3.2 | 8.0 | 0.00 | 0.03 | 0.03 | 74 | 1012.6 |
| 20260903023600 | 24 | 163 | 3.2 | 8.0 | 0.00 | 0.03 | 0.03 | 74 | 1012.6 |
| 20260903023505 | 24 | 163 | 3.2 | 8.0 | 0.00 | 0.03 | 0.03 | 74 | 1012.6 |
| 20260903023410 | 24 | 162 | 1.6 | 8.0 | 0.00 | 0.03 | 0.03 | 74 | 1012.6 |
| 20260903023335 | 24 | 162 | 3.2 | 8.0 | 0.00 | 0.03 | 0.03 | 74 | 1012.6 |
| 20260903023202 | 24 | 162 | 3.2 | 8.0 | 0.00 | 0.03 | 0.03 | 74 | 1012.6 |
| 20260903023107 | 24 | 162 | 3.2 | 8.0 | 0.00 | 0.03 | 0.03 | 74 | 1012.6 |
| 20260903023011 | 24 | 162 | 3.2 | 8.0 | 0.00 | 0.03 | 0.03 | 74 | 1012.6 |
| 20260903022935 | 24 | 162 | 3.2 | 8.0 | 0.00 | 0.03 | 0.03 | 74 | 1012.6 |
| 20260903022819 | 24 | 162 | 4.8 | 8.0 | 0.00 | 0.03 | 0.03 | 74 | 1012.5 |
| 20260903022703 | 24 | 161 | 3.2 | 4.8 | 0.00 | 0.03 | 0.03 | 74 | 1012.5 |
| 20260903022608 | 24 | 161 | 3.2 | 6.4 | 0.00 | 0.03 | 0.03 | 73 | 1012.5 |
| 20260903022456 | 24 | 161 | 3.2 | 4.8 | 0.00 | 0.03 | 0.03 | 74 | 1012.5 |
| 20260903022401 | 24 | 161 | 3.2 | 6.4 | 0.00 | 0.03 | 0.03 | 74 | 1012.5 |
| 20260903022306 | 24 | 161 | 3.2 | 6.4 | 0.00 | 0.03 | 0.03 | 74 | 1012.5 |
| 20260903022230 | 24 | 161 | 3.2 | 6.4 | 0.00 | 0.03 | 0.03 | 73 | 1012.5 |
| 20260903022114 | 24 | 160 | 3.2 | 4.8 | 0.00 | 0.03 | 0.03 | 73 | 1012.5 |
| 20260903022019 | 24 | 160 | 3.2 | 8.0 | 0.00 | 0.03 | 0.03 | 73 | 1012.5 |
| 20260903021903 | 24 | 160 | 3.2 | 8.0 | 0.00 | 0.03 | 0.03 | 73 | 1012.4 |
| 20260903021811 | 24 | 160 | 3.2 | 8.0 | 0.00 | 0.03 | 0.03 | 73 | 1012.4 |
| 20260903021716 | 24 | 159 | 3.2 | 8.0 | 0.00 | 0.03 | 0.03 | 73 | 1012.5 |
| 20260903021600 | 24 | 159 | 3.2 | 8.0 | 0.00 | 0.03 | 0.03 | 73 | 1012.4 |
| 20260903021525 | 24 | 159 | 3.2 | 8.0 | 0.00 | 0.03 | 0.03 | 73 | 1012.5 |
| 20260903021409 | 24 | 159 | 3.2 | 8.0 | 0.00 | 0.03 | 0.03 | 73 | 1012.5 |
| 20260903021334 | 24 | 159 | 3.2 | 8.0 | 0.00 | 0.03 | 0.03 | 73 | 1012.5 |
| 20260903021218 | 24 | 159 | 3.2 | 8.0 | 0.00 | 0.03 | 0.03 | 73 | 1012.4 |
| 20260903021102 | 24 | 165 | 1.6 | 8.0 | 0.00 | 0.03 | 0.03 | 73 | 1012.5 |
| 20260903021010 | 24 | 165 | 1.6 | 8.0 | 0.00 | 0.03 | 0.03 | 73 | 1012.5 |
| 20260903020915 | 24 | 165 | 1.6 | 8.0 | 0.00 | 0.03 | 0.03 | 73 | 1012.5 |
| 20260903020819 | 24 | 165 | 3.2 | 8.0 | 0.00 | 0.03 | 0.03 | 73 | 1012.5 |
| 20260903020657 | 24 | 165 | 4.8 | 8.0 | 0.00 | 0.03 | 0.03 | 73 | 1012.5 |
| 20260903020601 | 24 | 165 | 4.8 | 8.0 | 0.00 | 0.03 | 0.03 | 73 | 1012.5 |
| 20260903020506 | 24 | 164 | 3.2 | 8.0 | 0.00 | 0.03 | 0.03 | 73 | 1012.6 |
| 20260903020355 | 24 | 165 | 3.2 | 4.8 | 0.00 | 0.03 | 0.03 | 73 | 1012.6 |
| 20260903020300 | 24 | 165 | 1.6 | 4.8 | 0.00 | 0.03 | 0.03 | 73 | 1012.5 |
| 20260903020226 | 24 | 165 | 1.6 | 4.8 | 0.00 | 0.03 | 0.03 | 73 | 1012.5 |
| 20260903020110 | 25 | 165 | 1.6 | 4.8 | 0.00 | 0.03 | 0.03 | 73 | 1012.5 |
| 20260903020034 | 25 | 164 | 1.6 | 4.8 | 0.00 | 0.03 | 0.03 | 72 | 1012.5 |
| 20260903015859 | 25 | 164 | 1.6 | 4.8 | 0.00 | 0.03 | 0.03 | 72 | 1012.4 |
| 20260903015803 | 25 | 164 | 1.6 | 4.8 | 0.00 | 0.03 | 0.03 | 72 | 1012.5 |
| 20260903015732 | 25 | 164 | 3.2 | 4.8 | 0.00 | 0.03 | 0.03 | 72 | 1012.5 |
| 20260903015616 | 25 | 164 | 3.2 | 4.8 | 0.00 | 0.03 | 0.03 | 72 | 1012.4 |
| 20260903015540 | 25 | 164 | 3.2 | 4.8 | 0.00 | 0.03 | 0.03 | 72 | 1012.4 |
| 20260903015357 | 25 | 164 | 1.6 | 4.8 | 0.00 | 0.03 | 0.03 | 72 | 1012.4 |
| 20260903015305 | 25 | 164 | 1.6 | 4.8 | 0.00 | 0.03 | 0.03 | 72 | 1012.5 |
| 20260903015207 | 25 | 164 | 1.6 | 4.8 | 0.00 | 0.03 | 0.03 | 72 | 1012.5 |
| 20260903015056 | 25 | 164 | 1.6 | 4.8 | 0.00 | 0.03 | 0.03 | 71 | 1012.5 |
| 20260903015001 | 25 | 164 | 1.6 | 4.8 | 0.00 | 0.03 | 0.03 | 71 | 1012.4 |
| 20260903014906 | 25 | 157 | 3.2 | 4.8 | 0.00 | 0.03 | 0.03 | 71 | 1012.4 |
| 20260903014830 | 25 | 157 | 3.2 | 4.8 | 0.00 | 0.03 | 0.03 | 71 | 1012.4 |
| 20260903014714 | 25 | 157 | 3.2 | 4.8 | 0.00 | 0.03 | 0.03 | 71 | 1012.4 |
| 20260903014600 | 25 | 156 | 1.6 | 4.8 | 0.00 | 0.03 | 0.03 | 71 | 1012.4 |
| 20260903014504 | 25 | 156 | 1.6 | 4.8 | 0.00 | 0.03 | 0.03 | 71 | 1012.3 |
| 20260903014412 | 25 | 156 | 1.6 | 4.8 | 0.00 | 0.03 | 0.03 | 71 | 1012.3 |
| 20260903014317 | 25 | 156 | 1.6 | 4.8 | 0.00 | 0.03 | 0.03 | 71 | 1012.3 |
| 20260903014155 | 25 | 156 | 0.0 | 4.8 | 0.00 | 0.03 | 0.03 | 70 | 1012.3 |
| 20260903014100 | 25 | 156 | 1.6 | 8.0 | 0.00 | 0.03 | 0.03 | 70 | 1012.3 |
| 20260903014004 | 25 | 156 | 1.6 | 8.0 | 0.00 | 0.03 | 0.03 | 70 | 1012.2 |
| 20260903013908 | 25 | 156 | 3.2 | 8.0 | 0.00 | 0.03 | 0.03 | 70 | 1012.2 |
| 20260903013817 | 25 | 157 | 3.2 | 8.0 | 0.00 | 0.03 | 0.03 | 70 | 1012.2 |
| 20260903013655 | 25 | 157 | 1.6 | 8.0 | 0.00 | 0.03 | 0.03 | 70 | 1012.2 |
| 20260903013600 | 25 | 157 | 3.2 | 8.0 | 0.00 | 0.03 | 0.03 | 70 | 1012.2 |
| 20260903013524 | 25 | 157 | 3.2 | 8.0 | 0.00 | 0.03 | 0.03 | 70 | 1012.2 |
| 20260903013408 | 25 | 157 | 3.2 | 8.0 | 0.00 | 0.03 | 0.03 | 70 | 1012.2 |
| 20260903013313 | 25 | 157 | 3.2 | 8.0 | 0.00 | 0.03 | 0.03 | 70 | 1012.1 |
| 20260903013203 | 25 | 156 | 3.2 | 8.0 | 0.00 | 0.03 | 0.03 | 70 | 1012.1 |
| 20260903013107 | 25 | 157 | 3.2 | 8.0 | 0.00 | 0.03 | 0.03 | 70 | 1012.1 |
| 20260903013012 | 25 | 157 | 4.8 | 8.0 | 0.00 | 0.03 | 0.03 | 70 | 1012.1 |
| 20260903012856 | 25 | 155 | 4.8 | 8.0 | 0.00 | 0.03 | 0.03 | 70 | 1012.1 |
| 20260903012802 | 25 | 155 | 3.2 | 8.0 | 0.00 | 0.03 | 0.03 | 70 | 1012.1 |
| 20260903012706 | 25 | 157 | 3.2 | 8.0 | 0.00 | 0.03 | 0.03 | 70 | 1012.1 |
| 20260903012555 | 25 | 157 | 3.2 | 8.0 | 0.00 | 0.03 | 0.03 | 69 | 1012.1 |
| 20260903012500 | 26 | 157 | 4.8 | 8.0 | 0.00 | 0.03 | 0.03 | 69 | 1012.1 |
| 20260903012425 | 26 | 157 | 3.2 | 8.0 | 0.00 | 0.03 | 0.03 | 69 | 1012.0 |
| 20260903012308 | 26 | 156 | 3.2 | 4.8 | 0.00 | 0.03 | 0.03 | 69 | 1012.0 |
| 20260903012213 | 26 | 155 | 3.2 | 4.8 | 0.00 | 0.03 | 0.03 | 69 | 1012.0 |
| 20260903012059 | 26 | 155 | 3.2 | 4.8 | 0.00 | 0.03 | 0.03 | 69 | 1012.1 |
| 20260903012007 | 26 | 155 | 3.2 | 4.8 | 0.00 | 0.03 | 0.03 | 69 | 1012.1 |
| 20260903011911 | 26 | 155 | 3.2 | 4.8 | 0.00 | 0.03 | 0.03 | 69 | 1012.1 |
| 20260903011815 | 26 | 155 | 1.6 | 4.8 | 0.00 | 0.03 | 0.03 | 69 | 1012.1 |
| 20260903011719 | 26 | 155 | 1.6 | 4.8 | 0.00 | 0.03 | 0.03 | 69 | 1012.0 |
| 20260903011602 | 26 | 155 | 1.6 | 4.8 | 0.00 | 0.03 | 0.03 | 69 | 1012.1 |
| 20260903011508 | 26 | 155 | 1.6 | 4.8 | 0.00 | 0.03 | 0.03 | 68 | 1012.1 |
| 20260903011356 | 26 | 155 | 1.6 | 4.8 | 0.00 | 0.03 | 0.03 | 68 | 1012.0 |
| 20260903011321 | 26 | 155 | 0.0 | 4.8 | 0.00 | 0.03 | 0.03 | 68 | 1012.0 |
| 20260903011159 | 26 | 155 | 1.6 | 4.8 | 0.00 | 0.03 | 0.03 | 68 | 1012.1 |
| 20260903011103 | 26 | 155 | 1.6 | 4.8 | 0.00 | 0.03 | 0.03 | 68 | 1012.1 |
| 20260903011008 | 26 | 155 | 1.6 | 4.8 | 0.00 | 0.03 | 0.03 | 68 | 1011.9 |
| 20260903010912 | 26 | 156 | 1.6 | 4.8 | 0.00 | 0.03 | 0.03 | 68 | 1011.9 |
| 20260903010801 | 26 | 156 | 3.2 | 4.8 | 0.00 | 0.03 | 0.03 | 68 | 1011.9 |
| 20260903010706 | 26 | 156 | 3.2 | 4.8 | 0.00 | 0.03 | 0.03 | 67 | 1011.9 |
| 20260903010611 | 26 | 156 | 1.6 | 4.8 | 0.00 | 0.03 | 0.03 | 68 | 1011.9 |
| 20260903010456 | 26 | 156 | 3.2 | 4.8 | 0.00 | 0.03 | 0.03 | 67 | 1011.9 |
| 20260903010421 | 26 | 156 | 3.2 | 4.8 | 0.00 | 0.03 | 0.03 | 67 | 1011.9 |
| 20260903010325 | 26 | 157 | 1.6 | 3.2 | 0.00 | 0.03 | 0.03 | 67 | 1011.8 |
| 20260903010209 | 26 | 157 | 1.6 | 3.2 | 0.00 | 0.03 | 0.03 | 67 | 1011.8 |
| 20260903010117 | 26 | 157 | 1.6 | 4.8 | 0.00 | 0.03 | 0.03 | 67 | 1011.9 |
| 20260903005955 | 26 | 157 | 1.6 | 8.0 | 0.00 | 0.03 | 0.03 | 67 | 1011.9 |
| 20260903005920 | 26 | 157 | 1.6 | 8.0 | 0.00 | 0.03 | 0.03 | 67 | 1011.9 |
| 20260903005824 | 26 | 157 | 1.6 | 8.0 | 0.00 | 0.03 | 0.03 | 67 | 1011.9 |
| 20260903005728 | 26 | 157 | 1.6 | 8.0 | 0.00 | 0.03 | 0.03 | 66 | 1011.9 |
| 20260903005611 | 26 | 157 | 1.6 | 8.0 | 0.00 | 0.03 | 0.03 | 66 | 1011.9 |
| 20260903005516 | 26 | 157 | 1.6 | 8.0 | 0.00 | 0.03 | 0.03 | 66 | 1011.9 |
| 20260903005400 | 27 | 157 | 3.2 | 8.0 | 0.00 | 0.03 | 0.03 | 66 | 1011.9 |
| 20260903005308 | 27 | 157 | 4.8 | 8.0 | 0.00 | 0.03 | 0.03 | 66 | 1011.9 |
| 20260903005212 | 27 | 157 | 3.2 | 8.0 | 0.00 | 0.03 | 0.03 | 66 | 1011.9 |
| 20260903005117 | 27 | 158 | 3.2 | 8.0 | 0.00 | 0.03 | 0.03 | 66 | 1011.9 |
| 20260903004955 | 27 | 161 | 1.6 | 8.0 | 0.00 | 0.03 | 0.03 | 66 | 1011.9 |
| 20260903004859 | 27 | 161 | 3.2 | 8.0 | 0.00 | 0.03 | 0.03 | 66 | 1011.9 |
| 20260903004804 | 27 | 161 | 3.2 | 8.0 | 0.00 | 0.03 | 0.03 | 65 | 1011.9 |
| 20260903004729 | 27 | 161 | 3.2 | 8.0 | 0.00 | 0.03 | 0.03 | 65 | 1011.9 |
| 20260903004617 | 27 | 161 | 3.2 | 8.0 | 0.00 | 0.03 | 0.03 | 65 | 1011.9 |
| 20260903004455 | 27 | 161 | 3.2 | 8.0 | 0.00 | 0.03 | 0.03 | 65 | 1011.9 |
| 20260903004400 | 27 | 161 | 3.2 | 8.0 | 0.00 | 0.03 | 0.03 | 65 | 1011.9 |
| 20260903004325 | 27 | 161 | 3.2 | 8.0 | 0.00 | 0.03 | 0.03 | 65 | 1011.9 |
| 20260903004209 | 27 | 160 | 1.6 | 8.0 | 0.00 | 0.03 | 0.03 | 65 | 1011.9 |
| 20260903004114 | 27 | 160 | 3.2 | 8.0 | 0.00 | 0.03 | 0.03 | 65 | 1011.9 |
| 20260903004023 | 27 | 160 | 3.2 | 8.0 | 0.00 | 0.03 | 0.03 | 65 | 1012.0 |
| 20260903003927 | 27 | 161 | 3.2 | 8.0 | 0.00 | 0.03 | 0.03 | 64 | 1012.1 |
| 20260903003810 | 27 | 161 | 3.2 | 8.0 | 0.00 | 0.03 | 0.03 | 64 | 1012.1 |
| 20260903003735 | 27 | 161 | 3.2 | 8.0 | 0.00 | 0.03 | 0.03 | 64 | 1012.0 |
| 20260903003558 | 27 | 161 | 3.2 | 6.4 | 0.00 | 0.03 | 0.03 | 64 | 1012.0 |
| 20260903003503 | 27 | 161 | 1.6 | 4.8 | 0.00 | 0.03 | 0.03 | 64 | 1012.0 |
| 20260903003428 | 27 | 161 | 1.6 | 4.8 | 0.00 | 0.03 | 0.03 | 64 | 1012.0 |
| 20260903003255 | 27 | 161 | 1.6 | 4.8 | 0.00 | 0.03 | 0.03 | 64 | 1012.0 |
| 20260903003200 | 27 | 161 | 3.2 | 4.8 | 0.00 | 0.03 | 0.03 | 64 | 1012.0 |
| 20260903003105 | 27 | 161 | 1.6 | 8.0 | 0.00 | 0.03 | 0.03 | 64 | 1012.0 |
| 20260903003030 | 27 | 161 | 1.6 | 8.0 | 0.00 | 0.03 | 0.03 | 64 | 1012.0 |
| 20260903002934 | 27 | 161 | 1.6 | 8.0 | 0.00 | 0.03 | 0.03 | 64 | 1012.0 |
| 20260903002758 | 27 | 161 | 1.6 | 8.0 | 0.00 | 0.03 | 0.03 | 64 | 1012.0 |
| 20260903002701 | 27 | 160 | 3.2 | 8.0 | 0.00 | 0.03 | 0.03 | 64 | 1011.9 |
| 20260903002610 | 27 | 160 | 3.2 | 8.0 | 0.00 | 0.03 | 0.03 | 64 | 1011.9 |
| 20260903002455 | 27 | 161 | 3.2 | 8.0 | 0.00 | 0.03 | 0.03 | 63 | 1012.0 |
| 20260903002359 | 27 | 160 | 4.8 | 8.0 | 0.00 | 0.03 | 0.03 | 63 | 1012.0 |
| 20260903002306 | 27 | 160 | 4.8 | 8.0 | 0.00 | 0.03 | 0.03 | 63 | 1012.0 |
| 20260903002209 | 27 | 161 | 3.2 | 8.0 | 0.00 | 0.03 | 0.03 | 63 | 1012.0 |
| 20260903002115 | 27 | 159 | 1.6 | 8.0 | 0.00 | 0.03 | 0.03 | 63 | 1012.0 |
| 20260903002003 | 27 | 159 | 1.6 | 8.0 | 0.00 | 0.03 | 0.03 | 63 | 1012.0 |
| 20260903001927 | 28 | 159 | 1.6 | 8.0 | 0.00 | 0.03 | 0.03 | 63 | 1012.0 |
| 20260903001811 | 28 | 159 | 1.6 | 8.0 | 0.00 | 0.03 | 0.03 | 63 | 1012.0 |
| 20260903001656 | 28 | 159 | 3.2 | 9.7 | 0.00 | 0.03 | 0.03 | 63 | 1012.0 |
| 20260903001601 | 28 | 159 | 3.2 | 9.7 | 0.00 | 0.03 | 0.03 | 63 | 1011.9 |
| 20260903001506 | 28 | 159 | 3.2 | 9.7 | 0.00 | 0.03 | 0.03 | 63 | 1012.0 |
| 20260903001431 | 28 | 159 | 3.2 | 9.7 | 0.00 | 0.03 | 0.03 | 62 | 1012.0 |
| 20260903001319 | 28 | 159 | 3.2 | 9.7 | 0.00 | 0.03 | 0.03 | 62 | 1011.9 |
| 20260903001157 | 28 | 159 | 4.8 | 9.7 | 0.00 | 0.03 | 0.03 | 62 | 1011.9 |
| 20260903001102 | 28 | 160 | 4.8 | 9.7 | 0.00 | 0.03 | 0.03 | 62 | 1011.9 |
| 20260903001006 | 28 | 160 | 4.8 | 9.7 | 0.00 | 0.03 | 0.03 | 62 | 1011.9 |
| 20260903000911 | 28 | 160 | 4.8 | 9.7 | 0.00 | 0.03 | 0.03 | 62 | 1011.9 |
| 20260903000800 | 28 | 154 | 4.8 | 9.7 | 0.00 | 0.03 | 0.03 | 62 | 1011.8 |
| 20260903000706 | 28 | 153 | 4.8 | 9.7 | 0.00 | 0.03 | 0.03 | 62 | 1011.9 |
| 20260903000610 | 28 | 169 | 4.8 | 9.7 | 0.00 | 0.03 | 0.03 | 62 | 1011.9 |
| 20260903000514 | 28 | 169 | 6.4 | 9.7 | 0.00 | 0.03 | 0.03 | 62 | 1011.9 |
| 20260903000419 | 28 | 150 | 4.8 | 8.0 | 0.00 | 0.03 | 0.03 | 62 | 1011.9 |
| 20260903000303 | 28 | 151 | 3.2 | 9.7 | 0.00 | 0.03 | 0.03 | 61 | 1011.9 |
| 20260903000208 | 28 | 151 | 3.2 | 9.7 | 0.00 | 0.03 | 0.03 | 62 | 1011.9 |
| 20260903000115 | 28 | 151 | 3.2 | 9.7 | 0.00 | 0.03 | 0.03 | 62 | 1011.9 |
| 20260903000019 | 28 | 151 | 3.2 | 9.7 | 0.00 | 0.03 | 0.03 | 62 | 1011.9 |
| 20260902235857 | 28 | 151 | 3.2 | 9.7 | 0.00 | 0.03 | 0.03 | 62 | 1011.9 |
| 20260902235802 | 28 | 151 | 3.2 | 9.7 | 0.00 | 0.03 | 0.03 | 61 | 1011.9 |
| 20260902235707 | 28 | 151 | 4.8 | 9.7 | 0.00 | 0.03 | 0.03 | 61 | 1011.9 |
| 20260902235556 | 28 | 151 | 4.8 | 9.7 | 0.00 | 0.03 | 0.03 | 61 | 1011.9 |
| 20260902235501 | 28 | 153 | 3.2 | 9.7 | 0.00 | 0.03 | 0.03 | 62 | 1011.9 |
| 20260902235406 | 28 | 147 | 3.2 | 6.4 | 0.00 | 0.03 | 0.03 | 61 | 1012.0 |
| 20260902235311 | 28 | 147 | 1.6 | 6.4 | 0.00 | 0.03 | 0.03 | 62 | 1012.0 |
| 20260902235156 | 28 | 146 | 3.2 | 11.3 | 0.00 | 0.03 | 0.03 | 62 | 1012.0 |
| 20260902235100 | 28 | 146 | 3.2 | 11.3 | 0.00 | 0.03 | 0.03 | 61 | 1011.9 |
| 20260902235008 | 28 | 146 | 3.2 | 11.3 | 0.00 | 0.03 | 0.03 | 61 | 1012.0 |
| 20260902234912 | 28 | 146 | 3.2 | 11.3 | 0.00 | 0.03 | 0.03 | 61 | 1012.0 |
| 20260902234757 | 28 | 146 | 4.8 | 11.3 | 0.00 | 0.03 | 0.03 | 61 | 1011.9 |
| 20260902234722 | 28 | 152 | 3.2 | 11.3 | 0.00 | 0.03 | 0.03 | 61 | 1012.0 |
| 20260902234605 | 28 | 151 | 3.2 | 14.5 | 0.00 | 0.03 | 0.03 | 61 | 1011.9 |
| 20260902234530 | 28 | 150 | 4.8 | 14.5 | 0.00 | 0.03 | 0.03 | 61 | 1011.9 |
| 20260902234413 | 28 | 151 | 6.4 | 14.5 | 0.00 | 0.03 | 0.03 | 60 | 1011.9 |
| 20260902234301 | 28 | 136 | 6.4 | 14.5 | 0.00 | 0.03 | 0.03 | 61 | 1011.9 |
| 20260902234206 | 28 | 144 | 6.4 | 14.5 | 0.00 | 0.03 | 0.03 | 60 | 1011.9 |
| 20260902234111 | 28 | 155 | 4.8 | 14.5 | 0.00 | 0.03 | 0.03 | 61 | 1011.9 |
| 20260902233956 | 28 | 161 | 6.4 | 14.5 | 0.00 | 0.03 | 0.03 | 61 | 1012.0 |
| 20260902233901 | 28 | 161 | 9.7 | 14.5 | 0.00 | 0.03 | 0.03 | 60 | 1011.9 |
| 20260902233806 | 28 | 176 | 8.0 | 14.5 | 0.00 | 0.03 | 0.03 | 60 | 1011.9 |
| 20260902233714 | 28 | 158 | 8.0 | 14.5 | 0.00 | 0.03 | 0.03 | 60 | 1011.9 |
| 20260902233558 | 28 | 167 | 6.4 | 11.3 | 0.00 | 0.03 | 0.03 | 60 | 1012.0 |
| 20260902233503 | 28 | 153 | 6.4 | 11.3 | 0.00 | 0.03 | 0.03 | 60 | 1012.0 |
| 20260902233407 | 28 | 137 | 6.4 | 12.9 | 0.00 | 0.03 | 0.03 | 60 | 1012.0 |
| 20260902233332 | 28 | 163 | 6.4 | 12.9 | 0.00 | 0.03 | 0.03 | 60 | 1012.0 |
| 20260902233156 | 28 | 162 | 4.8 | 12.9 | 0.00 | 0.03 | 0.03 | 61 | 1012.0 |
| 20260902233104 | 28 | 137 | 4.8 | 12.9 | 0.00 | 0.03 | 0.03 | 60 | 1012.0 |
| 20260902233009 | 28 | 136 | 4.8 | 12.9 | 0.00 | 0.03 | 0.03 | 60 | 1012.0 |
| 20260902232914 | 28 | 124 | 4.8 | 12.9 | 0.00 | 0.03 | 0.03 | 59 | 1012.0 |
| 20260902232759 | 28 | 113 | 6.4 | 12.9 | 0.00 | 0.03 | 0.03 | 60 | 1012.0 |
| 20260902232704 | 28 | 165 | 6.4 | 12.9 | 0.00 | 0.03 | 0.03 | 60 | 1012.0 |
| 20260902232609 | 28 | 165 | 6.4 | 12.9 | 0.00 | 0.03 | 0.03 | 60 | 1012.0 |
| 20260902232457 | 28 | 154 | 4.8 | 11.3 | 0.00 | 0.03 | 0.03 | 60 | 1012.0 |
| 20260902232403 | 28 | 155 | 3.2 | 11.3 | 0.00 | 0.03 | 0.03 | 60 | 1012.0 |
| 20260902232307 | 28 | 154 | 4.8 | 11.3 | 0.00 | 0.03 | 0.03 | 60 | 1012.0 |
| 20260902232211 | 28 | 150 | 4.8 | 11.3 | 0.00 | 0.03 | 0.03 | 60 | 1012.0 |
| 20260902232056 | 28 | 144 | 4.8 | 11.3 | 0.00 | 0.03 | 0.03 | 60 | 1012.0 |
| 20260902232005 | 28 | 146 | 6.4 | 11.3 | 0.00 | 0.03 | 0.03 | 60 | 1012.1 |
| 20260902231910 | 28 | 153 | 4.8 | 11.3 | 0.00 | 0.03 | 0.03 | 60 | 1012.1 |
| 20260902231835 | 28 | 167 | 6.4 | 11.3 | 0.00 | 0.03 | 0.03 | 60 | 1012.1 |
| 20260902231718 | 28 | 168 | 6.4 | 11.3 | 0.00 | 0.03 | 0.03 | 60 | 1012.0 |
| 20260902231557 | 28 | 154 | 4.8 | 11.3 | 0.00 | 0.03 | 0.03 | 60 | 1012.1 |
| 20260902231502 | 28 | 153 | 3.2 | 11.3 | 0.00 | 0.03 | 0.03 | 60 | 1012.0 |
| 20260902231406 | 29 | 155 | 3.2 | 11.3 | 0.00 | 0.03 | 0.03 | 59 | 1012.0 |
| 20260902231255 | 29 | 155 | 3.2 | 11.3 | 0.00 | 0.03 | 0.03 | 60 | 1012.0 |
| 20260902231200 | 29 | 155 | 3.2 | 12.9 | 0.00 | 0.03 | 0.03 | 60 | 1012.0 |
| 20260902231105 | 29 | 155 | 4.8 | 12.9 | 0.00 | 0.03 | 0.03 | 60 | 1012.0 |
| 20260902231008 | 29 | 155 | 6.4 | 12.9 | 0.00 | 0.03 | 0.03 | 59 | 1012.0 |
| 20260902230912 | 29 | 160 | 6.4 | 12.9 | 0.00 | 0.03 | 0.03 | 60 | 1012.0 |
| 20260902230801 | 29 | 166 | 4.8 | 12.9 | 0.00 | 0.03 | 0.03 | 61 | 1012.1 |
| 20260902230706 | 29 | 166 | 6.4 | 12.9 | 0.00 | 0.03 | 0.03 | 60 | 1012.1 |
| 20260902230611 | 29 | 167 | 6.4 | 12.9 | 0.00 | 0.03 | 0.03 | 59 | 1012.1 |
| 20260902230455 | 29 | 163 | 8.0 | 12.9 | 0.00 | 0.03 | 0.03 | 59 | 1012.0 |
| 20260902230421 | 29 | 159 | 8.0 | 12.9 | 0.00 | 0.03 | 0.03 | 59 | 1012.0 |
| 20260902230258 | 29 | 157 | 6.4 | 9.7 | 0.00 | 0.03 | 0.03 | 59 | 1012.0 |
| 20260902230223 | 29 | 142 | 6.4 | 9.7 | 0.00 | 0.03 | 0.03 | 59 | 1012.1 |
| 20260902230127 | 29 | 153 | 6.4 | 9.7 | 0.00 | 0.03 | 0.03 | 59 | 1012.1 |
| 20260902225955 | 29 | 146 | 6.4 | 9.7 | 0.00 | 0.03 | 0.03 | 59 | 1012.0 |
| 20260902225918 | 29 | 184 | 6.4 | 12.9 | 0.00 | 0.03 | 0.03 | 59 | 1012.0 |
| 20260902225819 | 29 | 144 | 3.2 | 12.9 | 0.00 | 0.03 | 0.03 | 60 | 1012.2 |
| 20260902225703 | 29 | 146 | 4.8 | 12.9 | 0.00 | 0.03 | 0.03 | 60 | 1012.1 |
| 20260902225608 | 29 | 146 | 6.4 | 12.9 | 0.00 | 0.03 | 0.03 | 59 | 1012.1 |
| 20260902225513 | 29 | 114 | 6.4 | 12.9 | 0.00 | 0.03 | 0.03 | 59 | 1012.1 |
| 20260902225403 | 29 | 123 | 4.8 | 16.1 | 0.00 | 0.03 | 0.03 | 59 | 1012.1 |
| 20260902225327 | 29 | 166 | 6.4 | 16.1 | 0.00 | 0.03 | 0.03 | 60 | 1012.1 |
| 20260902225210 | 29 | 149 | 6.4 | 16.1 | 0.00 | 0.03 | 0.03 | 59 | 1012.1 |
| 20260902225055 | 29 | 96 | 6.4 | 16.1 | 0.00 | 0.03 | 0.03 | 59 | 1012.1 |
| 20260902225021 | 29 | 155 | 6.4 | 16.1 | 0.00 | 0.03 | 0.03 | 60 | 1012.1 |
| 20260902224904 | 29 | 127 | 4.8 | 16.1 | 0.00 | 0.03 | 0.03 | 60 | 1012.1 |
| 20260902224829 | 29 | 124 | 6.4 | 16.1 | 0.00 | 0.03 | 0.03 | 59 | 1012.1 |
| 20260902224718 | 29 | 125 | 9.7 | 16.1 | 0.00 | 0.03 | 0.03 | 58 | 1012.1 |
| 20260902224556 | 29 | 138 | 9.7 | 17.7 | 0.00 | 0.03 | 0.03 | 59 | 1012.1 |
| 20260902224501 | 29 | 113 | 6.4 | 17.7 | 0.00 | 0.03 | 0.03 | 59 | 1012.0 |
| 20260902224406 | 29 | 144 | 4.8 | 17.7 | 0.00 | 0.03 | 0.03 | 58 | 1012.0 |
| 20260902224311 | 29 | 133 | 4.8 | 17.7 | 0.00 | 0.03 | 0.03 | 59 | 1012.0 |
| 20260902224235 | 29 | 132 | 4.8 | 17.7 | 0.00 | 0.03 | 0.03 | 59 | 1012.0 |
| 20260902224102 | 29 | 115 | 4.8 | 17.7 | 0.00 | 0.03 | 0.03 | 58 | 1012.0 |
| 20260902224007 | 29 | 121 | 4.8 | 17.7 | 0.00 | 0.03 | 0.03 | 59 | 1012.0 |
| 20260902223912 | 29 | 137 | 9.7 | 17.7 | 0.00 | 0.03 | 0.03 | 59 | 1012.1 |
| 20260902223817 | 29 | 123 | 11.3 | 17.7 | 0.00 | 0.03 | 0.03 | 58 | 1012.1 |
| 20260902223741 | 29 | 153 | 8.0 | 17.7 | 0.00 | 0.03 | 0.03 | 58 | 1012.0 |
| 20260902223558 | 29 | 177 | 4.8 | 11.3 | 0.00 | 0.03 | 0.03 | 58 | 1012.0 |
| 20260902223503 | 29 | 176 | 6.4 | 12.9 | 0.00 | 0.03 | 0.03 | 58 | 1012.0 |
| 20260902223412 | 29 | 175 | 8.0 | 12.9 | 0.00 | 0.03 | 0.03 | 58 | 1012.0 |
| 20260902223257 | 30 | 156 | 8.0 | 12.9 | 0.00 | 0.03 | 0.03 | 59 | 1012.1 |
| 20260902223203 | 30 | 180 | 6.4 | 12.9 | 0.00 | 0.03 | 0.03 | 58 | 1012.0 |
| 20260902223107 | 29 | 155 | 8.0 | 12.9 | 0.00 | 0.03 | 0.03 | 59 | 1012.0 |
| 20260902223012 | 30 | 171 | 9.7 | 12.9 | 0.00 | 0.03 | 0.03 | 58 | 1012.1 |
| 20260902222916 | 29 | 167 | 8.0 | 12.9 | 0.00 | 0.03 | 0.03 | 59 | 1012.0 |
| 20260902222804 | 29 | 180 | 8.0 | 12.9 | 0.00 | 0.03 | 0.03 | 59 | 1012.1 |
| 20260902222706 | 29 | 156 | 8.0 | 12.9 | 0.00 | 0.03 | 0.03 | 59 | 1011.9 |
| 20260902222611 | 29 | 177 | 8.0 | 14.5 | 0.00 | 0.03 | 0.03 | 59 | 1011.9 |
| 20260902222516 | 29 | 165 | 6.4 | 14.5 | 0.00 | 0.03 | 0.03 | 59 | 1012.0 |
| 20260902222400 | 29 | 165 | 6.4 | 14.5 | 0.00 | 0.03 | 0.03 | 60 | 1012.1 |
| 20260902222306 | 29 | 174 | 6.4 | 14.5 | 0.00 | 0.03 | 0.03 | 59 | 1012.1 |
| 20260902222229 | 29 | 167 | 9.7 | 14.5 | 0.00 | 0.03 | 0.03 | 59 | 1012.1 |
| 20260902222057 | 29 | 194 | 8.0 | 14.5 | 0.00 | 0.03 | 0.03 | 59 | 1012.1 |
| 20260902222001 | 29 | 136 | 4.8 | 12.9 | 0.00 | 0.03 | 0.03 | 59 | 1012.0 |
| 20260902221906 | 29 | 115 | 4.8 | 12.9 | 0.00 | 0.03 | 0.03 | 59 | 1012.0 |
| 20260902221831 | 29 | 136 | 4.8 | 12.9 | 0.00 | 0.03 | 0.03 | 59 | 1012.0 |
| 20260902221655 | 29 | 127 | 6.4 | 12.9 | 0.00 | 0.03 | 0.03 | 59 | 1012.0 |
| 20260902221600 | 29 | 124 | 6.4 | 12.9 | 0.00 | 0.03 | 0.03 | 58 | 1012.1 |
| 20260902221525 | 29 | 130 | 6.4 | 16.1 | 0.00 | 0.03 | 0.03 | 59 | 1012.0 |
| 20260902221413 | 29 | 125 | 6.4 | 16.1 | 0.00 | 0.03 | 0.03 | 58 | 1012.0 |
| 20260902221318 | 29 | 125 | 6.4 | 16.1 | 0.00 | 0.03 | 0.03 | 58 | 1012.0 |
| 20260902221156 | 29 | 121 | 8.0 | 16.1 | 0.00 | 0.03 | 0.03 | 58 | 1012.1 |
| 20260902221100 | 29 | 140 | 9.7 | 16.1 | 0.00 | 0.03 | 0.03 | 58 | 1012.1 |
| 20260902221005 | 30 | 124 | 9.7 | 16.1 | 0.00 | 0.03 | 0.03 | 58 | 1012.1 |
| 20260902220930 | 30 | 123 | 9.7 | 16.1 | 0.00 | 0.03 | 0.03 | 58 | 1012.1 |
| 20260902220818 | 30 | 119 | 9.7 | 16.1 | 0.00 | 0.03 | 0.03 | 58 | 1012.1 |
| 20260902220656 | 30 | 167 | 9.7 | 14.5 | 0.00 | 0.03 | 0.03 | 58 | 1012.1 |
| 20260902220621 | 30 | 169 | 8.0 | 11.3 | 0.00 | 0.03 | 0.03 | 57 | 1012.1 |
| 20260902220505 | 30 | 169 | 8.0 | 11.3 | 0.00 | 0.03 | 0.03 | 59 | 1012.1 |
| 20260902220410 | 30 | 186 | 8.0 | 11.3 | 0.00 | 0.03 | 0.03 | 59 | 1012.1 |
| 20260902220255 | 30 | 205 | 6.4 | 9.7 | 0.00 | 0.03 | 0.03 | 58 | 1012.2 |
| 20260902220220 | 30 | 206 | 6.4 | 11.3 | 0.00 | 0.03 | 0.03 | 59 | 1012.2 |
| 20260902220107 | 30 | 206 | 6.4 | 11.3 | 0.00 | 0.03 | 0.03 | 60 | 1012.2 |
| 20260902220012 | 30 | 86 | 4.8 | 11.3 | 0.00 | 0.03 | 0.03 | 61 | 1012.2 |
| 20260902215857 | 30 | 124 | 3.2 | 8.0 | 0.00 | 0.03 | 0.03 | 58 | 1012.3 |
| 20260902215802 | 30 | 180 | 0.0 | 8.0 | 0.00 | 0.03 | 0.03 | 60 | 1012.3 |
| 20260902215727 | 29 | 261 | 1.6 | 8.0 | 0.00 | 0.03 | 0.03 | 60 | 1012.3 |
| 20260902215611 | 29 | 261 | 3.2 | 8.0 | 0.00 | 0.03 | 0.03 | 58 | 1012.3 |
| 20260902215500 | 29 | 260 | 3.2 | 8.0 | 0.00 | 0.03 | 0.03 | 58 | 1012.4 |
| 20260902215406 | 29 | 260 | 4.8 | 11.3 | 0.00 | 0.03 | 0.03 | 58 | 1012.3 |
| 20260902215310 | 29 | 261 | 4.8 | 11.3 | 0.00 | 0.03 | 0.03 | 59 | 1012.3 |
| 20260902215155 | 29 | 304 | 3.2 | 11.3 | 0.00 | 0.03 | 0.03 | 60 | 1012.2 |
| 20260902215118 | 29 | 9 | 3.2 | 11.3 | 0.00 | 0.03 | 0.03 | 60 | 1012.2 |
| 20260902214956 | 29 | 178 | 3.2 | 11.3 | 0.00 | 0.03 | 0.03 | 59 | 1012.3 |
| 20260902214905 | 29 | 178 | 3.2 | 11.3 | 0.00 | 0.03 | 0.03 | 58 | 1012.3 |
| 20260902214810 | 29 | 178 | 4.8 | 11.3 | 0.00 | 0.03 | 0.03 | 59 | 1012.3 |
| 20260902214733 | 29 | 171 | 6.4 | 11.3 | 0.00 | 0.03 | 0.03 | 58 | 1012.3 |
| 20260902214617 | 29 | 167 | 6.4 | 11.3 | 0.00 | 0.03 | 0.03 | 58 | 1012.3 |
| 20260902214542 | 29 | 140 | 4.8 | 9.7 | 0.00 | 0.03 | 0.03 | 59 | 1012.2 |
| 20260902214358 | 29 | 136 | 4.8 | 11.3 | 0.00 | 0.03 | 0.03 | 59 | 1012.2 |
| 20260902214323 | 29 | 137 | 3.2 | 14.5 | 0.00 | 0.03 | 0.03 | 59 | 1012.2 |
| 20260902214210 | 29 | 137 | 3.2 | 14.5 | 0.00 | 0.03 | 0.03 | 59 | 1012.2 |
| 20260902214055 | 29 | 147 | 3.2 | 14.5 | 0.00 | 0.03 | 0.03 | 59 | 1012.2 |
| 20260902213959 | 29 | 146 | 4.8 | 14.5 | 0.00 | 0.03 | 0.03 | 60 | 1012.2 |
| 20260902213904 | 29 | 146 | 4.8 | 14.5 | 0.00 | 0.03 | 0.03 | 59 | 1012.2 |
| 20260902213828 | 29 | 182 | 4.8 | 14.5 | 0.00 | 0.03 | 0.03 | 60 | 1012.2 |
| 20260902213712 | 29 | 202 | 4.8 | 14.5 | 0.00 | 0.03 | 0.03 | 59 | 1012.2 |
| 20260902213601 | 29 | 121 | 8.0 | 14.5 | 0.00 | 0.03 | 0.03 | 58 | 1012.3 |
| 20260902213526 | 29 | 130 | 8.0 | 14.5 | 0.00 | 0.03 | 0.03 | 59 | 1012.2 |
| 20260902213410 | 29 | 95 | 6.4 | 12.9 | 0.00 | 0.03 | 0.03 | 59 | 1012.2 |
| 20260902213255 | 29 | 144 | 4.8 | 12.9 | 0.00 | 0.03 | 0.03 | 59 | 1012.2 |
| 20260902213200 | 29 | 119 | 6.4 | 12.9 | 0.00 | 0.03 | 0.03 | 59 | 1012.2 |
| 20260902213103 | 29 | 134 | 6.4 | 12.9 | 0.00 | 0.03 | 0.03 | 59 | 1012.2 |
| 20260902213008 | 29 | 126 | 6.4 | 12.9 | 0.00 | 0.03 | 0.03 | 59 | 1012.2 |
| 20260902212856 | 29 | 135 | 8.0 | 12.9 | 0.00 | 0.03 | 0.03 | 60 | 1012.2 |
| 20260902212821 | 29 | 141 | 6.4 | 12.9 | 0.00 | 0.03 | 0.03 | 58 | 1012.2 |
| 20260902212704 | 29 | 126 | 6.4 | 12.9 | 0.00 | 0.03 | 0.03 | 59 | 1012.2 |
| 20260902212627 | 29 | 126 | 8.0 | 12.9 | 0.00 | 0.03 | 0.03 | 59 | 1012.2 |
| 20260902212531 | 29 | 144 | 8.0 | 12.9 | 0.00 | 0.03 | 0.03 | 59 | 1012.2 |
| 20260902212355 | 29 | 122 | 6.4 | 11.3 | 0.00 | 0.03 | 0.03 | 58 | 1012.3 |
| 20260902212300 | 29 | 97 | 6.4 | 11.3 | 0.00 | 0.03 | 0.03 | 59 | 1012.2 |
| 20260902212209 | 29 | 151 | 6.4 | 14.5 | 0.00 | 0.03 | 0.03 | 59 | 1012.2 |
| 20260902212114 | 29 | 144 | 6.4 | 14.5 | 0.00 | 0.03 | 0.03 | 60 | 1012.3 |
| 20260902212019 | 29 | 195 | 3.2 | 14.5 | 0.00 | 0.03 | 0.03 | 60 | 1012.3 |
| 20260902211903 | 29 | 123 | 1.6 | 14.5 | 0.00 | 0.03 | 0.03 | 59 | 1012.2 |
| 20260902211827 | 29 | 123 | 3.2 | 14.5 | 0.00 | 0.03 | 0.03 | 58 | 1012.2 |
| 20260902211711 | 29 | 124 | 6.4 | 14.5 | 0.00 | 0.03 | 0.03 | 58 | 1012.2 |
| 20260902211600 | 29 | 125 | 6.4 | 14.5 | 0.00 | 0.03 | 0.03 | 59 | 1012.2 |
| 20260902211505 | 29 | 142 | 8.0 | 14.5 | 0.00 | 0.03 | 0.03 | 59 | 1012.2 |
| 20260902211430 | 29 | 153 | 9.7 | 17.7 | 0.00 | 0.03 | 0.03 | 59 | 1012.2 |
| 20260902211313 | 29 | 165 | 8.0 | 17.7 | 0.00 | 0.03 | 0.03 | 59 | 1012.3 |
| 20260902211159 | 29 | 138 | 6.4 | 17.7 | 0.00 | 0.03 | 0.03 | 60 | 1012.2 |
| 20260902211103 | 29 | 117 | 6.4 | 17.7 | 0.00 | 0.03 | 0.03 | 60 | 1012.2 |
| 20260902211008 | 29 | 119 | 6.4 | 17.7 | 0.00 | 0.03 | 0.03 | 58 | 1012.2 |
| 20260902210916 | 29 | 115 | 6.4 | 17.7 | 0.00 | 0.03 | 0.03 | 58 | 1012.3 |
| 20260902210841 | 29 | 112 | 6.4 | 17.7 | 0.00 | 0.03 | 0.03 | 59 | 1012.2 |
| 20260902210658 | 29 | 83 | 9.7 | 17.7 | 0.00 | 0.03 | 0.03 | 58 | 1012.2 |
| 20260902210623 | 29 | 132 | 9.7 | 17.7 | 0.00 | 0.03 | 0.03 | 58 | 1012.3 |
| 20260902210507 | 29 | 114 | 6.4 | 17.7 | 0.00 | 0.03 | 0.03 | 59 | 1012.3 |
| 20260902210410 | 29 | 162 | 6.4 | 17.7 | 0.00 | 0.03 | 0.03 | 59 | 1012.3 |
| 20260902210315 | 29 | 176 | 6.4 | 17.7 | 0.00 | 0.03 | 0.03 | 60 | 1012.3 |
| 20260902210203 | 29 | 121 | 6.4 | 17.7 | 0.00 | 0.03 | 0.03 | 60 | 1012.3 |
| 20260902210107 | 29 | 106 | 6.4 | 17.7 | 0.00 | 0.03 | 0.03 | 60 | 1012.3 |
| 20260902210012 | 29 | 88 | 9.7 | 17.7 | 0.00 | 0.03 | 0.03 | 60 | 1012.3 |
| 20260902205857 | 29 | 91 | 8.0 | 17.7 | 0.00 | 0.03 | 0.03 | 59 | 1012.3 |
| 20260902205802 | 29 | 107 | 6.4 | 12.9 | 0.00 | 0.03 | 0.03 | 59 | 1012.4 |
| 20260902205728 | 29 | 130 | 6.4 | 12.9 | 0.00 | 0.03 | 0.03 | 60 | 1012.4 |
| 20260902205555 | 29 | 153 | 4.8 | 11.3 | 0.00 | 0.03 | 0.03 | 59 | 1012.3 |
| 20260902205500 | 29 | 153 | 4.8 | 12.9 | 0.00 | 0.03 | 0.03 | 59 | 1012.3 |
| 20260902205404 | 29 | 86 | 6.4 | 12.9 | 0.00 | 0.03 | 0.03 | 58 | 1012.4 |
| 20260902205308 | 29 | 90 | 8.0 | 12.9 | 0.00 | 0.03 | 0.03 | 59 | 1012.4 |
| 20260902205212 | 29 | 113 | 4.8 | 17.7 | 0.00 | 0.03 | 0.03 | 59 | 1012.3 |
| 20260902205057 | 29 | 123 | 6.4 | 17.7 | 0.00 | 0.03 | 0.03 | 58 | 1012.4 |
| 20260902205004 | 29 | 123 | 8.0 | 17.7 | 0.00 | 0.03 | 0.03 | 58 | 1012.3 |
| 20260902204909 | 29 | 119 | 8.0 | 17.7 | 0.00 | 0.03 | 0.03 | 58 | 1012.3 |
| 20260902204813 | 29 | 163 | 8.0 | 17.7 | 0.00 | 0.03 | 0.03 | 59 | 1012.3 |
| 20260902204716 | 29 | 186 | 9.7 | 17.7 | 0.00 | 0.03 | 0.03 | 59 | 1012.4 |
| 20260902204600 | 29 | 182 | 9.7 | 17.7 | 0.00 | 0.03 | 0.03 | 59 | 1012.4 |
| 20260902204505 | 29 | 165 | 11.3 | 17.7 | 0.00 | 0.03 | 0.03 | 58 | 1012.4 |
| 20260902204429 | 29 | 165 | 11.3 | 17.7 | 0.00 | 0.03 | 0.03 | 58 | 1012.4 |
| 20260902204331 | 29 | 194 | 8.0 | 17.7 | 0.00 | 0.03 | 0.03 | 60 | 1012.4 |
| 20260902204157 | 29 | 201 | 3.2 | 11.3 | 0.00 | 0.03 | 0.03 | 58 | 1012.4 |
| 20260902204102 | 29 | 244 | 1.6 | 12.9 | 0.00 | 0.03 | 0.03 | 59 | 1012.4 |
| 20260902204005 | 29 | 360 | 1.6 | 12.9 | 0.00 | 0.03 | 0.03 | 59 | 1012.4 |
| 20260902203909 | 29 | 355 | 3.2 | 14.5 | 0.00 | 0.03 | 0.03 | 59 | 1012.4 |
| 20260902203812 | 29 | 306 | 3.2 | 14.5 | 0.00 | 0.03 | 0.03 | 58 | 1012.4 |
| 20260902203716 | 29 | 259 | 3.2 | 14.5 | 0.00 | 0.03 | 0.03 | 57 | 1012.5 |
| 20260902203600 | 29 | 259 | 4.8 | 14.5 | 0.00 | 0.03 | 0.03 | 59 | 1012.5 |
| 20260902203509 | 29 | 261 | 8.0 | 14.5 | 0.00 | 0.03 | 0.03 | 57 | 1012.5 |
| 20260902203414 | 29 | 259 | 8.0 | 14.5 | 0.00 | 0.03 | 0.03 | 58 | 1012.5 |
| 20260902203259 | 29 | 246 | 8.0 | 14.5 | 0.00 | 0.03 | 0.03 | 59 | 1012.5 |
| 20260902203222 | 29 | 232 | 11.3 | 14.5 | 0.00 | 0.03 | 0.03 | 57 | 1012.5 |
| 20260902203125 | 29 | 211 | 12.9 | 14.5 | 0.00 | 0.03 | 0.03 | 57 | 1012.5 |
| 20260902203008 | 29 | 219 | 11.3 | 14.5 | 0.00 | 0.03 | 0.03 | 58 | 1012.5 |
| 20260902202857 | 29 | 194 | 4.8 | 14.5 | 0.00 | 0.03 | 0.03 | 60 | 1012.5 |
| 20260902202800 | 29 | 173 | 1.6 | 11.3 | 0.00 | 0.03 | 0.03 | 59 | 1012.5 |
| 20260902202704 | 29 | 173 | 1.6 | 12.9 | 0.00 | 0.03 | 0.03 | 59 | 1012.5 |
| 20260902202609 | 29 | 174 | 4.8 | 12.9 | 0.00 | 0.03 | 0.03 | 58 | 1012.5 |
| 20260902202512 | 29 | 174 | 6.4 | 12.9 | 0.00 | 0.03 | 0.03 | 58 | 1012.6 |
| 20260902202419 | 29 | 174 | 4.8 | 12.9 | 0.00 | 0.03 | 0.03 | 60 | 1012.6 |
| 20260902202256 | 29 | 130 | 4.8 | 12.9 | 0.00 | 0.03 | 0.03 | 58 | 1012.5 |
| 20260902202205 | 29 | 142 | 6.4 | 12.9 | 0.00 | 0.03 | 0.03 | 58 | 1012.5 |
| 20260902202110 | 29 | 150 | 8.0 | 12.9 | 0.00 | 0.03 | 0.03 | 58 | 1012.5 |
| 20260902202014 | 29 | 180 | 9.7 | 12.9 | 0.00 | 0.03 | 0.03 | 57 | 1012.6 |
| 20260902201919 | 29 | 169 | 8.0 | 12.9 | 0.00 | 0.03 | 0.03 | 58 | 1012.6 |
| 20260902201803 | 29 | 191 | 4.8 | 14.5 | 0.00 | 0.03 | 0.03 | 56 | 1012.6 |
| 20260902201728 | 29 | 211 | 4.8 | 14.5 | 0.00 | 0.03 | 0.03 | 57 | 1012.6 |
| 20260902201556 | 29 | 212 | 8.0 | 14.5 | 0.00 | 0.03 | 0.03 | 56 | 1012.6 |
| 20260902201501 | 29 | 219 | 8.0 | 14.5 | 0.00 | 0.03 | 0.03 | 58 | 1012.5 |
| 20260902201405 | 29 | 236 | 4.8 | 14.5 | 0.00 | 0.03 | 0.03 | 58 | 1012.5 |
| 20260902201309 | 29 | 180 | 4.8 | 14.5 | 0.00 | 0.03 | 0.03 | 57 | 1012.5 |
| 20260902201214 | 29 | 217 | 6.4 | 17.7 | 0.00 | 0.03 | 0.03 | 56 | 1012.5 |
| 20260902201059 | 29 | 217 | 9.7 | 19.3 | 0.00 | 0.03 | 0.03 | 57 | 1012.5 |
| 20260902201008 | 29 | 219 | 8.0 | 19.3 | 0.00 | 0.03 | 0.03 | 58 | 1012.5 |
| 20260902200913 | 29 | 142 | 6.4 | 19.3 | 0.00 | 0.03 | 0.03 | 56 | 1012.6 |
| 20260902200818 | 29 | 142 | 8.0 | 19.3 | 0.00 | 0.03 | 0.03 | 57 | 1012.6 |
| 20260902200702 | 29 | 169 | 9.7 | 19.3 | 0.00 | 0.03 | 0.03 | 57 | 1012.6 |
| 20260902200607 | 29 | 175 | 11.3 | 19.3 | 0.00 | 0.03 | 0.03 | 57 | 1012.6 |
| 20260902200511 | 29 | 209 | 12.9 | 19.3 | 0.00 | 0.03 | 0.03 | 57 | 1012.6 |
| 20260902200400 | 29 | 196 | 11.3 | 19.3 | 0.00 | 0.03 | 0.03 | 58 | 1012.6 |
| 20260902200304 | 29 | 209 | 8.0 | 19.3 | 0.00 | 0.03 | 0.03 | 58 | 1012.7 |
| 20260902200209 | 29 | 188 | 8.0 | 12.9 | 0.00 | 0.03 | 0.03 | 57 | 1012.7 |
| 20260902200114 | 29 | 213 | 8.0 | 12.9 | 0.00 | 0.03 | 0.03 | 57 | 1012.7 |
| 20260902200019 | 29 | 212 | 8.0 | 14.5 | 0.00 | 0.03 | 0.03 | 58 | 1012.7 |
| 20260902195856 | 29 | 182 | 1.6 | 14.5 | 0.00 | 0.03 | 0.03 | 59 | 1012.6 |
| 20260902195806 | 29 | 97 | 1.6 | 14.5 | 0.00 | 0.03 | 0.03 | 61 | 1012.7 |
| 20260902195710 | 28 | 97 | 1.6 | 14.5 | 0.00 | 0.03 | 0.03 | 59 | 1012.7 |
| 20260902195614 | 28 | 97 | 3.2 | 14.5 | 0.00 | 0.03 | 0.03 | 58 | 1012.7 |
| 20260902195459 | 28 | 97 | 3.2 | 14.5 | 0.00 | 0.03 | 0.03 | 58 | 1012.8 |
| 20260902195404 | 28 | 200 | 6.4 | 14.5 | 0.00 | 0.03 | 0.03 | 57 | 1012.8 |
| 20260902195309 | 28 | 200 | 11.3 | 14.5 | 0.00 | 0.03 | 0.03 | 56 | 1012.8 |
| 20260902195158 | 29 | 207 | 11.3 | 14.5 | 0.00 | 0.03 | 0.03 | 57 | 1012.8 |
| 20260902195102 | 29 | 233 | 11.3 | 14.5 | 0.00 | 0.03 | 0.03 | 57 | 1012.8 |
| 20260902195006 | 29 | 203 | 9.7 | 12.9 | 0.00 | 0.03 | 0.03 | 58 | 1012.7 |
| 20260902194910 | 29 | 171 | 6.4 | 12.9 | 0.00 | 0.03 | 0.03 | 59 | 1012.7 |
| 20260902194755 | 28 | 167 | 4.8 | 12.9 | 0.00 | 0.03 | 0.03 | 58 | 1012.7 |
| 20260902194700 | 28 | 190 | 4.8 | 12.9 | 0.00 | 0.03 | 0.03 | 58 | 1012.8 |
| 20260902194625 | 28 | 190 | 8.0 | 12.9 | 0.00 | 0.03 | 0.03 | 58 | 1012.8 |
| 20260902194512 | 28 | 186 | 8.0 | 14.5 | 0.00 | 0.03 | 0.03 | 58 | 1012.8 |
| 20260902194417 | 28 | 159 | 4.8 | 14.5 | 0.00 | 0.03 | 0.03 | 61 | 1012.8 |
| 20260902194300 | 28 | 123 | 6.4 | 14.5 | 0.00 | 0.03 | 0.03 | 59 | 1012.8 |
| 20260902194205 | 28 | 117 | 8.0 | 14.5 | 0.00 | 0.03 | 0.03 | 59 | 1012.8 |
| 20260902194110 | 28 | 137 | 9.7 | 14.5 | 0.00 | 0.03 | 0.03 | 60 | 1012.8 |
| 20260902193955 | 28 | 176 | 8.0 | 14.5 | 0.00 | 0.03 | 0.03 | 59 | 1012.9 |
| 20260902193904 | 28 | 237 | 8.0 | 14.5 | 0.00 | 0.03 | 0.03 | 59 | 1012.9 |
| 20260902193809 | 29 | 227 | 9.7 | 14.5 | 0.00 | 0.03 | 0.03 | 60 | 1012.9 |
| 20260902193733 | 28 | 216 | 9.7 | 14.5 | 0.00 | 0.03 | 0.03 | 60 | 1013.0 |
| 20260902193616 | 28 | 211 | 8.0 | 12.9 | 0.00 | 0.03 | 0.03 | 60 | 1013.0 |
| 20260902193459 | 28 | 218 | 4.8 | 12.9 | 0.00 | 0.03 | 0.03 | 59 | 1013.0 |
| 20260902193403 | 28 | 93 | 4.8 | 12.9 | 0.00 | 0.03 | 0.03 | 59 | 1013.0 |
| 20260902193308 | 28 | 92 | 6.4 | 14.5 | 0.00 | 0.03 | 0.03 | 58 | 1013.0 |
| 20260902193216 | 28 | 91 | 4.8 | 14.5 | 0.00 | 0.03 | 0.03 | 63 | 1013.0 |
| 20260902193120 | 28 | 105 | 4.8 | 14.5 | 0.00 | 0.03 | 0.03 | 63 | 1013.0 |
| 20260902192958 | 28 | 108 | 6.4 | 14.5 | 0.00 | 0.03 | 0.03 | 61 | 1013.1 |
| 20260902192903 | 28 | 165 | 8.0 | 14.5 | 0.00 | 0.03 | 0.03 | 59 | 1013.0 |
| 20260902192828 | 28 | 166 | 8.0 | 14.5 | 0.00 | 0.03 | 0.03 | 59 | 1013.0 |
| 20260902192711 | 28 | 128 | 8.0 | 14.5 | 0.00 | 0.03 | 0.03 | 60 | 1013.0 |
| 20260902192614 | 28 | 161 | 8.0 | 14.5 | 0.00 | 0.03 | 0.03 | 60 | 1013.1 |
| 20260902192503 | 28 | 139 | 6.4 | 14.5 | 0.00 | 0.03 | 0.03 | 62 | 1013.1 |
| 20260902192408 | 28 | 115 | 6.4 | 14.5 | 0.00 | 0.03 | 0.03 | 61 | 1013.1 |
| 20260902192313 | 28 | 131 | 9.7 | 14.5 | 0.00 | 0.03 | 0.03 | 62 | 1013.0 |
| 20260902192239 | 28 | 110 | 11.3 | 14.5 | 0.00 | 0.03 | 0.03 | 62 | 1013.1 |
| 20260902192055 | 28 | 106 | 9.7 | 12.9 | 0.00 | 0.03 | 0.03 | 61 | 1013.1 |
| 20260902192000 | 28 | 101 | 8.0 | 12.9 | 0.00 | 0.03 | 0.03 | 60 | 1013.1 |
| 20260902191909 | 28 | 112 | 8.0 | 12.9 | 0.00 | 0.03 | 0.03 | 61 | 1013.1 |
| 20260902191813 | 28 | 155 | 6.4 | 12.9 | 0.00 | 0.03 | 0.03 | 63 | 1013.1 |
| 20260902191718 | 28 | 131 | 4.8 | 12.9 | 0.00 | 0.03 | 0.03 | 63 | 1013.1 |
| 20260902191556 | 28 | 124 | 3.2 | 12.9 | 0.00 | 0.03 | 0.03 | 63 | 1013.2 |
| 20260902191501 | 28 | 171 | 3.2 | 12.9 | 0.00 | 0.03 | 0.03 | 63 | 1013.1 |
| 20260902191426 | 28 | 171 | 4.8 | 12.9 | 0.00 | 0.03 | 0.03 | 64 | 1013.1 |
| 20260902191309 | 28 | 192 | 4.8 | 12.9 | 0.00 | 0.03 | 0.03 | 62 | 1013.1 |
| 20260902191158 | 28 | 192 | 6.4 | 12.9 | 0.00 | 0.03 | 0.03 | 62 | 1013.1 |
| 20260902191103 | 28 | 186 | 9.7 | 12.9 | 0.00 | 0.03 | 0.03 | 62 | 1013.1 |
| 20260902191007 | 28 | 196 | 9.7 | 12.9 | 0.00 | 0.03 | 0.03 | 63 | 1013.1 |
| 20260902190912 | 28 | 209 | 6.4 | 14.5 | 0.00 | 0.03 | 0.03 | 64 | 1013.1 |
| 20260902190757 | 28 | 184 | 1.6 | 14.5 | 0.00 | 0.03 | 0.03 | 64 | 1013.1 |
| 20260902190706 | 28 | 184 | 0.0 | 14.5 | 0.00 | 0.03 | 0.03 | 63 | 1013.1 |
| 20260902190610 | 28 | 184 | 1.6 | 14.5 | 0.00 | 0.03 | 0.03 | 63 | 1013.1 |
| 20260902190535 | 28 | 184 | 3.2 | 14.5 | 0.00 | 0.03 | 0.03 | 62 | 1013.1 |
| 20260902190418 | 28 | 184 | 6.4 | 14.5 | 0.00 | 0.03 | 0.03 | 62 | 1013.3 |
| 20260902190302 | 28 | 180 | 8.0 | 14.5 | 0.00 | 0.03 | 0.03 | 62 | 1013.3 |
| 20260902190207 | 28 | 168 | 9.7 | 14.5 | 0.00 | 0.03 | 0.03 | 62 | 1013.2 |
| 20260902190111 | 28 | 221 | 9.7 | 14.5 | 0.00 | 0.03 | 0.03 | 62 | 1013.2 |
| 20260902190000 | 28 | 208 | 8.0 | 16.1 | 0.00 | 0.03 | 0.03 | 61 | 1013.3 |
| 20260902185902 | 28 | 180 | 8.0 | 16.1 | 0.00 | 0.03 | 0.03 | 63 | 1013.3 |
| 20260902185807 | 28 | 176 | 8.0 | 16.1 | 0.00 | 0.03 | 0.03 | 61 | 1013.3 |
| 20260902185731 | 28 | 214 | 6.4 | 16.1 | 0.00 | 0.03 | 0.03 | 62 | 1013.3 |
| 20260902185555 | 28 | 192 | 8.0 | 16.1 | 0.00 | 0.03 | 0.03 | 62 | 1013.3 |
| 20260902185520 | 28 | 188 | 9.7 | 16.1 | 0.00 | 0.03 | 0.03 | 62 | 1013.3 |
| 20260902185358 | 28 | 189 | 8.0 | 16.1 | 0.00 | 0.03 | 0.03 | 62 | 1013.3 |
| 20260902185307 | 28 | 191 | 6.4 | 16.1 | 0.00 | 0.03 | 0.03 | 63 | 1013.3 |
| 20260902185212 | 28 | 192 | 4.8 | 16.1 | 0.00 | 0.03 | 0.03 | 62 | 1013.3 |
| 20260902185137 | 28 | 192 | 4.8 | 16.1 | 0.00 | 0.03 | 0.03 | 61 | 1013.3 |
| 20260902185041 | 28 | 190 | 8.0 | 16.1 | 0.00 | 0.03 | 0.03 | 62 | 1013.3 |
| 20260902184858 | 28 | 197 | 8.0 | 16.1 | 0.00 | 0.03 | 0.03 | 63 | 1013.3 |
| 20260902184803 | 28 | 177 | 8.0 | 12.9 | 0.00 | 0.03 | 0.03 | 61 | 1013.3 |
| 20260902184706 | 28 | 178 | 8.0 | 12.9 | 0.00 | 0.03 | 0.03 | 62 | 1013.3 |
| 20260902184555 | 28 | 188 | 6.4 | 12.9 | 0.00 | 0.03 | 0.03 | 63 | 1013.4 |
| 20260902184520 | 27 | 187 | 8.0 | 16.1 | 0.00 | 0.03 | 0.03 | 61 | 1013.4 |
| 20260902184423 | 27 | 174 | 8.0 | 16.1 | 0.00 | 0.03 | 0.03 | 62 | 1013.4 |
| 20260902184307 | 27 | 171 | 8.0 | 16.1 | 0.00 | 0.03 | 0.03 | 61 | 1013.4 |
| 20260902184212 | 27 | 182 | 8.0 | 16.1 | 0.00 | 0.03 | 0.03 | 61 | 1013.4 |
| 20260902184117 | 27 | 127 | 9.7 | 16.1 | 0.00 | 0.03 | 0.03 | 62 | 1013.5 |
| 20260902184001 | 27 | 169 | 9.7 | 16.1 | 0.00 | 0.03 | 0.03 | 61 | 1013.5 |
| 20260902183910 | 28 | 187 | 11.3 | 16.1 | 0.00 | 0.03 | 0.03 | 61 | 1013.5 |
| 20260902183755 | 28 | 201 | 9.7 | 16.1 | 0.00 | 0.03 | 0.03 | 62 | 1013.5 |
| 20260902183659 | 28 | 181 | 8.0 | 16.1 | 0.00 | 0.03 | 0.03 | 63 | 1013.5 |
| 20260902183604 | 27 | 172 | 9.7 | 16.1 | 0.00 | 0.03 | 0.03 | 62 | 1013.6 |
| 20260902183529 | 27 | 199 | 11.3 | 16.1 | 0.00 | 0.03 | 0.03 | 62 | 1013.6 |
| 20260902183413 | 27 | 191 | 9.7 | 16.1 | 0.00 | 0.03 | 0.03 | 62 | 1013.5 |
| 20260902183302 | 27 | 193 | 6.4 | 16.1 | 0.00 | 0.03 | 0.03 | 63 | 1013.7 |
| 20260902183207 | 27 | 193 | 3.2 | 14.5 | 0.00 | 0.03 | 0.03 | 62 | 1013.7 |
| 20260902183112 | 27 | 192 | 3.2 | 14.5 | 0.00 | 0.03 | 0.03 | 61 | 1013.6 |
| 20260902182957 | 27 | 190 | 8.0 | 14.5 | 0.00 | 0.03 | 0.03 | 63 | 1013.7 |